[[{"header":{"parameterUnit":"m.s-1","parameterCategory":1,"la1":30.6,"la2":28.766,"lo1":-90.7593,"lo2":-88.6598,"dy":0.0162,"dx":0.0183,"nx":116,"ny":114,"refTime":"2024-05-24T06:00:00:Z","depth":0,"parameterNumber":2,"parameterNumberName":"U-component_of_WINDS"},"data":[0.0,0.0,0.0,0.0,0.0,0.0,0.0,0.0,0.0,0.0,0.0,0.0,0.0,0.0,0.0,0.0,0.0,0.0,0.0,0.0,0.0,0.0,0.0,0.0,0.0,0.0,0.0,0.0,0.0,0.0,0.0,0.0,0.0,0.0,0.0,0.0,0.0,0.0,0.0,0.0,0.0,0.0,0.0,0.0,0.0,0.0,0.0,0.0,0.0,0.0,0.0,0.0,0.0,0.0,0.0,0.0,0.0,0.0,0.0,0.0,0.0,0.0,0.0,0.0,0.0,0.0,0.0,0.0,0.0,0.0,0.0,0.0,0.0,0.0,0.0,0.0,0.0,0.0,0.0,0.0,0.0,0.0,0.0,0.0,0.0,0.0,0.0,0.0,0.0,0.0,0.0,0.0,0.0,0.0,0.0,0.0,0.0,0.0,0.0,0.0,0.0,0.0,0.0,0.0,0.0,0.0,0.0,0.0,0.0,0.0,0.0,0.0,0.0,0.0,0.0,0.0,0.0,0.0,0.0,0.0,0.0,0.0,0.0,0.0,0.0,0.0,0.0,0.0,0.0,0.0,0.0,0.0,0.0,0.0,0.0,0.0,0.0,0.0,0.0,0.0,0.0,0.0,0.0,0.0,0.0,0.0,0.0,0.0,0.0,0.0,0.0,0.0,0.0,0.0,0.0,0.0,0.0,0.0,0.0,0.0,0.0,0.0,0.0,0.0,0.0,0.0,0.0,0.0,0.0,0.0,0.0,0.0,0.0,0.0,0.0,0.0,0.0,0.0,0.0,0.0,0.0,0.0,0.0,0.0,0.0,0.0,0.0,0.0,0.0,0.0,0.0,0.0,0.0,0.0,0.0,0.0,0.0,0.0,0.0,0.0,0.0,0.0,0.0,0.0,0.0,0.0,0.0,0.0,0.0,0.0,0.0,0.0,0.0,0.0,0.0,0.0,0.0,0.0,0.0,0.0,0.0,0.0,0.0,0.0,0.0,0.0,0.0,0.0,0.0,0.0,0.0,0.0,0.0,0.0,0.0,0.0,0.0,0.0,0.0,0.0,0.0,0.0,0.0,0.0,0.0,0.0,0.0,0.0,0.0,0.0,0.0,0.0,0.0,0.0,0.0,0.0,0.0,0.0,0.0,0.0,0.0,0.0,0.0,0.0,0.0,0.0,0.0,0.0,0.0,0.0,0.0,0.0,0.0,0.0,0.0,0.0,0.0,0.0,0.0,0.0,0.0,0.0,0.0,0.0,0.0,0.0,0.0,0.0,0.0,0.0,0.0,0.0,0.0,0.0,0.0,0.0,0.0,0.0,0.0,0.0,0.0,0.0,0.0,0.0,0.0,0.0,0.0,0.0,0.0,0.0,0.0,0.0,0.0,0.0,0.0,0.0,0.0,0.0,0.0,0.0,0.0,0.0,0.0,0.0,0.0,0.0,0.0,0.0,0.0,0.0,0.0,0.0,0.0,0.0,0.0,0.0,0.0,0.0,0.0,0.0,0.0,0.0,0.0,0.0,0.0,0.0,0.0,0.0,0.0,0.0,0.0,0.0,0.0,0.0,0.0,0.0,0.0,0.0,0.0,0.0,0.0,0.0,0.0,0.0,0.0,0.0,0.0,0.0,0.0,0.0,0.0,0.0,0.0,0.0,0.0,0.0,0.0,0.0,0.0,0.0,0.0,0.0,0.0,0.0,0.0,0.0,0.0,0.0,0.0,0.0,0.0,0.0,0.0,0.0,0.0,0.0,0.0,0.0,0.0,0.0,0.0,0.0,0.0,0.0,0.0,0.0,0.0,0.0,0.0,0.0,0.0,0.0,0.0,0.0,0.0,0.0,0.0,0.0,0.0,0.0,0.0,0.0,0.0,0.0,0.0,0.0,0.0,0.0,0.0,0.0,0.0,0.0,0.0,0.0,0.0,0.0,0.0,0.0,0.0,0.0,0.0,0.0,0.0,0.0,0.0,0.0,0.0,0.0,0.0,0.0,0.0,0.0,0.0,0.0,0.0,0.0,0.0,0.0,0.0,0.0,0.0,0.0,0.0,0.0,0.0,0.0,0.0,0.0,0.0,0.0,0.0,0.0,0.0,0.0,0.0,0.0,0.0,0.0,0.0,0.0,0.0,0.0,0.0,0.0,0.0,0.0,0.0,0.0,0.0,0.0,0.0,0.0,0.0,0.0,0.0,0.0,0.0,0.0,0.0,0.0,0.0,0.0,0.0,0.0,0.0,0.0,0.0,0.0,0.0,0.0,0.0,0.0,0.0,0.0,0.0,0.0,0.0,0.0,0.0,0.0,0.0,0.0,0.0,0.0,0.0,0.0,0.0,0.0,0.0,0.0,0.0,0.0,0.0,0.0,0.0,0.0,0.0,0.0,0.0,0.0,0.0,0.0,0.0,0.0,0.0,0.0,0.0,0.0,0.0,0.0,0.0,0.0,0.0,0.0,0.0,0.0,0.0,0.0,0.0,0.0,0.0,0.0,0.0,0.0,0.0,0.0,0.0,0.0,0.0,0.0,0.0,0.0,0.0,0.0,0.0,0.0,0.0,0.0,0.0,0.0,0.0,0.0,0.0,0.0,0.0,0.0,0.0,0.0,0.0,0.0,0.0,0.0,0.0,0.0,0.0,0.0,0.0,0.0,0.0,0.0,0.0,0.0,0.0,0.0,0.0,0.0,0.0,0.0,0.0,0.0,0.0,0.0,0.0,0.0,0.0,0.0,0.0,0.0,0.0,0.0,0.0,0.0,0.0,0.0,0.0,0.0,0.0,0.0,0.0,0.0,0.0,0.0,0.0,0.0,0.0,0.0,0.0,0.0,0.0,0.0,0.0,0.0,0.0,0.0,0.0,0.0,0.0,0.0,0.0,0.0,0.0,0.0,0.0,0.0,0.0,0.0,0.0,0.0,0.0,0.0,0.0,0.0,0.0,0.0,0.0,0.0,0.0,0.0,0.0,0.0,0.0,0.0,0.0,0.0,0.0,0.0,0.0,0.0,0.0,0.0,0.0,0.0,0.0,0.0,0.0,0.0,0.0,0.0,0.0,0.0,0.0,0.0,0.0,0.0,0.0,0.0,0.0,0.0,0.0,0.0,0.0,0.0,0.0,0.0,0.0,0.0,0.0,0.0,0.0,0.0,0.0,0.0,0.0,0.0,0.0,0.0,0.0,0.0,0.0,0.0,0.0,0.0,0.0,0.0,0.0,0.0,0.0,0.0,0.0,0.0,0.0,0.0,0.0,0.0,0.0,0.0,0.0,0.0,0.0,0.0,0.0,0.0,0.0,0.0,0.0,0.0,0.0,0.0,0.0,0.0,0.0,0.0,0.0,0.0,0.0,0.0,0.0,0.0,0.0,0.0,0.0,0.0,0.0,0.0,0.0,0.0,0.0,0.0,0.0,0.0,0.0,0.0,0.0,0.0,0.0,0.0,0.0,0.0,0.0,0.0,0.0,0.0,0.0,0.0,0.0,0.0,0.0,0.0,0.0,0.0,0.0,0.0,0.0,0.0,0.0,0.0,0.0,0.0,0.0,0.0,0.0,0.0,0.0,0.0,0.0,0.0,0.0,0.0,0.0,0.0,0.0,0.0,0.0,0.0,0.0,0.0,0.0,0.0,0.0,0.0,0.0,0.0,0.0,0.0,0.0,0.0,0.0,0.0,0.0,0.0,0.0,0.0,0.0,0.0,0.0,0.0,0.0,0.0,0.0,0.0,0.0,0.0,0.0,0.0,0.0,0.0,0.0,0.0,0.0,0.0,0.0,0.0,0.0,0.0,0.0,0.0,0.0,0.0,0.0,0.0,0.0,0.0,0.0,0.0,0.0,0.0,0.0,0.0,0.0,0.0,0.0,0.0,0.0,0.0,0.0,0.0,0.0,0.0,0.0,0.0,0.0,0.0,0.0,0.0,0.0,0.0,0.0,0.0,0.0,0.0,0.0,0.0,0.0,0.0,0.0,0.0,0.0,0.0,0.0,0.0,0.0,0.0,0.0,0.0,0.0,0.0,0.0,0.0,0.0,0.0,0.0,0.0,0.0,0.0,0.0,0.0,0.0,0.0,0.0,0.0,0.0,0.0,0.0,0.0,0.0,0.0,0.0,0.0,0.0,0.0,0.0,0.0,0.0,0.0,0.0,0.0,0.0,0.0,0.0,0.0,0.0,0.0,0.0,0.0,0.0,0.0,0.0,0.0,0.0,0.0,0.0,0.0,0.0,0.0,0.0,0.0,0.0,0.0,0.0,0.0,0.0,0.0,0.0,0.0,0.0,0.0,0.0,0.0,0.0,0.0,0.0,0.0,0.0,0.0,0.0,0.0,0.0,0.0,0.0,0.0,0.0,0.0,0.0,0.0,0.0,0.0,0.0,0.0,0.0,0.0,0.0,0.0,0.0,0.0,0.0,0.0,0.0,0.0,0.0,0.0,0.0,0.0,0.0,0.0,0.0,0.0,0.0,0.0,0.0,0.0,0.0,0.0,0.0,0.0,0.0,0.0,0.0,0.0,0.0,0.0,0.0,0.0,0.0,0.0,0.0,0.0,0.0,0.0,0.0,0.0,0.0,0.0,0.0,0.0,0.0,0.0,0.0,0.0,0.0,0.0,0.0,0.0,0.0,0.0,0.0,0.0,0.0,0.0,0.0,0.0,0.0,0.0,0.0,0.0,0.0,0.0,0.0,0.0,0.0,0.0,0.0,0.0,0.0,0.0,0.0,0.0,0.0,0.0,0.0,0.0,0.0,0.0,0.0,0.0,0.0,0.0,0.0,0.0,0.0,0.0,0.0,0.0,0.0,0.0,0.0,0.0,0.0,0.0,0.0,0.0,0.0,0.0,0.0,0.0,0.0,0.0,0.0,0.0,0.0,0.0,0.0,0.0,0.0,0.0,0.0,0.0,0.0,0.0,0.0,0.0,0.0,0.0,0.0,0.0,0.0,0.0,0.0,0.0,0.0,0.0,0.0,0.0,0.0,0.0,0.0,0.0,0.0,0.0,0.0,0.0,0.0,0.0,0.0,0.0,0.0,0.0,0.0,0.0,0.0,0.0,0.0,0.0,0.0,0.0,0.0,0.0,0.0,0.0,0.0,0.0,0.0,0.0,0.0,0.0,0.0,0.0,0.0,0.0,0.0,0.0,0.0,0.0,0.0,0.0,0.0,0.0,0.0,0.0,0.0,0.0,0.0,0.0,0.0,0.0,0.0,0.0,0.0,0.0,0.0,0.0,0.0,0.0,0.0,0.0,0.0,0.0,0.0,0.0,0.0,0.0,0.0,0.0,0.0,0.0,0.0,0.0,0.0,0.0,0.0,0.0,0.0,0.0,0.0,0.0,0.0,0.0,0.0,0.0,0.0,0.0,0.0,0.0,0.0,0.0,0.0,0.0,0.0,0.0,0.0,0.0,0.0,0.0,0.0,0.0,0.0,0.0,0.0,0.0,0.0,0.0,0.0,0.0,0.0,0.0,0.0,0.0,0.0,0.0,0.0,0.0,0.0,0.0,0.0,0.0,0.0,0.0,0.0,0.0,0.0,0.0,0.0,0.0,0.0,0.0,0.0,0.0,0.0,0.0,0.0,0.0,0.0,0.0,0.0,0.0,0.0,0.0,0.0,0.0,0.0,0.0,0.0,0.0,0.0,0.0,0.0,0.0,0.0,0.0,0.0,0.0,0.0,0.0,0.0,0.0,0.0,0.0,0.0,0.0,0.0,0.0,0.0,0.0,0.0,0.0,0.0,0.0,0.0,0.0,0.0,0.0,0.0,0.0,0.0,0.0,0.0,0.0,0.0,0.0,0.0,0.0,0.0,0.0,0.0,0.0,0.0,0.0,0.0,0.0,0.0,0.0,0.0,0.0,0.0,0.0,0.0,0.0,0.0,0.0,0.0,0.0,0.0,0.0,0.0,0.0,0.0,0.0,0.0,0.0,0.0,0.0,0.0,0.0,0.0,0.0,0.0,0.0,0.0,0.0,0.0,0.0,0.0,0.0,0.0,0.0,0.0,0.0,0.0,0.0,0.0,0.0,0.0,0.0,0.0,0.0,0.0,0.0,0.0,0.0,0.0,0.0,0.0,0.0,0.0,0.0,0.0,0.0,0.0,0.0,0.0,0.0,0.0555,0.0,0.0,0.0,0.0,0.0,0.0,0.0,0.0,0.0,0.0,0.0,0.0,0.0,0.0,0.0,0.0,0.0,0.0,0.0,0.0,0.0,0.0,0.0,0.0,1.2484,1.3236,1.357,1.3835,1.3837,1.3478,0.0,0.0,0.0,0.0,0.0,1.135,1.0863,1.0962,1.1678,1.2585,1.3675,1.4902,1.4439,1.3646,1.2639,0.0,0.0,0.0,0.0,0.0,0.0,0.0,0.0,0.0,0.0,0.0,0.0,0.0,0.0,0.0,0.0,0.0,0.0,0.0,0.0,0.0,0.0,0.0,0.0,0.0,0.0,0.0,0.0,0.0,0.0,0.0,0.0,0.0,0.0,0.0,0.0,0.0,0.0,0.0,0.0,0.0,0.0,0.0,0.0,0.0,0.0,0.0,0.0,0.0,0.0,0.0,0.0,0.0,0.0,0.0,0.0,0.0,0.0,0.0,0.0,0.0,0.0,0.0,0.0,0.0,0.0,0.0,0.0,0.0,0.0,0.0,-0.0151,0.0,0.0,0.0,0.0,0.0,0.0,0.0,0.0,0.0,0.0,0.0,0.0,0.0,0.0,0.0,0.0,0.0,0.0,0.0,0.0,0.0,1.0939,1.1631,1.2822,1.3667,1.387,1.4294,1.4219,1.3462,1.3377,0.0,0.0,0.0,1.1693,1.1605,1.0979,1.1254,1.2503,1.3961,1.5873,1.8136,1.812,1.7166,1.5435,1.441,0.0,0.0,0.0,0.0,0.0,0.0,0.0,0.0,0.0,0.0,0.0,0.0,0.0,0.0,0.0,0.0,0.0,0.0,0.0,0.0,0.0,0.0,0.0,0.0,0.0,0.0,0.0,0.0,0.0,0.0,0.0,0.0,0.0,0.0,0.0,0.0,0.0,0.0,0.0,0.0,0.0,0.0,0.0,0.0,0.0,0.0,0.0,0.0,0.0,0.0,0.0,0.0,0.0,0.0,0.0,0.0,0.0,0.0,0.0,0.0,0.0,0.0,0.0,0.0,-0.1683,-0.1729,-0.1935,-0.1935,-0.1721,-0.1441,-0.0947,-0.0346,0.0,0.0,0.0,0.0,0.0,0.0,0.0,0.0,0.0,0.0,0.0,0.0,0.0,0.0,0.0,0.0,0.0,0.0,0.0,0.0,1.156,1.2071,1.3396,1.4489,1.5024,1.5154,1.4787,1.3884,1.3759,0.0,0.0,1.1994,1.179,1.1593,1.2162,1.2864,1.3663,1.6686,1.9029,2.0712,2.0539,2.0496,2.0508,1.8055,1.652,1.574,0.0,0.0,0.0,0.0,0.0,0.0,0.0,0.0,0.0,0.0,0.0,0.0,0.0,0.0,0.0,0.0,0.0,0.0,0.0,0.0,0.0,0.0,0.0,0.0,0.0,0.0,0.0,0.0,0.0,0.0,0.0,0.0,0.0,0.0,0.0,0.0,0.0,0.0,0.0,0.0,0.0,0.2373,0.2424,0.0,0.0,0.0,0.0,0.0,0.0,0.0,0.0,0.0,0.0,0.0,0.0,0.0,0.0,-0.1372,-0.1621,-0.1669,-0.1501,-0.2561,-0.3076,-0.3151,-0.3991,-0.3914,-0.3149,-0.3109,0.0,-0.1506,-0.148,0.0,0.0,0.0,0.0,0.0,0.0,0.0,0.0,0.0,0.0,0.0,0.0,0.0,0.0,0.0,0.0,0.0,0.0,0.0,0.0,0.0,1.4706,1.5844,1.6481,1.6878,1.642,1.484,1.4403,1.3568,1.2111,1.1704,1.1533,1.1546,1.2491,1.4216,1.6756,1.9089,2.0685,2.1624,2.1033,2.091,2.1197,1.9758,1.8391,1.7157,1.6425,0.0,0.0,0.0,0.0,0.0,0.0,0.0,0.0,0.0,0.0,0.0,0.0,0.0,0.0,0.0,0.0,0.0,0.0,0.0,0.0,0.0,0.0,0.0,0.0,0.0,0.0,0.0,0.0,0.0,0.0,0.0,0.0,0.0,0.0,0.0,0.0,0.0,0.0,0.0,0.2345,0.2203,0.1867,0.1172,0.0436,0.0,0.0,0.0,0.0,0.0,0.0,0.0,0.0,0.0,-0.1855,-0.1754,-0.1731,-0.1657,-0.1948,-0.2302,-0.2789,-0.3331,-0.3869,-0.4389,-0.4874,-0.4553,-0.3664,-0.3747,-0.3185,-0.2213,-0.183,-0.1657,-0.152,0.0,0.0,0.0,0.0,0.0,-0.1474,0.0,0.0,0.0,0.0,0.0,0.0,0.0,0.0,0.0,0.0,0.0,0.0,1.4591,1.5852,1.6863,1.7689,1.8006,1.7438,1.5637,1.477,1.3619,1.2034,1.1323,1.1067,1.1239,1.277,1.5184,1.8543,2.0081,2.1075,2.1454,2.0854,2.0627,2.0727,2.0325,1.9535,1.8519,1.7728,1.5722,1.3011,0.0,0.0,0.0,0.0,0.0,0.0,0.0,0.0,0.0,0.0,0.0,0.0,0.0,0.0,0.0,0.0,0.0,0.0,0.0,0.0,0.0,0.0,0.0,0.0,0.0,0.0,0.0,0.0,0.0,0.0,0.0,0.0,0.0,0.0,0.0,0.0,0.0,0.2284,0.2152,0.129,0.1123,0.0641,0.0,0.0,0.0,0.0,0.0,0.0,-0.1734,-0.2257,-0.2549,-0.24,-0.2597,-0.2731,-0.2721,-0.2978,-0.3446,-0.4203,-0.4441,-0.4994,-0.5698,-0.5954,-0.5532,-0.4685,-0.4772,-0.4335,-0.3369,-0.241,-0.1974,-0.1818,-0.1837,-0.1765,0.0,-0.1827,-0.1842,-0.1882,0.0,0.0,0.0,0.0,0.0,0.0,0.0,0.0,0.0,0.0,0.0,1.3712,1.6039,1.6483,1.7088,1.8332,1.7791,1.6934,0.0,0.0,1.3245,1.1955,1.0894,1.0401,1.0533,1.3356,1.5618,1.7277,1.8824,1.9774,2.0124,2.0303,2.0273,1.9999,1.9535,1.9854,2.0477,1.7671,1.6233,1.555,1.1793,0.0,0.0,0.0,0.0,0.0,0.0,0.0,0.0,0.0,0.0,0.0,0.0,0.0,0.0,0.0,0.0,0.0,0.0,0.0,0.0,0.0,0.0,0.0,0.0,0.0,0.0,0.0,0.0,0.0,0.0,0.0,0.0,0.0,0.0,0.0,0.0,0.0,0.0,0.1052,0.0973,0.0,0.0,0.0,0.0,-0.1285,-0.1549,-0.1843,-0.2093,-0.2961,-0.3587,-0.3854,-0.4746,-0.5125,-0.5077,-0.5256,-0.532,-0.5258,-0.6294,-0.689,-0.7027,-0.8006,-0.7914,-0.6939,-0.6939,-0.6337,-0.5339,-0.3378,-0.247,-0.2252,-0.2202,-0.2077,-0.1895,-0.2089,-0.2183,-0.2193,0.0,0.0,0.0,0.0,0.0,0.8671,0.8671,0.8609,0.8936,1.0014,1.1414,1.3241,1.5608,1.6653,1.7721,1.9019,1.8673,1.7905,1.6697,1.4913,1.3345,1.2081,1.0793,1.0963,1.2842,1.4879,1.6692,1.8272,1.8623,1.9025,1.9399,1.8561,1.8407,1.8703,1.8245,1.7991,1.7821,1.7087,1.5541,1.3442,1.184,0.9848,0.0,0.0,0.0,0.0,0.0,0.0,0.0,0.0,0.0,0.0,0.0,0.0,0.0,0.0,0.0,0.0,0.0,0.0,0.0,0.0,0.0,0.0,0.0,0.0,0.0,0.0,0.0,0.0,0.0,0.0,0.0,0.0,0.0,0.0,0.0,0.0,0.0,0.0183,-0.0,0.0,-0.1015,-0.1443,-0.1691,-0.179,-0.2493,-0.2748,-0.2422,-0.3904,-0.4243,-0.3219,-0.4739,-0.5212,-0.4633,-0.5331,-0.5874,-0.6443,-0.6883,-0.7439,-0.812,-0.8476,-0.8032,-0.7139,-0.7139,-0.658,-0.5648,-0.487,-0.4484,-0.4331,-0.4297,-0.4263,-0.4154,-0.3632,-0.3403,-0.3325,0.0,0.0,0.0,0.0,0.8367,0.8099,0.8099,0.822,0.8966,1.0723,1.1579,1.3106,1.5934,1.6166,1.6554,1.7625,1.7236,1.6583,1.5721,1.3903,1.2494,1.1624,1.0725,1.1306,1.3527,1.4971,1.6395,1.7711,1.7598,1.78,1.8184,1.7249,1.688,1.6927,1.6519,1.5917,1.5207,1.5031,1.3978,1.2184,1.1103,0.9386,0.7368,0.0,0.0,0.0,0.0,0.0,0.0,0.0,0.0,0.0,0.0,0.0,0.0,0.0,0.0,0.0,0.0,0.0,0.0,0.0,0.0,0.0,0.0,0.0,0.0,0.0,0.0,0.0,0.0,0.0,0.0,0.0,0.0,0.0,0.0,0.0,0.0508,-0.0726,-0.0766,-0.1,-0.1686,-0.217,-0.2379,-0.2194,-0.3478,-0.3905,-0.3152,-0.4889,-0.5493,-0.4423,-0.5832,-0.6425,-0.5929,-0.6563,-0.7198,-0.7746,-0.7746,-0.811,-0.8747,-0.8747,-0.838,-0.7746,-0.7746,-0.7351,-0.6764,-0.6853,-0.6799,-0.6583,-0.582,-0.5395,-0.5054,-0.4545,-0.4203,-0.3863,0.0,0.0,0.0,0.7891,0.7431,0.7068,0.7068,0.7763,0.9406,1.2433,1.2361,1.3377,1.6929,1.4953,1.36,1.4127,1.3397,1.2929,1.2929,1.1498,1.0533,1.0437,1.0687,1.127,1.2283,1.3549,1.4544,1.5225,1.572,1.6094,1.6383,1.6383,1.5854,1.4859,1.4353,1.3685,1.287,1.1574,1.1546,1.2118,0.9615,0.8309,0.7723,0.0,0.0,0.0,0.0,0.0,0.0,0.0,0.0,0.0,0.0,0.0,0.0,0.0,0.0,0.0,0.0,0.0,0.0,0.0,0.0,0.0,0.0,0.0,0.0,0.0,0.0,0.0,0.0,0.0,0.0,0.0,0.0,0.0,-0.1127,-0.0428,-0.033,-0.1677,-0.1251,-0.1137,-0.1901,-0.3087,-0.3412,-0.2442,-0.4314,-0.5173,-0.4338,-0.607,-0.7155,-0.7353,-0.8276,-0.8917,-0.9096,-0.9096,-0.9096,-0.9096,-0.9096,-0.9096,-0.9096,-0.9096,-0.9096,-0.9096,-0.9096,-0.8995,-0.8828,-0.9091,-0.9076,-0.874,-0.6605,-0.5275,-0.4476,-0.4921,-0.4476,-0.3765,0.0,0.0,0.7659,0.7183,0.6777,0.6428,0.6126,0.6411,0.7209,0.8749,0.9842,1.1137,1.2832,1.3086,1.317,1.3325,1.2225,1.161,1.1849,0.9801,0.8764,0.912,1.0131,1.103,1.1865,1.2714,1.3356,1.3836,1.3838,1.4024,1.4386,1.4062,1.3862,1.3878,1.3069,1.2232,1.1275,1.0343,0.9243,0.8214,0.8321,0.7333,0.5737,0.0,0.0,0.0,0.0,0.0,0.0,0.0,0.0,0.0,0.0,0.0,0.0,0.0,0.0,0.0,0.0,0.0,0.0,0.0,0.0,0.0,0.0,0.0,0.0,0.0,0.0,0.0,0.0,0.0,0.0,0.0,0.0,-0.1367,-0.1056,-0.0953,-0.1174,-0.1972,-0.2146,-0.2533,-0.343,-0.3271,-0.3495,-0.4594,-0.5452,-0.576,-0.5523,-0.743,-0.7901,-0.6584,-0.8177,-0.8761,-0.8056,-0.8718,-0.9096,-0.9096,-0.9096,-0.9096,-0.9096,-0.9283,-0.9376,-0.9376,-0.9562,-0.9621,-0.9561,-0.9509,-0.9418,-0.9357,-0.8601,-0.8197,-0.7841,-0.7217,-0.6154,-0.4917,0.0,0.6687,0.6497,0.6109,0.5691,0.532,0.5029,0.5281,0.5909,0.7029,0.7589,0.8289,0.9448,0.9554,0.9572,0.9572,0.8816,0.8364,0.8537,0.7356,0.7089,0.7997,0.9039,0.987,1.0573,1.1176,1.1675,1.2128,1.199,1.2172,1.2465,1.2128,1.1933,1.1797,1.1187,1.0609,1.0007,0.903,0.818,0.7419,0.6732,0.5911,0.5071,0.4186,0.3658,0.3279,0.212,0.2196,0.28,0.2326,0.0,0.0,0.0,0.0,0.0,0.0,0.0,0.0,0.0,0.0,0.0,0.0,0.0,0.0,0.0,0.0,0.0,0.0,0.0,0.0,0.0,0.0,0.0,0.0,-0.182,-0.1945,-0.1613,-0.1702,-0.2261,-0.3498,-0.3435,-0.359,-0.4136,-0.4448,-0.4759,-0.5154,-0.6445,-0.7015,-0.6707,-0.8192,-0.8656,-0.7577,-0.863,-0.8954,-0.8542,-0.9028,-0.9319,-0.9319,-0.9319,-0.9415,-0.9511,-0.9606,-0.9793,0.0,-1.0079,-1.0031,-0.9943,-1.0019,-0.992,0.0,0.0,0.0,0.0,0.0,-0.6599,-0.598,0.0,0.5223,0.4896,0.479,0.4361,0.3994,0.3819,0.4204,0.4959,0.6217,0.0,0.5198,0.6579,0.5466,0.4613,0.4671,0.4453,0.4293,0.0,0.0,0.5453,0.6768,0.7416,0.8054,0.865,0.9179,0.9605,0.9984,1.009,1.0289,1.065,1.0421,0.998,0.9321,0.91,0.8988,0.8904,0.7573,0.7435,0.786,0.5153,0.4398,0.4637,0.3138,0.2649,0.2555,0.0601,0.0405,0.0952,-0.0,0.0,0.0,0.0,0.0,0.0,0.0,0.0,0.0,0.0,0.0,0.0,0.0,0.0,0.0,0.0,0.0,0.0,0.0,0.0,0.0,0.0,0.0,0.0,0.0,-0.2219,-0.2459,-0.2765,-0.2777,-0.3408,-0.5245,-0.4774,-0.4472,-0.4556,-0.6088,-0.6409,-0.5153,-0.7292,-0.8486,-0.7886,0.0,0.0,0.0,0.0,-0.9466,-0.9624,-0.9628,-0.9628,-0.9628,-0.9628,-0.9727,-1.0019,-1.0019,-1.0216,-1.0413,-1.0511,-1.0409,-1.0241,-1.0423,-1.0391,-1.0168,-0.9638,-0.8861,-0.7952,-0.6992,-0.6815,0.0,0.0,0.4028,0.3824,0.3379,0.3214,0.3015,0.2613,0.2647,0.2813,0.3162,0.287,0.2954,0.3811,0.3459,0.3325,0.3721,0.2971,0.2237,0.0,0.0,0.3507,0.3993,0.5041,0.5734,0.609,0.7033,0.7231,0.6702,0.7597,0.8165,0.8376,0.7964,0.7969,0.8318,0.8021,0.797,0.8077,0.5154,0.4055,0.4281,0.5363,0.4042,0.1319,0.1003,0.0914,0.096,0.0432,-0.1154,-0.3151,-0.3354,-0.24,-0.108,-0.0913,0.0,0.0,0.0,0.0,0.0,0.0,0.0,0.0,0.0,0.0,0.0,0.0,0.0,0.0,0.0,0.0,0.0,0.0,0.0,0.0,-0.2173,-0.2884,-0.3812,-0.4888,-0.4337,-0.4018,-0.4415,-0.5015,-0.5695,-0.6517,-0.6343,-0.6687,-0.7902,-0.8049,-0.8398,-0.9013,-0.9348,0.0,-0.9571,-0.9575,-0.9592,-0.9628,-0.9628,-0.9628,-0.9628,0.0,0.0,-1.0019,-1.0413,-1.0703,-1.0708,-1.0998,-1.0974,-1.1025,-1.0866,-1.0674,-1.0473,-1.0393,-1.0171,-0.9777,-0.9748,-0.934,-0.8779,0.1783,0.2206,0.2494,0.228,0.2087,0.1844,0.1494,0.1183,0.0853,0.0505,0.029,0.0223,0.0251,0.036,0.0519,0.0781,0.016,0.0,0.0,0.0351,0.1348,0.2144,0.3215,0.3956,0.4408,0.4967,0.5136,0.4814,0.5644,0.6146,0.6234,0.6227,0.6388,0.671,0.6412,0.587,0.5243,0.4389,0.369,0.2984,0.1315,0.0075,-0.0924,-0.1662,-0.1905,-0.1877,-0.1949,-0.2485,-0.3281,-0.4047,-0.3737,-0.2986,-0.2879,-0.2295,-0.1685,0.0,0.0,0.0,0.0,0.0,0.0,0.0,0.0,0.0,0.0,0.0,0.0,0.0,0.0,-0.1715,0.0,0.0,-0.286,-0.3577,-0.384,-0.4338,-0.5427,-0.5591,-0.5804,-0.6331,-0.6389,-0.6605,-0.7051,-0.7272,-0.7661,-0.8206,-0.8532,-0.8902,-0.9486,-0.9575,-0.9628,-0.9628,-0.9628,-0.9628,-0.9628,-0.9628,-0.9628,-0.9826,-0.992,-1.0117,-1.0413,-1.0703,-1.09,-1.0998,-1.1096,-1.1194,-1.1189,-1.109,-1.0981,-1.0886,-1.0886,-1.0697,-1.0438,-1.0163,-0.9763,-0.9325,-0.0222,0.0331,0.0944,0.1167,0.0916,0.0618,0.0435,-0.0112,-0.075,-0.1509,-0.1806,-0.2154,-0.2592,-0.2388,-0.2155,0.0,0.0,0.0,0.0,-0.1718,-0.0692,0.0402,0.1384,0.2086,0.2563,0.2956,0.3069,0.2969,0.3828,0.43,0.4382,0.4616,0.4935,0.5251,0.5098,0.3919,0.2113,0.3458,0.3066,0.1178,-0.3222,-0.406,-0.2852,-0.4006,-0.4369,-0.4312,-0.4247,-0.3542,-0.2699,-0.3844,-0.427,-0.4264,-0.4095,-0.3738,-0.3259,-0.2592,-0.2539,0.0,0.0,0.0,0.0,0.0,0.0,0.0,0.0,0.0,-0.2477,-0.2054,-0.1976,-0.2283,-0.3223,-0.3027,-0.3304,-0.4729,-0.4834,-0.5031,-0.5745,-0.6624,-0.7496,-0.8476,-0.7856,-0.7418,-0.7446,-0.8317,-0.867,-0.8088,-0.8921,-0.9474,-0.962,-0.9628,-0.9628,-0.9628,-0.9628,-0.9727,-0.9727,-0.9727,-0.9821,-1.0117,-1.0117,-1.0408,-1.0801,-1.0806,-1.0998,-1.1194,-1.1194,-1.1194,-1.1194,-1.1194,-1.1194,-1.1194,-1.1194,-1.099,-1.0599,-1.0028,-0.9818,-0.9694,0.0,-0.1025,-0.0824,-0.0266,-0.0353,-0.0531,-0.063,-0.1135,-0.1717,-0.2213,-0.268,-0.2933,-0.2887,-0.3052,-0.3075,0.0,0.0,0.0,-0.3598,-0.2589,-0.2041,-0.2073,-0.0928,-0.0441,-0.0754,0.0924,0.1248,0.0157,0.188,0.2904,0.3303,0.2982,0.3614,0.5053,0.5045,0.3221,0.0314,0.0471,-0.1256,-0.4171,-0.4726,-0.4958,-0.4817,-0.4843,-0.4585,-0.4308,-0.4191,-0.4137,-0.4168,-0.4131,-0.4191,-0.4191,-0.4176,-0.4077,-0.3938,-0.3949,-0.3681,-0.3402,-0.3459,-0.3528,-0.3617,-0.3779,-0.3788,-0.3681,0.0,0.0,-0.3857,-0.3443,-0.3359,-0.3465,-0.3651,-0.4282,-0.4737,-0.4296,-0.5524,-0.6701,-0.6919,-0.7214,-0.7757,-0.8476,-0.8476,-0.8448,-0.8595,-0.8866,-0.9137,-0.9216,-0.9397,-0.9608,-0.9624,-0.9628,-0.9628,-0.9628,-0.9821,-0.992,-0.992,-1.0216,-1.0314,-1.0314,-1.0609,-1.0703,-1.0806,-1.1096,-1.1194,-1.1194,-1.1194,-1.1194,-1.1194,-1.1194,-1.1194,-1.1194,-1.1194,-1.1165,-1.1123,-1.1025,-1.0913,-1.0786,0.0,-0.1519,-0.1491,-0.1511,-0.1344,-0.128,-0.1405,-0.1966,-0.2456,-0.282,-0.321,-0.3463,-0.3518,-0.381,-0.4022,-0.4046,-0.4359,0.0,-0.5035,-0.3876,-0.3189,-0.319,-0.1864,-0.1106,-0.1208,-0.0,0.0078,-0.1251,0.0783,0.1724,0.1567,0.2193,0.2901,0.3612,0.4567,0.4252,0.2671,-0.1255,-0.3696,-0.4964,-0.5034,-0.4915,-0.4811,-0.4753,-0.4605,-0.4319,-0.4397,-0.4327,0.0,0.0,-0.4267,-0.4326,-0.4305,-0.4356,-0.4282,-0.4033,-0.421,-0.447,-0.4237,-0.4263,-0.4314,0.0,-0.4436,-0.4872,-0.3968,-0.4518,-0.5073,-0.4611,-0.4084,-0.4043,-0.5363,-0.5156,-0.5235,0.0,-0.7137,-0.7672,-0.8277,-0.8464,-0.8599,-0.8755,-0.8931,-0.8945,-0.8666,-0.9021,-0.9218,-0.9198,-0.9466,-0.9628,-0.9628,-0.9628,-0.9628,-0.9821,-0.992,-1.0117,-1.0216,-1.0314,-1.0511,-1.0605,-1.0703,-1.09,-1.0998,-1.1194,-1.1194,-1.1194,-1.1194,-1.1194,-1.1194,-1.1194,-1.1194,-1.1194,-1.1194,-1.1194,-1.1194,-1.1194,-1.1142,-1.1085,0.0,-0.1795,-0.1895,-0.2253,-0.2273,-0.221,-0.2216,-0.2683,-0.313,-0.3397,-0.3677,-0.3941,-0.4204,-0.4466,-0.4663,-0.4779,-0.5157,-0.5549,-0.5842,-0.4901,-0.4219,-0.4178,-0.2744,-0.1959,-0.2035,-0.0923,-0.1012,-0.2111,-0.0313,0.0391,-0.0078,0.0938,0.1328,0.1172,0.2429,0.2902,0.2586,-0.2272,-0.4545,-0.4913,-0.4977,-0.4825,-0.4536,-0.4637,-0.4554,-0.4322,-0.4445,-0.4362,0.0,0.0,-0.4395,-0.4464,-0.4438,-0.4532,-0.4613,-0.4316,-0.4773,-0.5266,-0.4977,-0.5088,-0.5104,-0.4569,-0.541,-0.5996,-0.5014,-0.5617,-0.619,-0.5495,-0.4868,-0.4896,-0.6374,-0.5885,-0.5888,-0.8004,-0.8183,-0.8396,-0.9161,-0.9345,-0.9291,-0.9055,-0.9256,-0.9349,-0.8828,-0.9203,-0.9431,-0.9349,-0.9505,-0.9669,-0.9821,-0.9723,-0.9821,-1.0117,-1.0216,-1.0314,-1.0507,-1.0605,-1.0703,-1.09,-1.09,-1.0998,-1.1194,-1.1194,-1.1194,-1.1194,-1.1194,-1.1194,-1.1194,-1.1194,-1.1194,-1.1194,-1.1194,-1.1194,-1.1194,-1.1194,-1.1194,-1.1194,0.0,0.0,-0.2294,-0.2375,-0.3128,-0.358,-0.3142,-0.3371,-0.3663,-0.3938,-0.4096,-0.435,-0.4812,-0.4897,-0.4931,-0.4974,-0.5251,-0.544,-0.56,-0.5194,-0.5069,-0.5332,-0.4023,-0.3487,-0.3991,-0.2345,-0.1915,-0.2738,-0.1723,-0.1253,-0.125,-0.1172,-0.1563,-0.2347,-0.2268,-0.2268,-0.2268,-0.2503,-0.3401,-0.4777,-0.4777,-0.4776,-0.4674,-0.4619,-0.4537,-0.4366,-0.425,0.0,-0.4356,-0.4088,-0.4304,-0.4677,-0.4513,-0.4674,0.0,-0.5277,-0.5439,-0.5612,-0.5797,-0.5986,-0.6271,-0.6772,-0.7078,-0.7108,-0.6668,-0.697,-0.7174,-0.612,-0.615,-0.6304,-0.5999,-0.6516,-0.7075,-0.7405,-0.8246,-0.8948,-0.9231,-0.9432,-0.9515,-0.934,-0.9689,-0.9781,0.0,-0.9442,-0.9627,-1.0001,-0.9836,-0.9917,-1.0301,-1.0117,-1.0117,-1.0413,-1.0609,-1.0806,-1.0801,-1.1096,-1.1198,-1.1194,-1.1194,-1.1194,-1.1194,-1.1194,-1.1194,-1.1194,-1.1194,-1.1194,-1.1194,-1.1194,-1.1194,-1.1194,-1.1194,-1.1194,-1.1194,-1.1194,-1.1194,-1.1194,0.0,0.0,0.0,-0.3344,-0.3698,-0.3946,-0.419,-0.4316,-0.4436,-0.4526,-0.4814,0.0,0.0,0.0,0.0,0.0,-0.5546,-0.5866,-0.5784,-0.5241,-0.5096,-0.5472,-0.4067,-0.3529,-0.3973,-0.2754,-0.2595,-0.3655,-0.3589,-0.3589,-0.3657,-0.3587,-0.3664,-0.3966,-0.3966,-0.3966,-0.3966,-0.3885,-0.4204,-0.4758,-0.4664,-0.4615,-0.4596,-0.4607,-0.4478,-0.4293,0.0,0.0,-0.4158,-0.4273,-0.4432,-0.4591,-0.475,-0.491,-0.51,-0.5445,-0.5756,-0.6058,-0.625,-0.6696,-0.7127,-0.6988,-0.7473,-0.7902,-0.7334,-0.7694,-0.7979,-0.7463,-0.6918,-0.6656,-0.7281,-0.6901,-0.6913,-0.8285,-0.8669,-0.9029,-0.9662,-0.9864,-0.9812,-0.951,-0.9784,0.0,0.0,0.0,0.0,-0.9916,-0.9957,-1.0114,-1.04,-1.0314,-1.0413,-1.0708,-1.0703,-1.0904,-1.1096,-1.1194,-1.1194,-1.1194,-1.1194,-1.1194,-1.1194,-1.1194,-1.1194,-1.1194,-1.1194,-1.1194,-1.1194,-1.1194,-1.1194,-1.1194,-1.1194,-1.1194,-1.1194,-1.1194,-1.1389,-1.1688,0.0,0.0,0.0,0.0,0.0,0.0,0.0,0.0,0.0,0.0,0.0,0.0,0.0,0.0,0.0,0.0,0.0,-0.6272,-0.6007,-0.5731,-0.5589,-0.5669,-0.4661,-0.419,-0.4409,-0.3623,-0.3639,-0.4453,-0.4675,-0.4818,-0.4886,-0.4864,-0.4748,-0.4607,-0.4651,-0.467,-0.4667,-0.4544,-0.4544,-0.4701,-0.4497,-0.4453,-0.4463,-0.447,-0.439,0.0,0.0,0.0,-0.4233,-0.4385,-0.4558,-0.4673,-0.4831,-0.5062,-0.535,-0.5637,-0.5969,-0.6388,-0.6646,-0.7238,-0.7655,-0.7499,-0.7988,-0.8393,-0.799,-0.8121,-0.8169,-0.7823,-0.7283,-0.696,-0.7476,-0.7078,-0.7142,-0.8681,-0.8813,-0.9041,-0.9889,-1.0038,-0.9932,-0.9875,-0.9989,-1.0041,0.0,0.0,0.0,-1.0102,-1.0207,-1.0404,-1.0694,-1.0609,-1.0703,-1.09,-1.09,-1.0998,-1.1194,-1.158,-1.177,-1.177,-1.1385,-1.1194,-1.1194,-1.1194,-1.1194,-1.1194,-1.1194,-1.1194,-1.1194,-1.1194,-1.1194,-1.1194,-1.1194,-1.1292,-1.1487,-1.1487,-1.178,-1.2273,0.0,0.0,0.0,0.0,0.0,0.0,0.0,0.0,0.0,0.0,0.0,0.0,0.0,0.0,0.0,0.0,0.0,0.0,-0.614,0.0,0.0,-0.6086,-0.5767,-0.5506,-0.5342,-0.4902,-0.4781,-0.4998,-0.4929,-0.4932,-0.5001,-0.5067,-0.4855,-0.4516,-0.4635,-0.4687,-0.4679,-0.456,-0.4515,-0.4469,-0.4344,-0.4347,-0.4406,-0.4277,0.0,0.0,0.0,0.0,-0.4528,-0.4418,-0.4633,-0.4943,-0.4943,-0.5289,-0.5686,-0.5876,-0.6207,-0.6667,-0.7116,-0.7596,-0.8027,-0.8368,-0.8562,-0.8699,-0.8689,-0.8384,-0.7961,-0.7313,-0.7337,-0.7279,0.0,0.0,-0.7744,-0.8552,-0.8703,-0.9011,-0.9852,-1.0057,-1.005,0.0,0.0,0.0,0.0,0.0,0.0,-1.0589,0.0,-1.0697,-1.1184,-1.0998,-1.0998,-1.1292,-1.1194,-1.1292,-1.1389,-1.2344,-1.2727,-1.2727,-1.177,-1.1292,-1.1194,-1.1292,-1.1292,-1.1292,-1.1292,-1.1389,-1.1389,-1.1292,-1.1292,-1.1292,-1.1292,-1.1585,-1.2078,-1.2078,-1.237,-1.2764,0.0,0.0,0.0,0.0,0.0,0.0,0.0,0.0,0.0,0.0,0.0,0.0,0.0,0.0,0.0,0.0,0.0,0.0,0.0,0.0,0.0,0.0,0.0,-0.5715,-0.5898,-0.4884,-0.447,-0.4764,-0.4332,-0.4273,-0.4584,-0.4556,-0.4511,-0.4448,-0.4483,-0.4498,-0.4495,-0.4463,-0.4486,-0.4525,0.0,-0.4369,-0.453,0.0,0.0,0.0,0.0,0.0,0.0,0.0,0.0,0.0,0.0,-0.593,-0.6263,-0.6463,-0.6907,-0.7395,-0.767,-0.8087,-0.8482,-0.8609,-0.8666,-0.8661,-0.851,-0.8316,-0.7986,-0.749,-0.7326,-0.7189,0.0,0.0,0.0,-0.8295,-0.8354,0.0,-1.0074,-1.0192,0.0,-1.0475,0.0,-1.0518,-1.057,-1.0721,0.0,0.0,-1.0768,-1.089,-1.1184,-1.11,-1.1482,-1.2252,-1.158,-1.1965,-1.3499,-1.3788,-1.3499,-1.2732,-1.321,-1.2732,-1.1292,-1.2829,-1.3113,-1.2344,-1.3113,-1.3499,-1.3499,-1.3125,-1.2931,-1.284,-1.2559,-1.2467,-1.2565,-1.2565,-1.2861,-1.3346,0.0,0.0,0.0,0.0,0.0,0.0,0.0,0.0,0.0,0.0,0.0,0.0,0.0,0.0,0.0,0.0,0.0,0.0,0.0,0.0,0.0,0.0,-0.6223,-0.6134,-0.6163,-0.569,-0.535,-0.5116,0.0,0.0,-0.4444,-0.4569,-0.4511,-0.4339,-0.4394,-0.4418,-0.4415,-0.4357,0.0,0.0,0.0,0.0,0.0,0.0,0.0,0.0,0.0,0.0,0.0,0.0,0.0,-0.6045,-0.6186,-0.6472,-0.6728,-0.6979,0.0,-0.7818,-0.8027,-0.8384,-0.8703,-0.8703,-0.8633,-0.8514,-0.8307,-0.8023,-0.7692,-0.7277,-0.7026,0.0,-0.6557,-0.6533,0.0,0.0,0.0,0.0,-0.9794,-1.0159,-1.0348,0.0,-1.066,0.0,-1.0834,-1.0957,-1.1028,0.0,-1.1028,-1.1075,-1.1189,-1.158,-1.2155,-1.2635,-1.2635,-1.3307,-1.4937,-1.4555,-1.4268,-1.407,-1.4268,-1.3692,-1.264,-1.3788,-1.398,-1.3403,0.0,-1.4364,-1.4459,-1.4082,-1.389,-1.3698,-1.342,-1.3232,-1.3152,-1.3152,-1.3437,-1.3823,0.0,0.0,0.0,0.0,0.0,0.0,0.0,0.0,0.0,0.0,-0.6764,0.0,0.0,0.0,0.0,0.0,0.0,0.0,0.0,0.0,0.0,0.0,-0.6496,-0.6631,-0.6433,-0.6784,-0.6529,-0.5585,0.0,0.0,0.0,0.0,0.0,0.0,0.0,0.0,0.0,0.0,0.0,0.0,0.0,0.0,0.0,0.0,0.0,0.0,0.0,0.0,0.0,0.0,-0.613,-0.6315,-0.663,-0.6974,-0.7194,-0.7591,-0.7845,-0.8036,-0.8387,-0.8571,-0.8703,-0.8703,-0.8552,-0.834,-0.8094,-0.7716,-0.73,-0.6833,0.0,-0.6384,-0.6211,-0.6342,-0.6804,-0.7645,0.0,-0.867,-0.9563,-1.0027,-1.0357,-1.0589,-1.0806,-1.1005,-1.1179,-1.1194,-1.1194,-1.1194,-1.1194,-1.1194,-1.1194,-1.2155,-1.2727,-1.292,-1.4076,-1.5032,-1.5798,-1.5032,-1.5127,-1.5798,-1.5127,-1.4651,-1.4364,-1.4651,-1.4651,-1.4555,0.0,0.0,-1.5032,-1.5032,-1.4644,-1.4166,-1.4166,-1.3896,-1.3636,-1.3636,-1.3919,-1.4298,0.0,0.0,0.0,0.0,0.0,0.0,0.0,0.0,0.0,0.0,-0.6706,-0.6986,0.0,0.0,0.0,0.0,0.0,0.0,0.0,0.0,0.0,0.0,-0.6756,-0.6882,-0.7056,-0.6655,0.0,0.0,0.0,0.0,0.0,0.0,0.0,0.0,0.0,0.0,0.0,0.0,0.0,0.0,0.0,0.0,0.0,0.0,0.0,0.0,0.0,0.0,0.0,-0.624,-0.6563,-0.6697,-0.7021,-0.7467,-0.7948,-0.8159,-0.8316,-0.8392,-0.8595,-0.8675,-0.8703,-0.8703,-0.8552,-0.8302,-0.7919,-0.7508,0.0,0.0,-0.637,-0.622,-0.6182,-0.6342,-0.6804,-0.7645,-0.7981,-0.8548,-0.9734,-1.0116,-1.0414,0.0,-1.1019,-1.1156,-1.1194,0.0,0.0,0.0,0.0,0.0,-1.1194,-1.2155,-1.3113,-1.398,-1.5798,-1.6466,-1.5798,-1.6466,-1.6567,-1.6183,-1.6763,-1.6183,-1.4651,-1.6379,-1.6669,-1.59,0.0,0.0,-1.7419,-1.7037,-1.6372,-1.5805,-1.533,-1.4771,-1.4202,-1.4202,-1.4202,-1.4298,0.0,0.0,0.0,0.0,0.0,0.0,0.0,-0.5566,-0.598,-0.6693,-0.7056,-0.7178,-0.7145,-0.7328,-0.737,0.0,0.0,0.0,0.0,0.0,0.0,0.0,0.0,-0.6665,-0.6787,0.0,0.0,0.0,0.0,0.0,0.0,0.0,0.0,0.0,0.0,0.0,0.0,0.0,0.0,0.0,0.0,0.0,0.0,0.0,0.0,0.0,0.0,0.0,0.0,0.0,-0.667,-0.6759,-0.7297,-0.7766,-0.8122,-0.834,-0.869,-0.898,-0.8861,-0.9096,-0.9266,-0.8918,-0.8548,-0.8122,-0.7707,0.0,0.0,0.0,-0.6128,-0.6062,-0.6062,-0.6317,0.0,-0.7215,-0.756,-0.8127,-0.9157,-0.9578,0.0,-1.065,-1.091,-1.108,0.0,0.0,0.0,0.0,0.0,0.0,-1.1965,-1.3499,-1.4746,-1.5798,-1.6756,-1.7138,-1.6763,-1.7239,-1.7426,-1.7232,-1.7714,-1.7419,-1.6459,-1.7419,-1.7613,-1.7232,0.0,0.0,-1.8288,-1.8001,-1.752,-1.6936,-1.6292,-1.5534,-1.4867,-1.449,-1.4298,-1.4298,0.0,0.0,0.0,0.0,0.0,0.0,0.0,-0.6026,-0.6489,-0.7159,-0.7487,-0.75,-0.7224,-0.7163,-0.6973,0.0,0.0,0.0,0.0,0.0,0.0,0.0,0.0,0.0,0.0,0.0,0.0,0.0,0.0,0.0,0.0,0.0,0.0,0.0,0.0,0.0,0.0,0.0,0.0,0.0,0.0,0.0,0.0,0.0,0.0,0.0,0.0,0.0,0.0,0.0,-0.6808,-0.6868,-0.7713,-0.7981,-0.8117,-0.8361,-0.8974,-0.949,-0.9029,-0.9412,-0.9737,-0.9067,-0.8481,-0.7919,-0.7612,-0.6946,0.0,-0.5987,-0.5906,-0.5906,-0.5906,-0.6213,-0.6492,0.0,-0.7168,-0.7697,-0.8524,-0.9034,-0.962,0.0,-1.0923,0.0,0.0,0.0,0.0,0.0,0.0,0.0,0.0,-1.4835,-1.6271,-1.7419,-1.7426,-1.7613,-1.7815,-1.7815,-1.7908,-1.8187,-1.8187,-1.8187,-1.8187,-1.8187,-1.8187,-1.8187,0.0,0.0,0.0,-1.8574,-1.8179,-1.7598,-1.7044,-1.6386,-1.5629,-1.4962,-1.4771,-1.4771,0.0,0.0,0.0,0.0,0.0,0.0,0.0,-0.6224,-0.6742,-0.7928,-0.7869,-0.7706,-0.7815,-0.7654,-0.7416,0.0,0.0,0.0,0.0,0.0,0.0,0.0,0.0,0.0,0.0,0.0,0.0,0.0,0.0,0.0,0.0,0.0,0.0,0.0,0.0,0.0,0.0,0.0,0.0,0.0,0.0,0.0,0.0,0.0,0.0,0.0,0.0,0.0,0.0,0.0,0.0,-0.7235,-0.8194,-0.8217,-0.7947,-0.8429,0.0,0.0,-0.867,-0.918,-0.9695,-0.8956,-0.8264,-0.7749,-0.7527,0.0,-0.619,-0.5954,-0.5906,-0.5906,-0.5906,-0.61,-0.6332,-0.673,0.0,-0.748,-0.8311,-0.8944,-0.9736,-1.0845,0.0,0.0,0.0,0.0,0.0,0.0,0.0,0.0,0.0,-1.5305,-1.6264,-1.7994,-1.7994,-1.8087,-1.8087,-1.8087,-1.8187,-1.8481,-1.8481,-1.8481,-1.8481,-1.8481,-1.8481,-1.8481,0.0,0.0,0.0,-1.8735,-1.8357,-1.7684,-1.7598,-1.7138,-1.6487,-1.6393,-1.6393,-1.6393,0.0,0.0,0.0,0.0,0.0,0.0,-0.611,-0.6362,-0.6852,-0.7993,-0.82,-0.8281,-0.833,-0.8153,-0.7774,-0.7117,0.0,0.0,0.0,0.0,0.0,0.0,0.0,0.0,0.0,0.0,0.0,0.0,0.0,0.0,0.0,0.0,0.0,0.0,0.0,0.0,0.0,0.0,0.0,0.0,0.0,0.0,0.0,0.0,0.0,0.0,0.0,0.0,0.0,0.0,0.0,0.0,-0.8031,-0.8088,0.0,0.0,-0.9722,-1.039,-1.0008,-1.0582,-1.1037,-0.976,-0.8949,-0.8286,-0.7486,0.0,-0.6171,-0.5954,-0.5906,-0.5906,-0.5906,-0.6086,-0.6229,-0.6398,-0.6544,-0.6847,-0.7555,-0.7971,-0.8849,-1.0444,0.0,0.0,0.0,0.0,0.0,0.0,0.0,0.0,0.0,-1.6553,-1.6936,-1.8087,-1.8087,-1.8179,-1.8381,-1.8381,-1.8473,-1.8651,-1.8651,-1.8651,-1.8651,-1.8651,-1.8651,-1.8651,0.0,0.0,0.0,-1.8827,-1.8635,-1.8357,-1.7878,-1.7505,-1.7232,-1.677,-1.6588,-1.6588,0.0,0.0,0.0,0.0,0.0,-0.527,-0.6227,-0.6441,-0.691,-0.7979,-0.8322,-0.8483,-0.8574,-0.8343,-0.7934,-0.741,-0.6953,0.0,0.0,0.0,0.0,0.0,0.0,0.0,0.0,0.0,-0.6244,-0.5576,0.0,0.0,0.0,0.0,0.0,0.0,0.0,0.0,0.0,0.0,0.0,0.0,0.0,0.0,0.0,0.0,0.0,0.0,0.0,0.0,0.0,0.0,0.0,0.0,0.0,0.0,-0.8199,0.0,-0.9957,-1.0771,-1.0472,-1.1175,-1.1604,-1.007,-0.9238,-0.8489,-0.7409,-0.6582,-0.602,-0.593,-0.5859,-0.584,-0.5897,-0.6086,-0.6178,-0.6178,-0.6389,-0.6796,-0.7387,-0.7703,-0.8488,0.0,0.0,0.0,0.0,0.0,0.0,0.0,0.0,0.0,0.0,-1.7412,-1.7512,-1.8272,-1.8272,-1.8373,-1.8566,-1.8566,-1.8651,-1.8827,-1.8827,-1.8827,-1.8827,-1.8827,-1.8827,0.0,0.0,0.0,0.0,-1.8827,-1.8827,-1.8735,-1.8257,-1.8064,-1.7978,-1.7426,-1.7239,-1.7239,0.0,0.0,0.0,0.0,0.0,0.0,-0.6356,-0.656,-0.6955,-0.7949,-0.8112,-0.8207,-0.8482,-0.806,-0.7921,-0.815,-0.7559,0.0,0.0,0.0,0.0,0.0,0.0,0.0,0.0,0.0,-0.646,-0.5091,-0.5839,-0.5764,0.0,0.0,0.0,0.0,0.0,0.0,0.0,0.0,0.0,0.0,0.0,0.0,0.0,0.0,0.0,0.0,0.0,0.0,0.0,0.0,0.0,0.0,0.0,0.0,-0.8681,-0.8631,-0.9517,-1.0358,-0.9518,-1.0309,-1.0942,-0.948,-0.8673,-0.8032,-0.7346,-0.636,-0.567,-0.5868,-0.575,-0.5675,-0.5873,-0.6086,-0.6178,-0.6178,-0.689,-0.7591,-0.8142,-0.8414,0.0,0.0,0.0,0.0,0.0,0.0,0.0,0.0,0.0,0.0,0.0,0.0,-1.8064,-1.8735,-1.8827,-1.8827,-1.8827,-1.8827,-1.8827,-1.8827,-1.8827,-1.8827,-1.8827,-1.8827,0.0,0.0,0.0,0.0,0.0,-1.8827,-1.8827,-1.8827,-1.8827,-1.8827,-1.8827,-1.8735,-1.8735,-1.8735,0.0,0.0,0.0,0.0,0.0,0.0,0.0,-0.5865,-0.6277,-0.7107,-0.7453,-0.7825,-0.8425,-0.8249,-0.8106,-0.8202,-0.7602,0.0,0.0,0.0,0.0,0.0,0.0,0.0,0.0,0.0,-0.6266,-0.5492,-0.554,-0.5458,-0.5179,-0.49,0.0,0.0,0.0,0.0,0.0,0.0,0.0,0.0,0.0,0.0,0.0,0.0,0.0,0.0,0.0,0.0,0.0,0.0,0.0,0.0,0.0,0.0,0.0,-0.8311,-0.9245,0.0,-1.049,-1.1024,-1.1226,-1.006,-0.9242,-0.845,-0.7517,-0.6524,-0.5831,-0.5897,-0.5859,-0.5835,-0.5897,-0.6086,-0.6385,-0.7027,-0.6936,-0.7255,0.0,0.0,0.0,0.0,0.0,0.0,0.0,0.0,0.0,0.0,0.0,0.0,0.0,0.0,-1.8542,-1.8827,-1.8827,-1.8827,-1.8827,-1.8827,-1.8827,-1.8827,-1.8827,-1.8827,-1.8827,-1.8827,0.0,0.0,0.0,0.0,0.0,-1.8827,-1.8827,-1.8827,-1.8827,-1.8827,-1.8827,-1.8827,-1.8827,-1.8827,0.0,0.0,0.0,0.0,0.0,0.0,0.0,-0.5598,-0.5922,-0.6449,-0.6838,-0.7346,-0.7932,-0.7903,-0.7931,-0.818,-0.7688,0.0,0.0,0.0,0.0,0.0,0.0,0.0,-0.6204,-0.631,-0.6091,-0.5501,-0.5475,-0.545,-0.5462,-0.5238,-0.5004,-0.4759,0.0,0.0,0.0,0.0,0.0,0.0,0.0,0.0,0.0,0.0,0.0,0.0,0.0,0.0,0.0,0.0,0.0,0.0,0.0,0.0,0.0,0.0,-0.8765,-0.9548,-1.0316,-1.085,-1.1023,-1.0113,-0.9304,-0.8447,-0.7516,-0.6516,-0.5844,-0.6041,-0.5972,-0.5967,-0.6135,-0.6435,-0.6817,-0.7323,-0.7406,-0.7886,0.0,0.0,0.0,0.0,0.0,0.0,0.0,0.0,0.0,0.0,0.0,0.0,0.0,0.0,-1.8827,-1.8827,-1.8827,-1.8827,-1.8827,-1.8827,-1.8827,-1.8827,-1.8827,-1.8827,-1.8827,0.0,0.0,0.0,0.0,0.0,0.0,-1.8827,-1.8827,-1.8827,-1.8827,-1.8827,-1.8827,-1.8827,-1.8827,-1.8827,0.0,0.0,0.0,0.0,0.0,0.0,0.0,-0.5712,-0.5828,-0.5956,-0.6307,-0.6737,-0.7117,-0.7175,-0.743,-0.8077,0.0,0.0,0.0,0.0,0.0,0.0,0.0,0.0,-0.6033,-0.622,-0.5966,-0.5215,-0.5575,-0.5779,-0.5795,-0.5795,-0.5479,-0.5009,-0.4857,-0.4656,0.0,0.0,0.0,0.0,0.0,0.0,0.0,0.0,0.0,0.0,0.0,0.0,0.0,0.0,0.0,0.0,0.0,0.0,0.0,0.0,0.0,0.0,0.0,-0.9972,-1.0342,-0.9717,-0.8939,-0.8123,-0.7348,-0.6381,0.0,-0.6245,-0.618,-0.6186,-0.6593,-0.7087,-0.739,-0.7306,-0.8146,-0.9248,0.0,0.0,0.0,0.0,0.0,0.0,0.0,0.0,0.0,0.0,0.0,0.0,0.0,0.0,0.0,-1.8827,-1.878,-1.878,-1.8827,-1.8827,-1.8827,-1.8827,-1.8827,-1.8827,-1.8827,0.0,0.0,0.0,0.0,0.0,0.0,-1.8827,-1.8827,-1.8827,-1.8827,-1.8827,-1.8827,-1.8827,-1.8827,-1.8827,0.0,0.0,0.0,0.0,0.0,0.0,0.0,0.0,0.0,0.0,-0.5982,-0.6364,-0.6782,-0.7037,-0.7248,0.0,0.0,0.0,0.0,0.0,0.0,0.0,0.0,0.0,-0.6033,-0.6441,-0.6267,-0.5354,-0.5759,-0.5959,-0.595,-0.5732,-0.5422,-0.5009,-0.496,-0.4798,0.0,0.0,0.0,0.0,0.0,0.0,0.0,0.0,0.0,0.0,0.0,-0.5953,0.0,0.0,0.0,0.0,0.0,0.0,0.0,0.0,-0.8004,-0.8253,-0.8473,0.0,-0.9089,-0.8933,-0.8171,-0.7455,0.0,-0.6735,-0.6058,-0.6516,-0.6719,-0.696,-0.7277,-0.7598,-0.8092,-0.8965,-0.9042,-0.955,0.0,0.0,0.0,0.0,0.0,0.0,0.0,0.0,0.0,0.0,0.0,0.0,0.0,0.0,0.0,-1.8812,-1.8564,-1.8629,-1.8827,-1.8827,-1.8827,-1.8827,-1.8827,-1.8827,-1.8827,0.0,0.0,0.0,0.0,0.0,-1.8827,-1.8827,-1.8827,-1.8827,-1.8827,-1.8827,-1.8827,-1.8827,-1.8827,-1.8827,0.0,0.0,0.0,0.0,0.0,0.0,0.0,0.0,0.0,0.0,0.0,-0.5884,-0.6236,-0.6592,0.0,0.0,0.0,0.0,0.0,0.0,0.0,0.0,0.0,-0.6979,-0.6465,-0.6696,-0.6493,-0.5834,-0.6169,-0.6284,-0.6059,-0.5845,-0.5575,-0.5288,-0.5056,-0.4861,0.0,0.0,0.0,0.0,0.0,0.0,0.0,0.0,0.0,0.0,-0.5529,-0.5947,0.0,-0.7386,-0.7839,-0.7997,0.0,0.0,0.0,0.0,-0.7843,-0.7975,-0.7975,-0.8436,-0.8912,-0.8912,-0.8311,-0.7675,-0.7834,-0.7074,-0.6401,-0.6767,-0.7089,-0.7374,-0.7645,-0.8331,-0.8971,0.0,-0.9962,0.0,0.0,0.0,0.0,0.0,0.0,0.0,0.0,0.0,0.0,0.0,0.0,0.0,0.0,0.0,0.0,0.0,-1.8846,-1.8723,-1.8819,-1.8851,-1.8851,-1.8827,-1.8827,-1.8827,-1.8827,0.0,0.0,0.0,0.0,0.0,-1.8827,-1.8827,-1.8827,-1.8827,-1.8827,-1.8827,-1.8827,-1.8827,-1.8827,-1.8827,0.0,0.0,0.0,0.0,0.0,0.0,0.0,0.0,0.0,0.0,0.0,0.0,0.0,0.0,0.0,0.0,0.0,0.0,0.0,0.0,0.0,0.0,-0.7328,-0.709,-0.7088,-0.6925,-0.669,-0.6363,-0.6641,-0.6549,-0.6178,-0.5931,-0.5757,-0.5598,-0.5127,-0.4902,0.0,0.0,0.0,0.0,0.0,0.0,0.0,0.0,0.0,0.0,0.0,0.0,0.0,-0.7535,-0.7989,-0.818,-0.8451,0.0,0.0,0.0,0.0,0.0,-0.7777,-0.8429,-0.9136,-0.9085,-0.8651,-0.8203,-0.8112,-0.7484,-0.6974,-0.7214,-0.7534,-0.7827,0.0,-0.9134,0.0,0.0,0.0,0.0,0.0,0.0,0.0,0.0,0.0,0.0,0.0,0.0,0.0,0.0,0.0,0.0,0.0,0.0,0.0,0.0,-1.9042,-1.9003,-1.8843,-1.906,-1.9085,-1.8932,-1.8896,-1.892,-1.892,-1.8827,0.0,0.0,0.0,0.0,-1.8827,-1.8827,-1.8827,-1.8827,-1.8827,-1.8827,-1.8827,-1.8827,-1.8827,-1.8827,0.0,0.0,0.0,0.0,0.0,0.0,0.0,0.0,0.0,0.0,0.0,0.0,0.0,0.0,0.0,0.0,0.0,0.0,0.0,0.0,0.0,-0.7712,-0.7628,-0.7532,-0.7439,-0.7121,-0.6867,-0.6716,-0.6618,-0.642,-0.6182,-0.6126,-0.5756,-0.525,-0.5121,-0.5047,-0.4985,0.0,0.0,0.0,0.0,0.0,0.0,0.0,0.0,0.0,0.0,0.0,0.0,-0.7131,-0.752,-0.7799,-0.7851,0.0,0.0,0.0,0.0,0.0,-0.8048,-0.8527,-0.8833,-0.8459,-0.8222,-0.8153,-0.8504,-0.8165,-0.793,-0.8361,-0.8699,0.0,0.0,-0.9948,-1.0504,0.0,0.0,0.0,0.0,0.0,0.0,0.0,0.0,0.0,0.0,0.0,0.0,0.0,0.0,0.0,0.0,0.0,0.0,0.0,0.0,-1.8828,-1.9056,-1.9423,-1.9592,-1.9563,-1.9496,-1.9463,-1.9463,-1.9012,-1.8827,0.0,0.0,-1.8827,-1.8827,-1.8827,-1.8827,-1.8827,-1.8827,-1.8827,-1.8827,-1.8827,-1.8827,-1.8827,0.0,0.0,0.0,0.0,0.0,0.0,0.0,0.0,0.0,0.0,0.0,0.0,0.0,0.0,0.0,0.0,0.0,0.0,0.0,0.0,-0.7488,-0.7704,-0.7887,-0.7954,-0.7877,-0.7336,-0.7071,-0.7121,-0.6907,-0.6593,-0.6178,-0.6046,-0.5772,-0.53,-0.524,-0.5133,-0.499,-0.499,0.0,0.0,0.0,0.0,0.0,0.0,0.0,0.0,0.0,0.0,0.0,0.0,-0.7441,-0.7712,-0.7712,0.0,0.0,0.0,0.0,0.0,-0.7895,-0.8349,-0.8741,-0.8639,-0.8746,-0.8977,-0.9365,-0.9163,-0.8933,-0.9134,0.0,0.0,0.0,0.0,-1.1603,-1.2975,0.0,0.0,0.0,0.0,0.0,0.0,0.0,0.0,0.0,0.0,0.0,0.0,0.0,0.0,0.0,0.0,0.0,0.0,0.0,-1.9093,-1.9197,-1.9605,-1.9659,-1.934,-1.9538,-1.9524,-1.9331,-1.9562,-1.9356,-1.892,0.0,-1.9104,-1.8827,-1.8827,-1.8827,-1.8827,-1.8827,-1.8827,-1.8827,-1.9096,-1.9371,-1.9646,0.0,0.0,0.0,0.0,0.0,0.0,0.0,0.0,0.0,0.0,0.0,0.0,0.0,0.0,0.0,0.0,0.0,0.0,0.0,-0.6797,-0.7219,-0.7587,-0.799,-0.8275,-0.8421,-0.7754,-0.7505,-0.7719,-0.7362,-0.6843,-0.6243,-0.5981,-0.5798,-0.5541,-0.5471,-0.5395,-0.5323,-0.5323,-0.5534,0.0,0.0,0.0,0.0,0.0,0.0,0.0,0.0,0.0,0.0,0.0,0.0,0.0,0.0,0.0,0.0,-0.7785,-0.7712,-0.7734,-0.7807,-0.8253,-0.8801,-0.9016,-0.9376,-0.9761,-1.0148,-1.0087,-0.998,-1.0056,0.0,0.0,0.0,-1.1394,0.0,0.0,0.0,0.0,0.0,0.0,0.0,0.0,0.0,0.0,0.0,0.0,0.0,0.0,0.0,0.0,0.0,0.0,0.0,0.0,0.0,0.0,-1.9301,-1.9622,-1.9569,-1.9288,-1.9592,-1.954,-1.9264,-1.9761,-1.9686,-1.8991,-1.9264,-1.9167,-1.8983,-1.8891,-1.894,-1.9196,-1.9196,-1.9196,-1.9196,-1.9646,-2.0102,-2.0555,0.0,0.0,0.0,0.0,0.0,0.0,0.0,0.0,0.0,0.0,0.0,0.0,0.0,0.0,0.0,0.0,0.0,0.0,0.0,-0.6585,-0.6884,-0.7212,-0.7865,-0.8487,-0.9087,-0.8552,-0.8393,-0.8692,-0.7831,-0.7012,-0.6283,-0.6047,-0.5945,-0.6024,-0.5986,-0.6058,-0.6209,-0.6209,-0.6301,-0.6416,0.0,0.0,0.0,0.0,0.0,0.0,0.0,0.0,0.0,0.0,0.0,0.0,0.0,0.0,-0.7741,-0.7719,-0.7712,-0.7777,-0.8085,-0.8512,-0.8994,-0.944,-0.9675,-0.9948,-1.0432,-1.0785,-1.1084,-1.1406,0.0,0.0,0.0,-1.2397,0.0,0.0,0.0,0.0,0.0,0.0,0.0,0.0,0.0,0.0,0.0,0.0,0.0,0.0,0.0,0.0,0.0,0.0,0.0,0.0,0.0,0.0,-1.9301,-1.9329,-1.9478,-1.9807,-1.9796,-1.9803,-1.9768,-1.9385,-1.9135,-1.911,-1.8696,-1.8912,-1.9601,-1.9148,-1.9437,-2.0201,-2.0201,-2.0201,-2.0201,-2.0201,-2.0555,-2.0907,0.0,0.0,0.0,0.0,0.0,0.0,0.0,0.0,0.0,0.0,0.0,0.0,0.0,0.0,0.0,0.0,0.0,0.0,0.0,-0.6043,-0.6592,-0.6877,-0.751,-0.8107,-0.856,-0.84,-0.8477,-0.8778,-0.8075,-0.7373,-0.6774,-0.6678,-0.6651,-0.669,-0.6327,-0.6217,-0.6289,-0.6386,-0.6456,-0.6497,-0.6421,0.0,0.0,0.0,0.0,0.0,0.0,0.0,0.0,0.0,-0.649,-0.6877,-0.6834,-0.7229,-0.7675,-0.743,-0.7372,-0.7485,-0.7891,-0.8304,-0.8731,-0.9299,-0.9753,-1.0354,-1.1279,-1.1553,-1.1811,-1.2382,-1.25,0.0,0.0,0.0,0.0,0.0,0.0,0.0,0.0,0.0,0.0,0.0,0.0,0.0,0.0,0.0,0.0,0.0,0.0,0.0,0.0,0.0,0.0,0.0,0.0,0.0,0.0,-1.9301,-1.9384,-1.954,-1.9716,-1.9696,-1.9462,-1.9782,-1.9702,-1.9146,-1.9229,-1.9325,-1.9289,-1.9115,-1.9287,-1.9607,-1.9855,-2.0266,-2.0736,-2.0736,-2.1006,-2.1454,0.0,0.0,0.0,0.0,0.0,0.0,0.0,0.0,0.0,0.0,0.0,0.0,0.0,0.0,0.0,0.0,0.0,0.0,-0.5122,-0.5648,-0.6146,-0.657,-0.7081,-0.7609,-0.8041,-0.8189,-0.8455,-0.8765,-0.8423,-0.7882,-0.7272,-0.7286,-0.7321,-0.7361,-0.6886,-0.6767,-0.697,-0.6842,-0.6807,-0.688,-0.6715,-0.6536,0.0,0.0,0.0,0.0,0.0,0.0,0.0,0.0,-0.6253,-0.662,0.0,-0.71,-0.7555,-0.7373,-0.7455,-0.768,-0.7874,-0.8354,-0.8875,-0.9338,-0.9964,-1.0754,-1.1897,-1.2194,-1.2393,-1.31,-1.3251,-1.3251,-1.3251,0.0,0.0,0.0,0.0,0.0,0.0,0.0,0.0,0.0,0.0,0.0,0.0,0.0,0.0,0.0,0.0,0.0,0.0,0.0,0.0,0.0,0.0,0.0,0.0,-1.9301,-1.9301,-1.9301,-1.9595,-1.9577,-1.932,-1.9879,-1.9816,-1.9245,-1.9365,-1.9384,-1.9321,-1.9236,-1.9305,-1.9606,-1.9887,-2.0395,-2.0989,-2.0989,-2.1346,-2.1741,0.0,0.0,0.0,0.0,0.0,0.0,0.0,0.0,0.0,0.0,0.0,0.0,0.0,0.0,0.0,0.0,0.0,0.0,-0.5758,-0.5473,-0.5613,-0.6267,-0.6563,-0.7,-0.769,-0.8026,-0.8355,-0.8685,-0.8896,-0.8507,-0.7615,-0.7722,-0.7882,-0.799,-0.7641,-0.7825,-0.8363,-0.7701,-0.7532,-0.764,-0.6842,-0.654,0.0,0.0,0.0,0.0,0.0,0.0,0.0,0.0,-0.6409,-0.6529,-0.7198,0.0,-0.7423,-0.7462,-0.8013,-0.8507,-0.8112,-0.8769,-0.9645,-0.98,-1.0332,-1.1114,-1.2321,-1.2629,-1.2829,-1.3449,-1.3592,-1.3584,-1.3584,0.0,0.0,0.0,0.0,0.0,0.0,0.0,0.0,0.0,0.0,0.0,0.0,0.0,0.0,0.0,0.0,0.0,0.0,0.0,0.0,0.0,0.0,0.0,0.0,-1.9301,-1.9301,-1.9301,-1.9301,-1.9301,-1.9301,-1.9301,-1.9301,-1.9301,-1.8851,-1.9156,-1.9843,-1.9424,-1.974,-2.0512,-2.0512,-2.075,-2.1099,-2.1099,-2.1365,-2.1722,0.0,0.0,0.0,0.0,0.0,0.0,0.0,0.0,0.0,0.0,0.0,0.0,0.0,0.0,0.0,0.0,0.0,0.0,-0.5451,-0.5348,-0.5487,-0.5936,-0.6014,-0.6373,-0.6979,-0.7425,-0.7809,-0.82,-0.8883,-0.8764,-0.7968,-0.8406,-0.8493,-0.8281,-0.8276,-0.8193,-0.8032,-0.7723,-0.7617,-0.7609,-0.7168,-0.685,0.0,0.0,0.0,0.0,0.0,0.0,0.0,0.0,0.0,0.0,-0.6734,0.0,-0.7679,-0.7251,-0.7858,-0.8692,-0.8692,-0.9054,-0.9694,-1.0614,0.0,0.0,0.0,-1.2758,0.0,0.0,-1.4132,-1.395,-1.395,0.0,0.0,0.0,0.0,0.0,0.0,0.0,0.0,0.0,0.0,0.0,0.0,0.0,0.0,0.0,0.0,0.0,0.0,0.0,0.0,0.0,0.0,0.0,0.0,-1.9301,-1.9301,-1.9301,-1.9301,-1.9301,-1.9301,-1.9301,-1.9301,-1.9301,-1.9143,-1.9295,-1.9485,-1.9325,-1.9651,-2.0108,-2.0108,-2.0347,-2.0695,-2.0695,-2.0769,-2.0924,0.0,0.0,0.0,0.0,0.0,0.0,0.0,0.0,0.0,0.0,-0.548,0.0,0.0,0.0,0.0,0.0,0.0,0.0,0.0,-0.5246,-0.5304,-0.5789,-0.5531,-0.5758,-0.6534,-0.7188,-0.7573,-0.7602,-0.8446,-0.861,-0.8141,-0.8768,-0.8975,-0.8738,-0.8738,-0.8555,-0.8204,-0.771,-0.7484,-0.7445,-0.7146,-0.6964,-0.6808,0.0,0.0,0.0,0.0,0.0,0.0,0.0,0.0,0.0,-0.6876,0.0,-0.76,-0.7534,-0.8102,-0.8856,-0.9241,-0.9661,0.0,-1.1285,-1.1676,-1.2151,-1.317,0.0,0.0,0.0,-1.4566,-1.4425,-1.4702,0.0,0.0,0.0,0.0,0.0,0.0,0.0,0.0,0.0,0.0,0.0,0.0,0.0,0.0,0.0,0.0,0.0,0.0,0.0,0.0,0.0,0.0,0.0,-1.8834,-1.899,-1.9063,-1.9072,-1.9228,-1.9301,-1.9301,-1.9301,-1.9301,-1.9301,-1.9301,-1.9301,-1.9301,-1.9301,-1.9448,-1.9677,-1.9677,-1.9925,-2.0283,-2.0283,-2.0383,-2.0549,0.0,0.0,0.0,0.0,0.0,0.0,0.0,0.0,0.0,0.0,-0.5442,-0.548,0.0,0.0,0.0,0.0,0.0,0.0,0.0,-0.5195,-0.5129,-0.5782,-0.5268,-0.54,-0.6326,-0.724,-0.7467,-0.6954,-0.7748,-0.817,-0.8177,-0.8824,-0.912,-0.912,-0.899,-0.8814,-0.8532,-0.7562,-0.7213,-0.7269,-0.6977,-0.7008,-0.7198,-0.6974,0.0,0.0,0.0,0.0,0.0,0.0,0.0,0.0,-0.7399,-0.7469,-0.7408,-0.805,-0.8658,-0.918,-0.9698,-1.0412,-1.1166,-1.1825,-1.2264,0.0,-1.4362,-1.4522,-1.4482,-1.5122,0.0,0.0,0.0,0.0,0.0,0.0,0.0,0.0,0.0,0.0,0.0,0.0,0.0,0.0,0.0,0.0,0.0,0.0,0.0,0.0,0.0,0.0,0.0,0.0,0.0,0.0,-1.8128,-1.8476,-1.866,0.0,-1.9026,-1.9191,-1.9191,-1.9265,-1.9301,-1.9301,-1.9301,-1.9301,-1.9301,-1.9301,-1.9301,-1.9301,-1.9301,-1.954,-1.987,-1.987,-2.0099,-2.0411,0.0,0.0,0.0,0.0,0.0,0.0,0.0,0.0,0.0,0.0,0.0,0.0,0.0,0.0,0.0,0.0,0.0,0.0,0.0,-0.5407,-0.5363,-0.5797,-0.6131,-0.6389,-0.66,-0.6988,-0.6979,-0.6605,-0.7348,-0.7796,-0.7882,-0.8356,-0.8511,-0.8427,-0.8511,-0.8281,-0.7874,-0.7174,-0.7028,-0.7304,-0.7231,-0.7222,-0.732,-0.7492,-0.7373,0.0,0.0,0.0,0.0,0.0,0.0,0.0,-0.7585,-0.7861,-0.7981,-0.7916,-0.9095,-1.0331,-1.004,-1.1002,0.0,-1.2797,-1.3287,-1.3994,-1.536,-1.5626,-1.5633,-1.5677,-1.5632,0.0,0.0,0.0,0.0,0.0,0.0,0.0,0.0,0.0,0.0,0.0,0.0,0.0,0.0,0.0,0.0,0.0,0.0,0.0,0.0,0.0,0.0,0.0,0.0,-1.7789,-1.8119,-1.821,-1.8256,0.0,-1.8339,-1.8375,-1.8394,-1.9017,-1.9301,-1.9301,-1.9301,-1.9301,-1.9301,-1.9301,-1.9301,-1.9301,-1.9301,-1.9356,-1.9439,-1.9439,-1.9494,-1.9604,0.0,0.0,0.0,0.0,0.0,0.0,0.0,0.0,0.0,0.0,0.0,0.0,0.0,0.0,0.0,0.0,0.0,0.0,0.0,-0.5297,-0.5322,-0.5561,-0.6021,-0.6204,-0.6018,-0.6372,-0.6355,-0.6013,-0.6494,-0.7024,-0.7595,-0.8302,-0.8672,-0.8771,-0.8861,-0.8552,-0.8008,-0.7488,-0.7307,-0.7313,-0.7464,-0.7498,-0.7413,-0.7462,-0.718,-0.6785,-0.684,0.0,0.0,0.0,0.0,0.0,0.0,0.0,-0.7983,-0.8177,-0.9039,-1.0026,-1.0495,0.0,0.0,-1.3595,0.0,-1.5377,-1.6071,-1.6383,-1.6553,-1.6708,0.0,0.0,0.0,0.0,0.0,0.0,0.0,0.0,0.0,0.0,0.0,0.0,0.0,0.0,0.0,0.0,0.0,0.0,0.0,0.0,0.0,0.0,0.0,0.0,-1.7211,-1.7312,-1.7541,-1.7734,-1.7825,-1.7825,-1.8027,-1.7895,-1.7605,-1.8588,-1.9127,-1.9301,-1.9301,-1.9301,-1.9301,-1.9301,-1.9301,-1.9301,-1.9301,-1.9301,-1.9301,-1.939,-1.9469,-1.9506,0.0,0.0,0.0,0.0,0.0,0.0,0.0,0.0,0.0,0.0,0.0,0.0,0.0,0.0,0.0,0.0,0.0,0.0,0.0,-0.5047,-0.5144,-0.5392,-0.5664,-0.5708,-0.5465,-0.5816,-0.5884,-0.5609,-0.5839,-0.6465,-0.7412,-0.8238,-0.8877,-0.9334,-0.9129,-0.8783,-0.8278,-0.7756,-0.7355,-0.7115,-0.7409,-0.7446,-0.7263,-0.711,-0.6783,-0.6391,-0.6522,-0.661,-0.6775,-0.7433,0.0,0.0,0.0,0.0,-0.7891,-0.8448,-0.8834,-0.9338,-1.0584,-1.1474,-1.252,-1.4366,-1.5558,0.0,-1.6605,-1.6901,-1.7264,0.0,0.0,0.0,0.0,0.0,0.0,0.0,0.0,0.0,0.0,0.0,0.0,0.0,0.0,0.0,0.0,0.0,0.0,0.0,0.0,0.0,0.0,0.0,-1.6908,-1.6908,-1.6908,-1.6908,-1.6908,-1.7229,-1.7394,-1.7466,-1.7825,-1.7723,-1.7191,-1.8122,-1.876,-1.9043,-1.9186,-1.9301,-1.9301,-1.9301,-1.9381,-1.9381,-1.9381,-1.9381,-1.9381,-1.9557,-1.9645,-1.9715,0.0,0.0,0.0,0.0,0.0,0.0,0.0,0.0,0.0,0.0,-0.5478,-0.5838,-0.5905,-0.5659,0.0,0.0,0.0,0.0,-0.4859,0.0,0.0,-0.5716,-0.5789,-0.5929,-0.6164,-0.6056,-0.6006,-0.6029,-0.6468,-0.7024,-0.7715,-0.7595,-0.8057,-0.9013,-0.8038,-0.7747,-0.7998,-0.681,-0.6305,-0.6279,-0.6445,-0.6474,-0.6492,-0.6741,-0.6793,-0.6749,-0.6752,-0.7027,-0.7372,-0.7486,-0.7801,0.0,0.0,0.0,0.0,-0.8244,-0.8806,-0.9429,-0.9482,0.0,-1.2788,0.0,-1.5481,-1.569,0.0,0.0,0.0,0.0,0.0,0.0,0.0,0.0,0.0,0.0,0.0,0.0,0.0,0.0,0.0,0.0,0.0,0.0,0.0,0.0,0.0,0.0,0.0,0.0,0.0,-1.6908,-1.6908,-1.6908,-1.6908,-1.6908,-1.6908,-1.6963,-1.7051,-1.725,-1.7464,-1.761,-1.7668,-1.8003,-1.8064,-1.7857,-1.891,-1.9301,-1.9301,-1.9478,-1.9557,-1.9557,-1.9784,-1.9784,-1.9784,-1.9863,-1.9863,-1.9863,0.0,0.0,0.0,0.0,0.0,0.0,0.0,0.0,0.0,0.0,0.0,-0.5695,-0.5624,-0.5495,0.0,0.0,0.0,0.0,-0.5085,-0.4812,0.0,-0.5378,-0.5273,-0.5189,-0.5236,-0.5231,-0.5327,-0.5528,-0.5597,-0.638,-0.7787,-0.7751,-0.8575,-1.0048,-0.9275,-0.8961,-0.8995,-0.7873,-0.711,-0.6656,-0.6676,-0.6996,-0.7399,-0.6764,-0.6866,-0.7294,-0.6729,-0.6653,-0.6905,-0.7394,-0.7708,-0.79,-0.8132,0.0,0.0,0.0,-0.8653,-0.9398,-1.0485,-1.1871,-1.3386,0.0,-1.5648,-1.6093,-1.6689,0.0,0.0,0.0,0.0,0.0,0.0,0.0,0.0,0.0,0.0,0.0,0.0,0.0,0.0,0.0,0.0,0.0,0.0,0.0,0.0,0.0,0.0,0.0,-1.7254,-1.7254,-1.7254,-1.7254,-1.7254,0.0,-1.7254,-1.7254,-1.7254,-1.7392,-1.7028,-1.6833,-1.6944,-1.7305,-1.7725,-1.8243,-1.8951,-1.9291,-1.931,-1.9621,-1.9794,-1.9794,-1.9863,-1.9863,-1.9942,-2.0108,-2.0108,-2.0108,0.0,0.0,0.0,0.0,0.0,0.0,0.0,0.0,0.0,0.0,0.0,0.0,-0.549,0.0,0.0,0.0,0.0,0.0,-0.5155,0.0,0.0,0.0,-0.4806,-0.4618,-0.4448,-0.4587,-0.4806,-0.5067,-0.5094,-0.6149,-0.8122,-0.853,-0.9707,-1.1506,-1.0689,-1.0193,-0.9857,-0.89,-0.8107,-0.751,-0.7415,-0.7787,-0.8357,-0.765,-0.7845,-0.8376,-0.7398,-0.7111,-0.7263,0.0,0.0,0.0,0.0,0.0,0.0,0.0,0.0,-0.9004,0.0,0.0,-1.3194,-1.4449,-1.5367,-1.6033,0.0,0.0,0.0,0.0,0.0,0.0,0.0,0.0,0.0,0.0,0.0,0.0,0.0,0.0,0.0,0.0,0.0,0.0,0.0,0.0,0.0,0.0,0.0,0.0,-1.747,-1.747,-1.747,-1.747,-1.747,-1.747,-1.747,-1.7529,-1.7529,-1.747,-1.695,-1.6733,-1.6664,-1.7024,-1.7639,-1.8581,-1.8957,-1.9241,-1.9354,-1.9657,-1.9925,-2.0029,-2.0098,-2.0098,-2.0098,-2.0264,-2.0342,-2.042,0.0,0.0,0.0,0.0,0.0,0.0,0.0,0.0,0.0,0.0,0.0,0.0,-0.5895,-0.5934,-0.5571,-0.4575,0.0,0.0,0.0,0.0,0.0,0.0,0.0,0.0,-0.458,-0.478,-0.4918,-0.4995,-0.5813,-0.7177,-0.906,-0.9896,-1.1333,-1.3175,-1.1475,-1.043,-0.994,-0.9062,-0.8654,-0.8593,-0.8492,-0.8456,-0.8642,-0.9882,-1.0401,-1.034,-0.9387,-0.9329,0.0,0.0,0.0,0.0,0.0,-0.7729,-0.7644,0.0,0.0,0.0,0.0,-1.0069,0.0,-1.3292,-1.4133,0.0,0.0,0.0,0.0,0.0,0.0,0.0,0.0,0.0,0.0,0.0,0.0,0.0,0.0,0.0,0.0,0.0,0.0,0.0,0.0,0.0,0.0,0.0,0.0,0.0,-1.747,-1.747,-1.747,-1.747,-1.747,-1.747,-1.747,-1.7647,-1.7647,-1.747,-1.7803,-1.7784,-1.7638,-1.7881,-1.7988,-1.8056,-1.8543,-1.8976,-1.9336,-1.9497,-1.9899,-2.0264,-2.0489,-2.0566,-2.0566,-2.0566,-2.0566,-2.0566,0.0,0.0,0.0,0.0,0.0,0.0,0.0,0.0,0.0,0.0,0.0,0.0,0.0,-0.55,-0.5263,-0.4729,-0.4803,0.0,0.0,0.0,0.0,0.0,0.0,0.0,-0.4671,-0.4826,-0.5013,-0.5263,-0.5396,-0.6435,-0.8277,-0.8685,-0.9657,-1.1085,-1.1023,-1.1175,-1.1292,-0.9414,-0.8808,-0.9083,-0.9142,-0.9809,-1.0831,-1.114,-1.1773,-1.2351,-1.1101,0.0,0.0,0.0,0.0,0.0,-0.8229,-0.7957,-0.7601,-0.7124,-0.7326,-0.7914,0.0,0.0,0.0,-1.2342,-1.3346,-1.4111,0.0,0.0,0.0,0.0,0.0,0.0,0.0,0.0,0.0,0.0,0.0,0.0,0.0,0.0,0.0,0.0,0.0,0.0,0.0,0.0,0.0,0.0,0.0,0.0,-1.7002,-1.7002,-1.7002,-1.7002,-1.7002,-1.7127,-1.7407,-1.7464,-1.76,-1.7813,-1.794,-1.794,-1.7862,-1.794,-1.8008,-1.8027,-1.8201,-1.8498,-1.8923,-1.9538,-1.9858,-2.0099,-2.0459,-2.0566,-2.0566,-2.0566,-2.0566,-2.0566,0.0,0.0,0.0,0.0,0.0,0.0,0.0,0.0,-0.5036,-0.5638,0.0,0.0,0.0,0.0,-0.5285,-0.4969,-0.5204,-0.5323,-0.5234,-0.5108,0.0,0.0,0.0,0.0,-0.4794,-0.4952,-0.5144,-0.5367,-0.5358,-0.6207,-0.7801,-0.8074,-0.8901,-1.0159,-1.0267,-1.0951,-1.1872,-1.0244,-0.9838,-1.0274,-1.0595,-1.1444,-1.2625,-1.3132,-1.3849,-1.4421,0.0,0.0,0.0,0.0,0.0,0.0,-0.9146,-0.8229,-0.7196,-0.6748,-0.7036,-0.7668,-0.836,0.0,0.0,0.0,0.0,-1.3019,0.0,0.0,0.0,0.0,0.0,0.0,0.0,0.0,0.0,0.0,0.0,0.0,0.0,0.0,0.0,0.0,0.0,0.0,0.0,0.0,0.0,0.0,0.0,0.0,-1.6728,-1.6665,-1.6665,-1.6665,-1.6665,-1.6875,-1.7168,-1.7168,-1.7383,-1.7803,-1.7803,-1.7871,-1.8008,-1.8008,-1.8008,-1.8008,-1.8008,-1.8252,-1.8611,-1.9248,-1.9658,-1.9941,-2.0234,-2.0439,-2.0566,-2.0566,-2.0566,-2.0566,0.0,0.0,0.0,0.0,0.0,0.0,0.0,0.0,-0.5499,-0.6552,0.0,0.0,0.0,0.0,0.0,-0.5284,-0.591,-0.6024,-0.5361,-0.5195,0.0,0.0,0.0,0.0,-0.5029,-0.5214,-0.531,-0.531,-0.5838,-0.6653,-0.7772,-0.829,-0.9327,-1.0649,-0.9229,-0.9624,-1.1435,-1.1424,-1.1667,-1.2148,-1.2834,-1.3283,-1.3813,-1.5897,-1.6625,0.0,-1.5568,-1.5235,0.0,-1.3725,0.0,0.0,-1.0576,-0.8525,-0.6474,-0.5999,-0.6508,-0.7229,0.0,0.0,0.0,0.0,0.0,0.0,0.0,0.0,0.0,0.0,0.0,0.0,0.0,0.0,0.0,0.0,0.0,0.0,0.0,0.0,0.0,0.0,0.0,0.0,0.0,0.0,0.0,0.0,0.0,-1.7296,-1.6689,-1.6626,-1.6626,-1.6626,-1.6626,-1.6699,-1.6709,-1.6709,-1.6934,-1.7363,-1.7363,-1.7578,-1.7978,-1.7988,-1.7988,-1.7988,-1.8008,-1.8242,-1.8553,-1.8633,-1.9121,-1.9883,-1.9893,-2.0166,-2.0547,-2.0547,-2.0557,-2.0566,0.0,0.0,0.0,0.0,0.0,-0.6601,-0.6394,-0.6046,-0.5939,0.0,0.0,0.0,-0.5979,-0.6242,-0.6478,-0.6562,-0.649,-0.6285,-0.5899,-0.5571,-0.5406,-0.5453,-0.5472,-0.5472,-0.5444,-0.553,-0.5587,-0.5587,-0.5791,-0.6228,-0.6858,-0.7012,-0.7656,-0.8683,-0.837,-0.8717,-0.9536,-0.9276,-1.0338,-1.2223,-1.2682,-1.3844,0.0,0.0,0.0,0.0,0.0,-1.6441,-1.5788,0.0,-1.4449,-1.3082,0.0,-0.9331,-0.7865,-0.7505,-0.777,-0.8185,-0.8048,0.0,0.0,0.0,0.0,0.0,0.0,0.0,0.0,0.0,0.0,0.0,0.0,0.0,0.0,0.0,0.0,0.0,0.0,0.0,0.0,0.0,0.0,0.0,0.0,0.0,0.0,0.0,-1.6009,-1.595,-1.5781,-1.5781,-1.5781,-1.5781,-1.5781,-1.5928,-1.625,-1.625,-1.6475,-1.6914,-1.6914,-1.6973,-1.71,-1.7412,-1.7559,-1.7568,-1.7881,-1.8076,-1.8213,-1.8516,-1.8779,-1.9023,-1.9336,-1.9717,-2.0088,-2.0088,-2.0293,-2.0566,0.0,0.0,0.0,-0.7664,-0.7464,-0.7311,-0.7476,-0.7207,-0.7098,0.0,0.0,0.0,-0.652,-0.7367,-0.7749,-0.7256,-0.7091,-0.677,-0.6223,-0.5851,-0.5652,-0.5644,-0.5715,-0.5734,-0.5689,-0.5718,-0.5748,-0.5748,-0.5774,-0.5936,-0.6222,-0.6231,-0.6639,-0.7366,-0.7271,-0.7644,-0.8339,-0.8052,-0.9479,0.0,-1.3361,0.0,0.0,-1.6823,-1.7304,0.0,0.0,0.0,-1.677,-1.685,-1.5879,0.0,0.0,0.0,-0.9976,-0.9058,-0.9269,-0.9734,-0.9328,-0.9648,-1.0217,0.0,0.0,0.0,0.0,-1.2543,0.0,0.0,0.0,0.0,0.0,0.0,0.0,0.0,0.0,0.0,0.0,0.0,0.0,0.0,0.0,0.0,0.0,0.0,0.0,0.0,-1.5911,-1.569,-1.541,-1.541,-1.541,-1.541,-1.541,-1.5537,-1.5791,-1.5791,-1.6016,-1.6455,-1.6455,-1.6553,-1.6738,-1.7002,-1.7207,-1.7393,-1.7637,-1.7852,-1.8027,-1.8271,-1.8477,-1.8662,-1.8916,-1.9277,-1.9678,-1.9853,-2.0078,-2.0322,0.0,0.0,-0.739,-0.8458,-0.8139,-0.7967,-0.8745,-0.8522,-0.8546,0.0,-0.856,-0.8002,-0.8144,-0.9107,-0.9239,-0.7956,-0.7853,-0.7484,-0.6608,-0.6234,-0.5949,-0.5748,-0.5911,-0.5936,-0.583,-0.583,-0.583,-0.583,-0.583,-0.583,-0.5811,-0.5874,-0.6128,-0.6511,-0.6177,-0.6591,-0.7568,-0.7678,-0.9189,-1.1686,-1.4115,-1.5425,0.0,0.0,-1.7571,-1.757,-1.7679,-1.772,-1.772,-1.7842,-1.6928,0.0,0.0,0.0,0.0,0.0,-1.1039,-1.164,-1.1015,-1.1191,-1.1687,0.0,0.0,0.0,-1.3198,-1.2567,0.0,0.0,0.0,0.0,0.0,0.0,0.0,0.0,0.0,0.0,0.0,0.0,0.0,0.0,0.0,0.0,0.0,0.0,-1.7422,-1.6872,-1.6381,-1.5847,-1.5332,-1.5342,-1.5361,-1.541,-1.541,-1.541,-1.541,-1.541,-1.5605,-1.5986,-1.5986,-1.6201,-1.6592,-1.6641,-1.6865,-1.7236,-1.7344,-1.7598,-1.7939,-1.7988,-1.8232,-1.8494,-1.8494,-1.8838,-1.9268,-1.9629,-1.9805,-1.9902,0.0,-0.773,-0.8612,-0.8949,-0.9004,-0.9345,-1.0307,-0.9387,-0.902,-1.0187,-0.9837,-0.9866,-1.0906,-1.0453,-1.0247,-1.0591,-0.9463,-0.8584,-0.8181,-0.7342,-0.6587,-0.5977,-0.5991,-0.5991,-0.5973,-0.5954,-0.5954,-0.5954,-0.5954,-0.5936,-0.5874,-0.5893,-0.5974,-0.6109,-0.6146,-0.6343,-0.6778,-0.8848,0.0,-1.1492,-1.2561,0.0,-1.6658,-1.6991,-1.7422,-1.7842,-1.7842,-1.7842,-1.7842,-1.7882,-1.7315,-1.6407,0.0,0.0,0.0,-1.3446,-1.34,-1.3443,-1.3167,-1.3243,0.0,0.0,0.0,0.0,-1.267,-1.2411,0.0,0.0,0.0,0.0,0.0,0.0,0.0,0.0,0.0,0.0,0.0,0.0,0.0,0.0,0.0,0.0,0.0,0.0,-1.4851,-1.469,-1.4592,-1.4641,-1.4893,-1.4902,-1.5068,-1.54,-1.541,-1.541,-1.541,-1.541,-1.5459,-1.5537,-1.5537,-1.5586,-1.5684,-1.6035,-1.624,-1.6357,-1.707,-1.7432,-1.7529,-1.7871,-1.8057,-1.8135,-1.8135,-1.8389,-1.8769,-1.8786,-1.9193,-1.9663,-0.7611,-0.8051,-0.8544,-0.8978,-0.9345,-0.9985,-1.107,-1.0648,-1.0641,-1.1931,-1.2011,-1.1978,-1.2036,-1.1845,-1.1549,-1.1222,-1.0224,-0.924,-0.8414,-0.7707,-0.7018,-0.6278,-0.6318,-0.6445,-0.6648,-0.6373,-0.6337,-0.6547,-0.624,-0.6052,-0.5954,-0.602,-0.6416,-0.7095,-0.6899,-0.7243,-0.8067,-0.9061,-1.0286,-1.167,-1.3493,0.0,-1.7077,-1.7482,-1.7862,-1.8202,-1.8202,-1.8202,-1.8161,-1.774,-1.7552,0.0,0.0,-1.6133,-1.6038,0.0,-1.521,-1.5293,-1.4875,0.0,0.0,-1.4393,0.0,0.0,0.0,0.0,-1.2782,0.0,0.0,0.0,0.0,0.0,0.0,0.0,0.0,0.0,0.0,0.0,0.0,0.0,0.0,0.0,0.0,0.0,-1.4704,-1.4131,-1.4077,-1.4175,-1.4453,-1.4463,-1.4658,-1.5088,-1.5098,-1.5205,-1.541,-1.541,-1.541,-1.541,-1.541,-1.541,-1.542,-1.5635,-1.5859,-1.6145,-1.6533,-1.6909,-1.7219,-1.7642,-1.7886,-1.7982,-1.8123,-1.8272,-1.8488,-1.8774,-1.9143,-1.9443,-0.8203,-0.8067,-0.8144,-0.8782,-0.9354,-1.0145,-1.1307,-1.1471,-1.1972,-1.333,-1.3934,-1.3945,-1.3209,-1.3483,-1.3317,-1.2312,-1.1482,-1.0474,-0.9169,-0.8495,-0.7783,-0.6991,-0.683,-0.6971,-0.7401,-0.688,-0.6758,-0.7066,-0.6578,-0.6236,-0.607,-0.6218,-0.6918,-0.8022,-0.7786,-0.8378,-0.9585,0.0,0.0,-1.2388,0.0,-1.6373,-1.6991,-1.7747,-1.8154,-1.8271,-1.8436,-1.8517,-1.8408,-1.7713,-1.7802,-1.7984,-1.6831,-1.7147,0.0,0.0,0.0,0.0,0.0,0.0,0.0,0.0,0.0,-1.4627,0.0,0.0,0.0,-1.3903,0.0,0.0,0.0,0.0,0.0,0.0,0.0,0.0,0.0,0.0,0.0,0.0,0.0,0.0,0.0,0.0,-1.4702,-1.3929,-1.3782,-1.3792,-1.3941,-1.3961,-1.4209,-1.4648,-1.4658,-1.4863,-1.5283,-1.5293,-1.5332,-1.541,-1.541,-1.541,-1.541,-1.542,-1.5674,-1.6007,-1.6156,-1.6454,-1.6944,-1.7372,-1.7676,-1.7946,-1.8235,-1.8337,-1.8387,-1.8893,-1.9093,-1.9133,-0.6961,-0.7496,-0.8162,-0.841,-0.9059,-0.9895,-1.0988,-1.0847,-1.1256,-1.3023,-1.4311,-1.5332,-1.602,-1.583,-1.5916,-1.6532,-1.5023,-1.3615,-1.2687,-1.1019,-0.9638,-0.8684,-0.7557,-0.7229,-0.7824,-0.7239,-0.6934,-0.6932,-0.6867,-0.6659,-0.6354,-0.6483,-0.6888,-0.7526,-0.8306,-0.8997,-0.9665,0.0,-1.2471,0.0,-1.5206,-1.5538,0.0,-1.6922,-1.7401,-1.7547,-1.8243,-1.8517,-1.8464,0.0,-1.8133,-1.8135,0.0,-1.7894,-1.8095,-1.7799,0.0,0.0,0.0,0.0,0.0,0.0,-1.6366,0.0,0.0,0.0,-1.3871,-1.2923,0.0,0.0,0.0,0.0,0.0,0.0,0.0,0.0,0.0,0.0,0.0,0.0,0.0,0.0,0.0,0.0,0.0,-1.3018,-1.2563,-1.2623,-1.3516,-1.3574,-1.3769,-1.4199,-1.4209,-1.4414,-1.4853,-1.4853,-1.5039,-1.541,-1.541,-1.541,-1.541,-1.5604,-1.5702,-1.5771,-1.6267,-1.6467,-1.6608,-1.7059,-1.748,-1.7946,-1.8312,-1.8482,-1.8492,-1.8542,-1.8687,-1.8822,-0.7367,-0.7742,-0.8122,-0.8155,-0.9033,-1.0022,-1.0848,-1.2458,-1.3827,-1.4488,-1.5887,-1.6775,-1.667,-1.6655,-1.6706,-1.6834,0.0,-1.4935,0.0,0.0,-1.1203,-1.0283,-0.9002,-0.8623,-0.9224,-0.8304,-0.7738,-0.7604,-0.725,-0.696,-0.6761,-0.6774,-0.7473,-0.8759,-0.9236,0.0,-1.1993,0.0,-1.3123,0.0,0.0,0.0,0.0,-1.7351,-1.8262,-1.8403,-1.8712,-1.8851,-1.8741,0.0,-1.8271,0.0,0.0,0.0,0.0,0.0,0.0,0.0,0.0,0.0,0.0,0.0,0.0,0.0,-1.4781,0.0,-1.4259,0.0,0.0,0.0,0.0,0.0,0.0,0.0,0.0,0.0,0.0,0.0,0.0,0.0,0.0,0.0,0.0,0.0,0.0,0.0,0.0,-1.2318,-1.3135,-1.3145,-1.334,-1.376,-1.3769,-1.3975,-1.4404,-1.4404,-1.4619,-1.5049,-1.5106,-1.53,-1.5604,-1.573,-1.5798,-1.5808,-1.6046,-1.6185,-1.6313,-1.6769,-1.7134,-1.744,-1.8145,-1.8507,-1.8674,-1.8808,-1.8875,-1.8998,-0.8111,-0.808,-0.8024,-0.8195,-0.9102,-1.0164,-1.1211,-1.3542,-1.5341,-1.587,-1.7142,-1.7954,-1.7782,-1.7992,0.0,0.0,-1.7499,-1.6713,0.0,0.0,-1.298,-1.2284,-1.075,-1.0121,-1.0563,-0.9366,-0.8554,-0.8215,-0.7587,-0.7285,-0.73,-0.709,-0.7882,-0.9508,-1.0016,-1.1446,-1.347,0.0,-1.4125,-1.5046,-1.5392,-1.5738,-1.6222,-1.7898,-1.8792,-1.9101,-1.9101,-1.9101,-1.8991,-1.8381,-1.845,0.0,-1.8068,0.0,0.0,0.0,0.0,0.0,-1.8321,0.0,0.0,0.0,0.0,0.0,0.0,0.0,0.0,0.0,0.0,0.0,0.0,0.0,0.0,0.0,0.0,0.0,0.0,0.0,0.0,0.0,0.0,0.0,0.0,0.0,0.0,0.0,0.0,0.0,-1.2694,-1.2705,-1.29,-1.332,-1.334,-1.3535,-1.3902,-1.3965,-1.4233,-1.4665,-1.4903,-1.5243,-1.5561,-1.5853,-1.5961,-1.5961,-1.6029,-1.6077,-1.6202,-1.654,-1.6804,-1.7049,-1.7761,-1.8235,-1.8537,-1.8982,-1.9075,-1.9075,-0.8881,-0.8273,-0.7853,-0.8629,-0.9225,-1.0274,-1.2228,-1.3134,-1.4352,-1.6473,0.0,0.0,0.0,0.0,0.0,0.0,0.0,-1.9793,-1.8892,0.0,-1.5129,-1.4975,-1.2698,-1.1468,0.0,-1.0244,-0.9209,-0.8485,-0.7828,-0.7685,-0.8054,-0.7521,-0.7872,-0.8988,-1.0487,-1.1798,-1.2928,-1.4411,-1.6088,-1.772,-1.732,-1.7952,-1.9075,0.0,-1.8417,-1.9101,-1.9101,0.0,0.0,-1.8846,-1.8769,0.0,0.0,0.0,0.0,0.0,0.0,0.0,0.0,0.0,0.0,-1.6936,0.0,0.0,0.0,0.0,-1.5618,0.0,0.0,0.0,0.0,0.0,-1.4952,-1.3598,0.0,0.0,0.0,0.0,0.0,0.0,0.0,0.0,0.0,0.0,0.0,0.0,0.0,0.0,-1.2158,-1.2209,-1.2451,-1.2881,-1.29,-1.3105,-1.3525,-1.3637,-1.3906,-1.433,-1.4919,-1.5195,-1.5225,-1.5806,-1.6114,-1.6114,-1.6316,-1.6384,-1.6384,-1.6394,-1.6653,-1.6987,-1.7018,-1.7307,-1.7822,-1.8754,-1.9075,-1.9075,-1.0064,-0.989,-0.9703,-0.9843,-1.0384,-1.1691,-1.4327,-1.5224,-1.6355,0.0,0.0,0.0,0.0,-2.0829,-2.1071,0.0,0.0,-2.0521,-1.99,-1.8237,0.0,0.0,0.0,-1.395,0.0,-1.2293,-1.0922,-0.9826,-0.9195,-0.8957,-0.907,-0.8404,-0.8719,-0.9856,-1.0832,-1.2391,0.0,0.0,0.0,0.0,0.0,-1.8109,-1.9273,0.0,0.0,-1.9101,-1.9101,-1.9101,0.0,-1.9026,-1.8988,-1.8988,-1.8912,-1.895,-1.8988,-1.9026,-1.8912,0.0,0.0,0.0,-1.8484,-1.7486,0.0,0.0,0.0,0.0,0.0,0.0,0.0,0.0,0.0,0.0,-1.5422,-1.4533,-1.3833,-1.2986,0.0,0.0,0.0,0.0,0.0,0.0,0.0,0.0,0.0,0.0,0.0,0.0,0.0,-1.2557,-1.2725,-1.2871,-1.2881,-1.2998,-1.3244,-1.3293,-1.3561,-1.4041,-1.4336,-1.4763,-1.534,-1.5669,-1.6017,-1.6306,-1.6374,-1.6384,-1.6384,-1.6384,-1.6467,-1.6632,-1.6933,-1.708,-1.7327,-1.8278,-1.8609,-1.8651,-1.1216,-1.1201,-1.1107,0.0,0.0,-1.3581,-1.5982,0.0,0.0,0.0,-2.0088,0.0,-2.1022,0.0,-2.143,0.0,-2.146,-2.122,-2.0882,-1.9693,0.0,-1.9206,-1.7469,0.0,0.0,-1.4267,-1.2743,-1.1457,-1.048,-0.9991,-0.9976,-0.9228,-0.9413,-1.0406,0.0,-1.2874,-1.4918,-1.6111,-1.7217,0.0,0.0,-1.8641,0.0,0.0,-1.9176,-1.9176,0.0,-1.9213,-1.9213,-1.9213,-1.9213,-1.9213,-1.9213,-1.9213,-1.9213,-1.9302,-1.9176,-1.9026,-1.913,-1.9078,0.0,-1.8086,-1.7733,0.0,-1.6508,0.0,0.0,0.0,0.0,0.0,0.0,0.0,-1.6132,-1.4914,-1.4001,-1.2889,0.0,0.0,0.0,0.0,0.0,0.0,0.0,0.0,-1.0926,-1.1407,0.0,0.0,0.0,0.0,-1.2691,-1.2968,-1.2968,-1.3055,-1.3104,-1.3162,-1.3399,-1.373,-1.4032,-1.4451,-1.5024,-1.5306,-1.5701,-1.6136,-1.6136,-1.6229,-1.6384,-1.6384,-1.6384,-1.6415,-1.6694,-1.6808,-1.6933,-1.7988,-1.8485,-1.8671,-1.2357,0.0,0.0,0.0,-1.3944,0.0,0.0,0.0,-1.9083,0.0,-2.0844,-2.1116,-2.1915,-2.2027,-2.2027,-2.2027,-2.2027,-2.1998,-2.1928,-2.0944,0.0,0.0,-1.9315,-1.8426,-1.7829,-1.6075,-1.455,-1.3343,-1.1599,-1.0751,-1.0775,-1.001,-0.9967,-1.0604,-1.1835,0.0,-1.4601,-1.6544,-1.8165,-1.9413,-1.9413,-1.9501,-1.9574,-1.9501,0.0,-1.9339,-1.9376,-1.9413,-1.9413,-1.9413,-1.9413,-1.9413,-1.9413,-1.9413,-1.9413,-1.9413,-1.9413,-1.9413,-1.9413,-1.9413,-1.9266,-1.8697,0.0,0.0,0.0,0.0,-1.8264,0.0,0.0,0.0,0.0,0.0,0.0,-1.4842,-1.3936,-1.2707,0.0,0.0,0.0,0.0,0.0,0.0,0.0,-1.0396,-1.015,-1.1056,-1.0025,0.0,0.0,0.0,0.0,-1.3074,-1.318,-1.3218,-1.3218,-1.3314,-1.342,-1.342,-1.4006,-1.4283,-1.4324,-1.4759,-1.5225,-1.5691,-1.5691,-1.5949,-1.6384,-1.6384,-1.6384,-1.6384,-1.6384,-1.6394,-1.6628,-1.7864,-1.864,-1.9044,-1.4418,-1.5321,-1.6273,0.0,-1.6598,-1.7036,0.0,0.0,0.0,0.0,-2.1395,-2.1356,-2.2192,-2.2304,-2.2304,-2.2304,-2.2248,0.0,0.0,0.0,0.0,-2.1483,-2.0574,-1.9909,-1.9573,-1.7139,0.0,-1.5365,0.0,-1.163,-1.2079,-1.0946,-1.0749,-1.1351,0.0,0.0,-1.5242,-1.6767,-1.8234,-1.9538,-1.9538,-1.9574,0.0,0.0,-1.9889,-1.9854,-1.9523,-1.9566,-1.9752,-1.9472,-1.9566,-1.9752,-1.9472,-1.9413,-1.9413,-1.9538,-1.9501,-1.9413,-1.9538,-1.9501,-1.9369,-1.9221,-1.8844,-1.8446,0.0,0.0,0.0,0.0,0.0,0.0,0.0,0.0,0.0,-1.6006,-1.4418,-1.3035,0.0,0.0,0.0,0.0,0.0,0.0,0.0,0.0,-1.0427,-1.0045,0.0,0.0,0.0,0.0,0.0,-1.2719,-1.302,-1.3266,-1.3372,-1.3362,-1.3467,-1.3573,-1.3686,-1.3972,-1.4314,-1.4428,-1.4925,-1.5691,-1.5691,-1.5949,-1.6384,-1.6384,-1.6384,-1.6384,-1.6384,-1.6696,-1.713,-1.7708,-1.8175,-1.8609,-1.6468,0.0,0.0,-1.9646,0.0,0.0,-2.0611,0.0,0.0,-2.2169,-2.1938,0.0,-2.2343,-2.2525,-2.2579,-2.246,-2.2453,0.0,-2.2254,0.0,0.0,-2.194,-2.1475,-2.1142,-2.0977,-1.9029,0.0,-1.6586,0.0,-1.2811,-1.1976,-1.1412,-1.1186,-1.1255,0.0,-1.3812,-1.5241,-1.7309,-1.885,-1.9869,-2.0045,0.0,0.0,-2.005,-2.0065,-1.9889,-1.9782,-1.9965,-2.0277,-2.0065,-2.0154,-2.0243,-1.9874,-1.9747,-1.9747,-1.9654,-1.9596,-1.956,-1.9632,-1.9596,-1.9523,-1.9523,-1.9277,-1.901,-1.8989,-1.8989,-1.8989,0.0,0.0,0.0,0.0,0.0,0.0,-1.5307,-1.3764,0.0,0.0,0.0,0.0,0.0,0.0,0.0,0.0,0.0,0.0,0.0,0.0,0.0,0.0,0.0,0.0,-1.2675,-1.3138,-1.3409,-1.3467,-1.3467,-1.3515,-1.3621,-1.3621,-1.3755,-1.4003,-1.4003,-1.4511,-1.539,-1.539,-1.5763,-1.6384,-1.6488,-1.6477,-1.6477,-1.6534,-1.6749,-1.7148,-1.7504,-1.7957,-1.8583,-1.848,0.0,0.0,0.0,0.0,0.0,0.0,-2.2211,0.0,-2.2432,0.0,-2.2487,-2.2487,-2.2782,-2.2867,-2.2615,0.0,-2.2678,-2.2415,-2.2349,-2.2248,-2.2113,-2.2068,-2.2056,-2.2027,-2.0936,0.0,0.0,0.0,-1.3952,-1.137,-1.1682,-1.1446,-1.0827,0.0,0.0,0.0,-1.8083,-1.9659,-2.0311,-2.0646,-2.0613,-2.0277,-2.0311,-2.0189,-1.996,-2.0243,-2.0563,-2.0794,-2.0794,-2.0827,-2.0794,-2.0395,-2.0243,-2.0139,-1.9854,-1.9711,-1.969,-1.969,-1.969,-1.969,-1.969,-1.969,-1.969,-1.9647,-1.9611,-1.9611,-1.9611,-1.9538,0.0,0.0,0.0,0.0,0.0,0.0,0.0,0.0,0.0,0.0,0.0,0.0,0.0,0.0,0.0,0.0,0.0,0.0,0.0,0.0,0.0,0.0,0.0,-1.3243,0.0,-1.3621,0.0,-1.3621,-1.3621,-1.3621,-1.3621,-1.3621,-1.3621,-1.4086,-1.4914,-1.4966,-1.5538,-1.6348,-1.656,-1.6637,-1.6637,-1.6751,-1.6807,-1.686,-1.7339,-1.7941,-1.8617,0.0,0.0,0.0,0.0,0.0,-2.3412,-2.356,-2.25,-2.1893,-2.2483,-2.2764,-2.2919,-2.297,-2.317,-2.3253,-2.3159,-2.3183,0.0,0.0,0.0,0.0,-2.2588,-2.2517,-2.2381,-2.2163,-2.0522,-1.9174,0.0,-1.5967,-1.3961,-1.2199,-1.2087,-1.1653,-1.1021,0.0,0.0,-1.7609,-1.8999,0.0,-2.0679,-2.0761,-2.0761,-2.0728,-2.1007,-2.1103,-2.1119,-2.1182,-2.1039,-2.0794,-2.0794,-2.099,-2.1151,-2.0811,-2.0462,-2.0174,-2.0139,-1.9925,-1.969,-1.969,-1.969,-1.969,-1.969,-1.969,-1.969,-1.969,-1.969,-1.969,-1.969,-1.9654,-1.9489,-1.8867,0.0,0.0,0.0,0.0,0.0,0.0,0.0,0.0,0.0,0.0,0.0,0.0,0.0,0.0,0.0,0.0,0.0,0.0,0.0,0.0,0.0,0.0,0.0,0.0,0.0,0.0,-1.3621,-1.3621,-1.3621,-1.3621,-1.3621,-1.391,-1.4449,-1.4966,-1.5489,-1.6035,-1.6536,-1.6751,-1.6751,-1.6909,-1.6955,-1.7008,-1.7492,-1.7969,-1.8454,0.0,0.0,0.0,0.0,0.0,0.0,0.0,-2.4073,0.0,-2.3025,-2.3098,-2.317,-2.3194,-2.345,-2.3544,-2.3369,-2.3455,-2.3414,-2.323,-2.3165,-2.3087,-2.2975,-2.2933,0.0,-2.2456,-2.1615,-2.0314,-1.8618,-1.6967,-1.4973,-1.2706,-1.2475,-1.1976,-1.1371,0.0,-1.6122,0.0,0.0,0.0,-2.1182,-2.137,-2.1308,-2.1182,-2.1355,-2.1308,-2.1214,-2.1401,-2.1339,-2.115,-2.115,-2.1401,-2.1601,-2.123,-2.0991,-2.0747,-2.0311,-2.0085,-1.9909,-1.9747,-1.969,-1.9726,-1.9726,-1.9762,-1.9762,-1.9762,-1.9762,-1.9726,-1.9726,-1.969,-1.948,-1.8753,-1.7895,0.0,0.0,0.0,0.0,0.0,0.0,0.0,0.0,0.0,0.0,0.0,0.0,0.0,0.0,0.0,0.0,0.0,0.0,0.0,0.0,0.0,0.0,0.0,0.0,0.0,-1.3621,-1.3668,-1.3716,-1.3716,-1.3773,-1.4073,-1.4545,-1.5088,-1.5553,-1.6028,-1.6661,-1.6976,-1.7043,-1.7145,-1.7145,-1.7166,-1.7405,-1.7796,-1.8257,0.0,-2.474,0.0,0.0,-2.5319,0.0,-2.642,-2.5779,-2.4784,-2.3817,-2.3687,-2.3634,-2.3432,-2.3714,-2.3798,-2.3592,-2.3714,-2.3714,-2.3482,-2.3414,-2.3369,-2.3323,-2.3282,-2.3141,-2.2848,-2.2797,-2.1648,0.0,0.0,-1.6373,-1.361,-1.3277,-1.2954,0.0,0.0,0.0,0.0,0.0,-2.0999,-2.1628,-2.1895,-2.1836,-2.1615,-2.1615,-2.1446,-2.126,-2.1462,-2.1601,-2.1645,-2.1584,-2.1705,-2.1853,-2.1493,-2.1324,-2.1087,-2.0413,-2.0189,-2.0085,-1.9833,-1.9762,-1.9762,-1.9848,-1.9848,-1.9848,-1.9848,-1.9797,-1.9797,-1.9726,-1.9726,-1.9445,-1.8649,-1.7963,0.0,0.0,0.0,0.0,0.0,0.0,0.0,0.0,0.0,0.0,0.0,0.0,0.0,0.0,0.0,0.0,-0.9983,-1.0414,0.0,0.0,0.0,0.0,-1.3512,0.0,-1.3773,0.0,-1.3763,-1.3821,-1.3868,-1.3962,-1.4174,-1.4556,-1.5158,-1.5775,-1.6395,-1.6871,-1.7145,-1.7278,-1.7278,-1.7278,-1.7278,-1.7278,-1.7584,-1.806,0.0,0.0,0.0,0.0,0.0,0.0,0.0,-2.6745,-2.6112,-2.4761,-2.4761,-2.4657,-2.391,-2.4019,-2.4154,-2.4116,-2.4134,-2.4132,-2.4016,-2.4016,-2.3917,-2.3671,-2.3588,-2.3459,-2.3236,-2.3117,-2.2295,0.0,0.0,-1.7914,0.0,0.0,0.0,0.0,0.0,0.0,0.0,-2.0772,-2.1334,-2.1969,-2.1998,-2.1998,-2.1953,-2.1953,-2.2003,-2.2036,-2.1784,-2.1903,-2.218,-2.1886,-2.1691,-2.1524,-2.1448,-2.1023,-2.0561,-2.041,-2.022,-1.999,-1.997,-1.997,-1.997,-1.997,-1.997,-1.997,-1.997,-1.9884,-1.9797,-1.9797,-1.9726,-1.9373,-1.8331,-1.8579,-1.8278,0.0,0.0,0.0,0.0,0.0,0.0,0.0,0.0,0.0,0.0,0.0,0.0,0.0,0.0,0.0,0.0,-0.9893,0.0,-1.1874,0.0,-1.2849,-1.3316,-1.375,0.0,-1.3973,-1.3973,-1.3973,-1.3973,-1.3973,-1.4041,-1.4137,-1.5121,-1.6191,-1.7213,-1.7256,-1.7278,-1.7278,-1.7278,-1.7278,-1.7278,-1.7278,-1.7584,-1.8075,0.0,0.0,0.0,0.0,0.0,0.0,0.0,-2.7976,-2.7391,-2.6811,-2.6392,-2.6009,-2.5678,-2.526,-2.4985,-2.4984,-2.4504,-2.419,-2.417,-2.417,-2.4113,-2.3996,-2.3958,-2.3816,-2.3544,-2.35,-2.2874,0.0,0.0,0.0,0.0,0.0,0.0,0.0,0.0,-1.962,-2.0905,-2.153,-2.1939,-2.2192,-2.2192,-2.2192,-2.2192,-2.2192,-2.2209,-2.2254,-2.2094,-2.2152,-2.2282,-2.2152,-2.2049,-2.1915,-2.1678,-2.1417,-2.1103,-2.0613,-2.0392,-2.027,-2.0061,-2.0005,-2.0005,-2.0061,-2.0045,-2.0045,-2.0045,-2.001,-1.9975,-1.9919,-1.9884,-1.9758,-1.9325,-1.8983,-1.8513,0.0,0.0,0.0,0.0,0.0,0.0,0.0,0.0,-1.3734,0.0,0.0,0.0,0.0,0.0,0.0,0.0,0.0,0.0,-1.1446,0.0,-1.2915,-1.3307,-1.3857,-1.4104,-1.402,-1.4104,-1.414,-1.414,-1.4197,-1.4558,-1.5081,-1.5509,-1.633,-1.7278,-1.7278,-1.7278,-1.7278,-1.7278,-1.7278,-1.7278,-1.7278,-1.7398,-1.7682,-2.8326,0.0,-2.8298,0.0,-2.8502,-2.8359,-2.9474,-2.9027,-2.8576,-2.8556,-2.7973,-2.7374,-2.6873,-2.6243,-2.5872,-2.589,-2.5298,-2.4927,-2.4945,-2.4925,-2.4905,-2.4905,-2.4667,0.0,-2.4221,-2.3964,-2.3443,-2.2676,-2.1609,0.0,0.0,0.0,0.0,0.0,-2.0377,-2.0918,-2.1667,-2.2129,-2.2338,-2.2355,-2.253,-2.2632,-2.2649,-2.2868,-2.2818,-2.2632,-2.2632,-2.2496,-2.231,-2.231,-2.231,-2.2225,-2.1797,-2.1648,-2.1448,-2.0745,-2.0561,-2.0527,-2.0166,-2.0111,-2.0096,-2.015,-2.015,-2.015,-2.015,-2.015,-2.008,-1.999,-2.0005,-1.9955,-1.9848,-1.923,-1.8672,0.0,0.0,0.0,0.0,0.0,0.0,0.0,-1.4699,-1.3873,-1.3245,0.0,0.0,0.0,0.0,0.0,0.0,0.0,0.0,0.0,0.0,0.0,0.0,0.0,-1.4186,-1.4104,-1.4186,-1.4269,-1.4269,-1.4373,-1.4908,-1.5785,-1.5785,-1.6383,-1.7278,-1.7278,-1.7278,-1.7278,-1.7278,-1.7278,-1.7278,-1.7278,-1.7278,-1.7387,-2.9066,-2.9187,-2.9378,-3.0069,-3.0117,-3.0056,-2.9999,-2.9815,-2.968,-2.9677,-2.9514,-2.8721,-2.6986,-2.6782,-2.6763,-2.6763,-2.6702,-2.668,-2.668,-2.6618,-2.6576,0.0,0.0,-2.5384,-2.5364,-2.4554,-2.4094,-2.4075,0.0,0.0,-2.2443,0.0,-2.1251,-2.197,-2.1766,-2.2146,-2.2867,-2.2552,-2.2405,-2.2445,-2.3117,-2.3376,-2.346,-2.4218,-2.4002,-2.3376,-2.3376,-2.2919,-2.231,-2.231,-2.231,-2.2209,-2.1764,-2.1477,-2.1197,-2.0763,-2.0679,-2.0728,-2.0407,-2.0304,-2.0304,-2.0304,-2.0304,-2.0304,-2.0304,-2.0185,-2.008,-1.999,-2.0005,-1.9884,-1.9479,-1.9406,-1.8928,-1.7534,0.0,0.0,0.0,0.0,0.0,0.0,-1.4106,-1.3261,-1.3822,0.0,0.0,0.0,0.0,0.0,0.0,0.0,0.0,-1.2167,-1.3161,0.0,-1.3696,-1.4155,-1.4373,-1.4373,-1.4373,-1.4373,-1.4373,-1.4373,-1.4908,-1.5785,-1.5785,-1.6383,-1.7278,-1.7278,-1.7278,-1.7278,-1.7278,-1.7278,-1.7278,-1.7278,-1.7278,-1.7355,-3.0176,-3.0113,-3.0094,-3.0309,-3.0241,-3.0122,-3.0013,-2.9939,-2.9912,-2.9896,-2.9851,-2.9542,-2.8857,-2.8166,-2.7751,0.0,-2.7113,-2.6779,0.0,-2.6737,-2.6755,-2.6755,-2.6497,-2.6329,-2.6291,-2.6013,-2.5568,-2.4977,0.0,0.0,0.0,-2.27,-2.2696,-2.3097,-2.3419,-2.3586,-2.3676,-2.4126,-2.4144,-2.3918,-2.4126,-2.4198,-2.4201,-2.4421,-2.4371,-2.4137,-2.4137,-2.3985,-2.3799,-2.3799,-2.3799,-2.3782,-2.3627,-2.2698,-2.157,-2.1197,-2.0942,-2.0794,-2.0662,-2.046,-2.0304,-2.0304,-2.0304,-2.0304,-2.0304,-2.027,-2.0235,-2.02,-2.02,-2.0166,-2.0045,-2.001,-1.9687,-1.87,0.0,0.0,0.0,0.0,0.0,0.0,-1.4897,-1.4219,0.0,-1.3443,0.0,0.0,0.0,0.0,0.0,0.0,0.0,0.0,-1.3008,0.0,-1.3696,-1.4144,-1.4373,-1.4373,-1.4373,-1.4373,-1.4395,-1.4722,-1.5225,-1.5807,-1.6164,-1.6677,-1.7278,-1.7278,-1.7278,-1.7278,-1.7278,-1.7278,-1.7278,-1.7278,-1.7278,-1.7387,-3.0749,-3.0622,-3.0518,-3.0509,-3.0413,-3.0314,-3.0234,-3.0171,-3.0117,-3.0103,-3.0047,-2.9958,-2.9829,-2.9261,0.0,-2.8606,-2.8063,-2.7744,-2.7742,-2.7721,-2.7703,-2.7703,-2.7426,-2.7218,-2.7138,0.0,0.0,-2.5841,-2.5345,-2.4965,-2.4683,-2.4226,-2.4244,-2.4701,-2.4944,-2.4942,-2.4845,-2.5218,-2.525,-2.5034,-2.52,-2.5232,-2.5206,-2.5377,-2.5246,-2.4961,-2.5009,-2.4822,-2.4537,-2.4584,-2.4615,-2.4584,-2.4382,-2.3634,-2.2695,-2.1952,-2.1455,-2.1126,-2.0857,-2.0561,-2.0339,-2.0475,-2.0407,-2.0304,-2.0304,-2.0304,-2.0304,-2.0304,-2.0304,-2.0304,-2.0304,-2.02,-1.9869,-1.9213,0.0,-1.8525,-1.7882,0.0,0.0,0.0,0.0,0.0,0.0,-1.4761,0.0,0.0,0.0,0.0,0.0,0.0,0.0,-1.2331,-1.339,0.0,-1.3947,-1.4231,-1.4373,-1.4373,-1.4373,-1.4373,-1.4395,-1.4886,-1.5378,-1.5807,-1.6317,-1.6809,-1.7278,-1.7278,-1.7278,-1.7278,-1.7278,-1.7278,-1.7278,-1.7278,-1.7278,-1.7387,-3.0799,-3.0739,0.0,0.0,-3.0649,0.0,-3.0604,-3.0441,-3.0321,-3.0317,-3.0164,-3.0042,-3.0028,-3.0028,-2.9861,-2.9493,0.0,0.0,0.0,-2.9243,-2.9222,-2.92,-2.8498,0.0,-2.7985,-2.7269,-2.6825,-2.6686,-2.5878,-2.5821,-2.649,-2.5743,-2.5798,-2.6508,-2.6309,-2.624,-2.6281,-2.6014,-2.589,-2.5893,-2.6262,-2.6406,-2.6417,-2.6877,-2.6531,-2.5805,-2.5917,-2.5456,-2.4798,-2.4923,-2.497,-2.4863,-2.4391,-2.4437,-2.4428,-2.2834,-2.2112,-2.1679,-2.0984,-2.0561,-2.0373,-2.0695,-2.0527,-2.0304,-2.0304,-2.0304,-2.0304,-2.0304,-2.0304,-2.0304,-2.0304,-1.9975,-1.9581,-1.9176,-1.8745,-1.8358,-1.7963,0.0,0.0,0.0,0.0,0.0,0.0,-1.6012,-1.59,0.0,0.0,0.0,0.0,0.0,-1.2981,-1.3751,-1.4178,-1.4477,-1.4477,-1.4477,-1.4477,-1.4477,-1.4477,-1.4477,-1.4488,-1.4967,-1.54,-1.5858,-1.6361,-1.6841,-1.7278,-1.7278,-1.7278,-1.7278,-1.7278,-1.7278,-1.7278,-1.7278,-1.7278,-1.7355,0.0,0.0,-3.0697,-3.0698,-3.0683,-3.0665,-3.0602,-3.0548,-3.053,-3.0539,-3.0501,-3.0411,-3.0321,-3.0273,-3.0136,-2.9877,-2.9799,-2.9697,-2.9551,-2.9513,-2.9454,-2.9347,-2.918,-2.9026,-2.8963,-2.8778,-2.8329,-2.7595,-2.6744,-2.641,-2.6573,-2.6371,-2.6389,-2.6609,-2.7153,-2.7273,-2.7145,-2.7694,-2.7751,-2.7459,-2.7571,-2.7414,-2.7165,-2.7265,-2.7046,-2.6702,-2.6751,-2.6599,-2.6446,-2.6478,-2.6478,-2.6446,-2.6332,-2.6134,-2.5481,-2.303,-2.2312,-2.2035,-2.1083,-2.0561,-2.0304,-2.0407,-2.0373,-2.0304,-2.0304,-2.0304,-2.0304,-2.0304,-2.0304,-2.0304,-2.0304,-1.9975,-1.9581,-1.9176,-1.8745,-1.8358,-1.7963,0.0,0.0,0.0,-1.6704,-1.642,-1.6109,-1.6894,-1.6663,0.0,0.0,0.0,0.0,0.0,-1.4182,-1.4221,-1.471,-1.4926,-1.4926,-1.4926,-1.4926,-1.4926,-1.4926,-1.4926,-1.496,-1.565,-1.602,-1.6125,-1.684,-1.7169,-1.7278,-1.7278,-1.7278,-1.7278,-1.7278,-1.7278,-1.7278,-1.7278,-1.7278,-1.7398,-3.0794,-3.0778,-3.076,-3.075,-3.0724,-3.0683,-3.0649,-3.0626,-3.0602,-3.0602,-3.0593,-3.0567,-3.0492,-3.0451,-3.0378,-3.0278,-3.0061,-2.9896,-2.9801,-2.9784,-2.975,-2.9681,-2.9626,-2.957,-2.9433,-2.9412,-2.9087,-2.8489,-2.7656,-2.7432,-2.7782,-2.7371,-2.739,-2.7757,-2.8154,-2.8288,-2.8166,-2.8585,-2.8651,-2.8456,-2.8326,-2.8147,-2.7936,-2.7794,-2.7607,-2.7461,-2.7355,-2.7293,-2.7261,-2.7169,-2.7154,-2.7072,-2.6842,-2.6758,-2.6303,-2.4081,-2.3108,-2.2618,-2.1891,-2.1031,-2.0392,-2.0392,-2.0373,-2.0354,-2.0354,-2.0304,-2.0304,-2.0304,-2.0304,-2.0304,-2.0304,-1.9975,-1.9581,-1.9176,-1.8745,-1.8358,-1.7963,-1.7366,0.0,-1.7366,-1.7163,-1.6973,-1.6932,-1.7502,-1.7303,-1.5891,0.0,0.0,-1.5303,-1.5235,-1.5132,-1.4946,-1.5048,-1.5108,-1.5108,-1.5108,-1.5108,-1.5108,-1.5108,-1.5108,-1.5142,-1.5969,-1.6373,-1.6429,-1.7167,-1.749,-1.749,-1.7334,-1.7278,-1.7278,-1.7278,-1.7278,-1.7278,-1.7278,-1.7278,-1.7387,-3.0801,-3.081,-3.0798,-3.0798,-3.0755,-3.0704,-3.0698,-3.0656,-3.0626,-3.0618,-3.061,-3.061,-3.061,-3.0613,-3.0595,-3.0607,-3.0285,-3.008,-3.0037,-3.0037,-3.0022,-2.9992,-2.9962,-2.9832,-2.9644,-2.9551,-2.9397,-2.9218,-2.8516,-2.8535,-2.9181,-2.8452,-2.8445,-2.9108,-2.904,-2.9017,-2.9017,-2.9017,-2.9017,-2.8975,-2.8743,-2.8601,-2.8482,-2.821,-2.7992,-2.7858,-2.7701,-2.7612,-2.7539,-2.7376,-2.7299,-2.7218,-2.6774,-2.6873,-2.6869,-2.5547,-2.439,-2.345,-2.2834,-2.1665,-2.0545,-2.0527,-2.0475,-2.0423,-2.0423,-2.0339,-2.0304,-2.0304,-2.0304,-2.0304,-2.0304,-1.9975,-1.9581,-1.925,-1.886,-1.8436,-1.8029,0.0,-1.739,-1.7868,-1.7434,-1.7326,-1.7828,-1.7882,-1.7747,-1.7447,-1.7157,0.0,0.0,-1.6163,-1.5957,-1.5888,-1.5457,-1.5198,-1.5198,-1.5198,-1.5198,-1.5198,-1.5198,-1.5198,-1.5233,-1.6132,-1.6604,-1.6681,-1.7356,-1.7688,-1.7767,-1.749,-1.739,-1.739,-1.739,-1.739,-1.7334,-1.7334,-1.7334,-1.74,-3.0801,-3.081,-3.0798,-3.0798,-3.0793,-3.0764,-3.0703,-3.0691,-3.0678,-3.069,-3.0688,-3.0673,-3.0673,-3.0637,-3.0593,-3.0595,-3.054,-3.0411,-3.0171,-3.0177,-3.0122,-3.0007,-2.9992,-2.9927,-2.9864,-2.9606,-2.9435,-2.9283,-2.9111,-2.9089,-2.92,-2.9049,-2.9045,-2.9089,-2.9108,-2.9067,-2.9085,-2.9017,-2.904,-2.9085,-2.8975,-2.8633,-2.8156,-2.8129,-2.7829,-2.739,-2.7376,-2.7345,-2.7345,-2.7313,-2.7299,-2.7299,-2.7201,-2.7218,-2.7233,-2.6967,-2.6111,-2.4859,-2.3093,-2.1795,-2.0845,-2.0579,-2.0494,-2.0494,-2.0494,-2.0441,-2.0388,-2.0388,-2.0339,-2.0304,-2.0304,-1.9975,-1.969,-1.9617,-1.9273,-1.8874,0.0,0.0,-1.8182,-1.7949,-1.7801,-1.7787,-1.7868,-1.7882,-1.7747,-1.7447,-1.7352,-1.7323,-1.7227,-1.6905,-1.6863,-1.7089,-1.6207,-1.5703,-1.5703,-1.5703,-1.5703,-1.5703,-1.5703,-1.5703,-1.5715,-1.6103,-1.6512,-1.6945,-1.722,-1.7619,-1.803,-1.7975,-1.781,-1.7656,-1.7656,-1.7656,-1.7601,-1.739,-1.7434,-1.7679,-3.0816,-3.0792,-3.0808,-3.0794,-3.0804,-3.0786,-3.075,-3.0714,-3.0691,-3.0697,-3.0703,-3.0695,-3.0695,-3.068,-3.0637,-3.0657,-3.0621,-3.0558,-3.0422,-3.0419,-3.0386,-3.0328,-3.0285,-3.0203,-3.0075,-2.9861,-2.9731,-2.9681,-2.9551,-2.9474,-2.9474,-2.9328,-2.924,-2.9197,-2.9175,-2.9156,-2.9156,-2.9112,-2.9089,-2.9108,-2.9085,-2.8863,-2.8583,-2.8583,-2.8352,-2.7989,-2.7818,-2.7642,-2.7496,-2.7345,-2.7299,-2.7299,-2.7299,-2.7299,-2.7299,-2.7299,-2.649,-2.5186,-2.3285,-2.2406,-2.1842,-2.1102,-2.0861,-2.0795,-2.0628,-2.0543,-2.0441,-2.0441,-2.0407,-2.0354,-2.0354,-2.0166,-1.994,-1.9726,-1.953,0.0,0.0,-1.863,-1.8436,-1.8254,-1.8029,-1.7882,-1.7882,-1.7882,-1.7842,-1.7666,-1.7488,-1.7393,-1.7393,-1.7073,-1.696,-1.7115,-1.6423,-1.6001,-1.5792,-1.5792,-1.5792,-1.5792,-1.5792,-1.5792,-1.5816,-1.6252,-1.6717,-1.7252,-1.7459,-1.7868,-1.8356,-1.8193,-1.803,-1.7931,-1.7931,-1.7931,-1.7931,-1.7767,-1.7822,-1.791,-3.08,-3.0801,-3.0801,-3.0795,-3.0792,-3.0806,-3.0798,-3.0759,-3.0711,-3.071,-3.0698,-3.0691,-3.0697,-3.0695,-3.0707,-3.07,-3.0645,-3.0621,-3.0604,-3.0606,-3.0607,-3.0598,-3.053,-3.0419,-3.0228,-3.0109,-3.0037,-2.9992,-2.9853,-2.9769,-2.9769,-2.9512,-2.937,-2.9368,-2.9283,-2.9222,-2.9218,-2.9218,-2.9178,-2.9152,-2.9112,-2.9021,-2.8947,-2.8905,-2.8743,-2.8456,-2.8183,-2.7982,-2.7742,-2.7465,-2.739,-2.739,-2.7313,-2.7299,-2.7299,-2.7299,-2.6676,-2.5567,-2.3569,-2.3012,-2.2737,-2.1689,-2.1339,-2.1197,-2.0893,-2.0728,-2.0646,-2.0561,-2.0475,-2.0407,-2.0407,-2.0373,-2.027,-1.994,0.0,0.0,0.0,-1.902,-1.8755,-1.8616,-1.8293,-1.8029,-1.7963,-1.7963,-1.7963,-1.7882,-1.7693,-1.757,-1.7529,-1.7295,-1.7086,-1.7002,-1.6637,-1.6281,-1.5913,-1.5913,-1.5869,-1.5792,-1.5792,-1.5792,-1.5804,-1.6212,-1.6751,-1.7387,-1.7645,-1.8076,-1.8667,-1.841,-1.8302,-1.8193,-1.8193,-1.8193,-1.8193,-1.8139,-1.8139,-1.8193,-3.0804,-3.0792,-3.0797,-3.0798,-3.0798,-3.08,-3.08,-3.0799,-3.0769,-3.0704,-3.0706,-3.07,-3.0697,-3.069,-3.0703,-3.07,-3.07,-3.0665,-3.0602,-3.0604,-3.0606,-3.0598,-3.053,-3.043,-3.0304,-3.0216,-3.0117,-2.9992,-2.9977,-2.9977,-2.9977,-2.9769,-2.9645,-2.957,-2.937,-2.9302,-2.9302,-2.924,-2.924,-2.9262,-2.9152,-2.8952,-2.8718,-2.8669,-2.843,-2.8129,-2.8102,-2.8102,-2.802,-2.7771,-2.7672,-2.763,-2.7376,-2.7299,-2.7299,-2.7299,-2.7247,-2.6602,-2.4041,-2.3342,-2.3114,-2.2023,-2.1751,-2.1661,-2.134,-2.1214,-2.1071,-2.0744,-2.0577,-2.0494,-2.0494,-2.0494,-2.0494,-2.046,0.0,0.0,-1.9899,-1.9829,-1.9579,-1.893,-1.8693,-1.8436,-1.8189,-1.8163,-1.8083,-1.7922,-1.8043,-1.8069,-1.7882,-1.7842,-1.7666,-1.7352,-1.7031,-1.6693,-1.6269,-1.6269,-1.6107,-1.5792,-1.5792,-1.5792,-1.5792,-1.5828,-1.6404,-1.7412,-1.7411,-1.7998,-1.8987,-1.8934,-1.8774,-1.856,-1.856,-1.856,-1.8506,-1.8193,-1.8302,-1.8506,-3.0732,-3.0762,-3.0791,-3.0795,-3.0792,-3.0793,-3.0801,-3.0801,-3.0779,-3.0708,-3.0738,-3.0768,-3.0755,-3.0721,-3.0709,-3.0703,-3.0704,-3.0688,-3.0665,-3.0665,-3.0632,-3.0598,-3.0588,-3.054,-3.049,-3.0449,-3.0428,-3.0364,-3.0248,-3.0196,-3.0182,-2.9977,-2.9851,-2.9782,-2.9715,-2.9608,-2.9474,-2.9454,-2.9392,-2.9302,-2.924,-2.9152,-2.9021,-2.898,-2.8761,-2.8478,-2.8464,-2.8334,-2.8129,-2.801,-2.7954,-2.7897,-2.7612,-2.7539,-2.7526,-2.7345,-2.7299,-2.6957,-2.5489,-2.4756,-2.4001,-2.2428,-2.2039,-2.1953,-2.1661,-2.1601,-2.1479,-2.1151,-2.099,-2.0877,-2.0677,-2.0561,-2.0494,-2.0494,0.0,-2.0444,-2.0292,-2.0054,-1.9829,-1.9528,-1.908,-1.8831,-1.8855,-1.8567,-1.8411,-1.85,-1.8464,-1.8321,-1.8083,-1.7963,-1.7842,-1.7706,-1.7584,-1.7253,-1.6693,-1.668,-1.6607,-1.6491,-1.6491,-1.6349,-1.6107,-1.6349,-1.6759,-1.7247,-1.7815,-1.835,-1.8839,-1.9221,-1.9146,-1.8827,-1.8827,-1.8827,-1.8827,-1.8732,-1.8721,-1.8774,-3.0664,-3.0725,-3.0769,-3.0771,-3.0791,-3.0794,-3.0792,-3.0795,-3.0779,-3.0742,-3.076,-3.0797,-3.0774,-3.0752,-3.0732,-3.0732,-3.074,-3.0722,-3.0704,-3.0695,-3.0676,-3.0606,-3.0607,-3.0598,-3.0588,-3.0598,-3.0598,-3.0598,-3.0469,-3.0394,-3.0394,-3.0196,-3.0066,-3.0018,-2.9943,-2.9832,-2.9697,-2.968,-2.972,-2.9762,-2.9781,-2.9845,-2.9961,-2.968,-2.9421,-2.9185,-2.8936,-2.8725,-2.8489,-2.8334,-2.8281,-2.8228,-2.7926,-2.7829,-2.7771,-2.7496,-2.7421,-2.7217,-2.6346,-2.573,-2.4913,-2.3153,-2.2518,-2.2281,-2.1998,-2.1928,-2.184,-2.1526,-2.134,-2.1151,-2.0941,-2.0728,-2.0595,-2.0595,-2.0595,-2.0595,-2.0595,-2.0361,-2.0158,-2.0054,-1.9522,-1.9229,-1.9413,-1.8997,-1.8822,-1.9006,-1.8846,-1.862,-1.8321,-1.8083,-1.8003,-1.8003,-1.7922,-1.7679,-1.7212,-1.7128,-1.7002,-1.6876,-1.6876,-1.6735,-1.6509,-1.6778,-1.7041,-1.7293,-1.8122,-1.8646,-1.8933,-1.9534,-1.9617,-1.9356,-1.9356,-1.9356,-1.9356,-1.9251,-1.9198,-1.9146,-3.0602,-3.0651,-3.0703,-3.0703,-3.0764,-3.0799,-3.0799,-3.0793,-3.0798,-3.0808,-3.0795,-3.076,-3.07,-3.0754,-3.079,-3.079,-3.0804,-3.0768,-3.0706,-3.0691,-3.0673,-3.061,-3.0606,-3.0588,-3.0595,-3.0597,-3.0598,-3.0598,-3.0598,-3.0598,-3.0598,-3.0406,-3.0304,-3.0304,-3.0037,-2.9912,-2.9931,-2.9918,-3.0277,-3.0809,-3.0807,-3.1169,-3.1598,-3.0738,-3.0401,-3.029,-2.9496,-2.9218,-2.9156,-2.8815,-2.8694,-2.8626,-2.821,-2.8102,-2.8047,-2.7771,-2.7701,-2.7467,-2.6407,-2.6109,-2.5747,-2.4184,-2.3237,-2.2632,-2.2292,-2.2192,-2.2124,-2.1869,-2.1556,-2.1309,-2.1309,-2.1023,-2.0794,-2.0794,-2.0794,-2.0794,-2.0794,-2.0794,-2.0679,-2.0444,-1.9995,-1.9726,-1.9726,-1.9406,-1.9229,-1.931,-1.9229,-1.8997,-1.8517,-1.8321,-1.8202,-1.8202,-1.8003,-1.7882,-1.7882,-1.757,-1.724,-1.6918,-1.6918,-1.6918,-1.6876,-1.6918,-1.717,-1.7607,-1.8214,-1.8823,-1.9338,-1.9939,-2.0182,-2.0182,-2.0182,-2.0182,-2.0131,-1.9759,-1.9617,-1.9512,-3.0567,-3.0618,-3.0637,-3.0685,-3.0716,-3.0734,-3.0734,-3.0774,-3.0793,-3.0806,-3.0798,-3.0788,-3.0777,-3.0796,-3.0801,-3.0801,-3.0796,-3.0782,-3.0768,-3.0732,-3.0687,-3.0664,-3.0622,-3.0613,-3.0593,-3.0613,-3.0604,-3.0604,-3.0595,-3.0606,-3.0606,-3.1129,-3.1339,-3.1386,-3.1908,-3.2039,-3.1862,-3.1847,-3.1892,-3.1918,-3.1919,-3.2033,-3.2147,-3.1764,-3.1233,-3.0689,-3.0275,-2.9743,-2.924,-2.9089,-2.9021,-2.8929,-2.8558,-2.8281,-2.8102,-2.8047,-2.7869,-2.7648,-2.7362,-2.6718,-2.5747,-2.4184,-2.3615,-2.3323,-2.2691,-2.2544,-2.2409,-2.1899,-2.1738,-2.1509,-2.1055,-2.086,-2.0794,-2.0794,-2.0794,-2.0794,-2.0794,-2.0794,-2.0761,-2.0695,-2.0376,-2.0204,-2.0204,-1.9732,-1.9442,-1.9427,-1.9109,-1.886,-1.8721,-1.8503,-1.84,-1.84,-1.8242,-1.8123,-1.8123,-1.7868,-1.7706,-1.7584,-1.7584,-1.7461,-1.7282,-1.7502,-1.7553,-1.7542,-1.8817,-1.9258,-1.9178,-2.0205,-2.0472,-2.0182,-2.0182,-2.0182,-2.0182,-2.008,-1.9823,-1.9552,-3.0451,-3.0549,-3.061,-3.0642,-3.0672,-3.0703,-3.0703,-3.0764,-3.0799,-3.0799,-3.0808,-3.0793,-3.0793,-3.0807,-3.094,-3.1274,-3.1308,-3.1306,-3.1305,-3.0943,-3.0888,-3.1242,-3.1203,-3.1028,-3.0637,-3.061,-3.0757,-3.1114,-3.1108,-3.1292,-3.165,-3.2097,-3.2309,-3.2338,-3.2868,-3.3006,-3.2859,-3.2827,-3.2891,-3.2978,-3.2978,-3.3156,-3.3353,-3.2864,-3.2204,-3.1412,-3.0858,-3.012,-2.9411,-2.9283,-2.9197,-2.9089,-2.8863,-2.8658,-2.8489,-2.8386,-2.8228,-2.8083,-2.7982,-2.7459,-2.6637,-2.5255,-2.4358,-2.3667,-2.3219,-2.2919,-2.2605,-2.2215,-2.2056,-2.1794,-2.1293,-2.1087,-2.0958,-2.0827,-2.0794,-2.0794,-2.0794,-2.0794,-2.0794,-2.0794,-2.0545,-2.0444,-2.0545,-2.012,-1.9874,-1.9874,-1.9588,-1.9332,-1.9087,-1.8898,-1.8721,-1.862,-1.8425,-1.8321,-1.8321,-1.8202,-1.8043,-1.7882,-1.7882,-1.7788,-1.7611,-1.7788,-1.7788,-1.7665,-1.8814,-1.9324,-1.9368,-2.0287,-2.066,-2.0673,-2.0673,-2.0673,-2.0673,-2.0523,-2.0169,-1.9811,-3.0356,-3.0488,-3.0597,-3.0645,-3.0668,-3.0685,-3.0685,-3.0739,-3.0799,-3.0799,-3.0799,-3.0838,-3.0916,-3.093,-3.1265,-3.2143,-3.2226,-3.2223,-3.2223,-3.1463,-3.1376,-3.2176,-3.2215,-3.1815,-3.095,-3.0874,-3.1227,-3.2034,-3.2027,-3.2425,-3.32,-3.3209,-3.3228,-3.3228,-3.3304,-3.3332,-3.3321,-3.3261,-3.3539,-3.4059,-3.4059,-3.4413,-3.4868,-3.4053,-3.3238,-3.2424,-3.1393,-3.0471,-2.9683,-2.9409,-2.9283,-2.9222,-2.9134,-2.9112,-2.9044,-2.8767,-2.8676,-2.8626,-2.8308,-2.8219,-2.8013,-2.6986,-2.538,-2.4016,-2.385,-2.3271,-2.2771,-2.2676,-2.2419,-2.2124,-2.184,-2.1526,-2.1183,-2.0893,-2.0827,-2.0794,-2.0794,-2.0794,-2.0794,-2.0794,-2.0579,-2.0512,-2.0761,-2.0512,-2.0376,-2.0376,-2.0376,-2.0135,-1.9566,-1.9369,-1.9147,-1.8898,-1.8697,-1.8542,-1.8542,-1.8517,-1.8321,-1.7922,-1.7922,-1.7922,-1.7882,-1.7882,-1.7882,-1.7909,-1.8548,-1.9089,-1.9659,-2.0238,-2.0806,-2.1342,-2.1396,-2.1423,-2.1375,-2.1006,-2.061,-2.0182,-3.0929,-3.0688,-3.0515,-3.1059,-3.0813,-3.0539,-3.0539,-3.0644,-3.0709,-3.0709,-3.0769,-3.1057,-3.1739,-3.1822,-3.2177,-3.3039,-3.3119,-3.311,-3.311,-3.2943,-3.2897,-3.3025,-3.3085,-3.3006,-3.2748,-3.2723,-3.2804,-3.3006,-3.2951,-3.3012,-3.3206,-3.3819,-3.411,-3.4148,-3.4825,-3.5102,-3.506,-3.504,-3.5121,-3.5233,-3.5168,-3.527,-3.5397,-3.5005,-3.435,-3.3494,-3.2438,-3.1517,-3.0634,-2.9758,-2.9456,-2.9397,-2.9225,-2.9178,-2.9156,-2.9134,-2.8938,-2.8646,-2.842,-2.8183,-2.7929,-2.7667,-2.6886,-2.5745,-2.4175,-2.3667,-2.332,-2.2466,-2.2248,-2.2124,-2.184,-2.1526,-2.1277,-2.1183,-2.0958,-2.0794,-2.0794,-2.0794,-2.0794,-2.0794,-2.0761,-2.0646,-2.0512,-2.0254,-2.0096,-2.0096,-2.0096,-2.0025,-1.9884,-1.9848,-1.9812,-1.9741,-1.931,-1.9035,-1.9035,-1.8683,-1.84,-1.8123,-1.8123,-1.8043,-1.7882,-1.7882,-1.7882,-1.7909,-1.8548,-1.8888,-1.9092,-2.0093,-2.0562,-2.0725,-2.1247,-2.1423,-2.1375,-2.1313,-2.1019,-2.061,-3.0468,-3.0424,-3.0381,-3.0762,-3.0585,-3.04,-3.04,-3.0491,-3.056,-3.056,-3.0917,-3.136,-3.1814,-3.2264,-3.2921,-3.3885,-3.3989,-3.4023,-3.4023,-3.3641,-3.3574,-3.3941,-3.4005,-3.4173,-3.4531,-3.4544,-3.4335,-3.3913,-3.3854,-3.4039,-3.4445,-3.4836,-3.502,-3.503,-3.5503,-3.5676,-3.5643,-3.5643,-3.5631,-3.5596,-3.5565,-3.5572,-3.5591,-3.543,-3.4864,-3.4005,-3.2966,-3.1702,-3.0416,-2.9793,-2.957,-2.9514,-2.9307,-2.924,-2.924,-2.924,-2.9115,-2.8966,-2.885,-2.8713,-2.854,-2.821,-2.7853,-2.7059,-2.5103,-2.4366,-2.3789,-2.2708,-2.2446,-2.2337,-2.2056,-2.1853,-2.1675,-2.1556,-2.1386,-2.123,-2.1055,-2.1023,-2.099,-2.0827,-2.0794,-2.0761,-2.0613,-2.046,-2.0373,-2.0373,-2.0373,-2.0339,-2.02,-2.0185,-2.0131,-1.999,-1.9726,-1.9566,-1.9566,-1.9161,-1.8874,-1.8669,-1.8464,-1.8282,-1.8202,-1.8202,-1.8123,-1.8057,-1.8371,-1.8631,-1.8888,-1.9754,-2.0251,-2.0549,-2.1131,-2.1423,-2.1423,-2.1423,-2.1166,-2.0759,-3.0127,-3.0171,-3.0199,-3.0385,-3.0331,-3.0278,-3.0278,-3.0329,-3.0372,-3.0372,-3.1086,-3.1664,-3.1819,-3.2772,-3.379,-3.4683,-3.4828,-3.4876,-3.49,-3.4233,-3.4144,-3.487,-3.4909,-3.522,-3.5888,-3.5911,-3.5565,-3.4818,-3.4764,-3.512,-3.5815,-3.5752,-3.5735,-3.5736,-3.5708,-3.5708,-3.5707,-3.5706,-3.5673,-3.5612,-3.5601,-3.5608,-3.5616,-3.5604,-3.514,-3.4376,-3.3256,-3.1632,-2.9973,-2.9834,-2.9734,-2.9626,-2.9412,-2.9326,-2.9323,-2.9262,-2.9262,-2.9302,-2.9262,-2.9283,-2.92,-2.8639,-2.8496,-2.8005,-2.6129,-2.5116,-2.4206,-2.3067,-2.2764,-2.2642,-2.2347,-2.2248,-2.2124,-2.1882,-2.184,-2.1708,-2.1433,-2.1371,-2.1277,-2.1007,-2.0925,-2.086,-2.0794,-2.0794,-2.0794,-2.0794,-2.0794,-2.0679,-2.0478,-2.0478,-2.0357,-2.0131,-2.0096,-2.0061,-2.0061,-1.9675,-1.9406,-1.9258,-1.8798,-1.8556,-1.8517,-1.8517,-1.84,-1.8242,-1.8242,-1.8438,-1.8781,-1.941,-1.9898,-2.0356,-2.105,-2.1274,-2.1287,-2.1382,-2.1166,-2.0858,-3.1523,-3.0787,-3.0148,-3.0784,-3.0475,-3.0118,-3.0118,-3.0228,-3.0317,-3.0317,-3.1064,-3.1896,-3.264,-3.4137,-3.5187,-3.5437,-3.5532,-3.5621,-3.573,-3.5624,-3.5602,-3.5738,-3.5729,-3.5797,-3.5903,-3.5951,-3.5909,-3.5725,-3.5718,-3.5767,-3.59,-3.5888,-3.5864,-3.588,-3.582,-3.5753,-3.569,-3.5708,-3.5687,-3.5673,-3.5612,-3.5631,-3.5673,-3.5631,-3.5523,-3.5234,-3.3627,-3.1915,-3.0394,-3.0196,-3.0007,-2.9832,-2.9607,-2.9472,-2.9386,-2.9386,-2.9386,-2.9344,-2.9112,-2.9067,-2.9026,-2.8938,-2.8915,-2.8448,-2.6558,-2.5575,-2.4679,-2.3172,-2.2842,-2.2764,-2.2721,-2.2429,-2.2192,-2.2136,-2.194,-2.1781,-2.1738,-2.1738,-2.1738,-2.1661,-2.1402,-2.1119,-2.0827,-2.0794,-2.0794,-2.0794,-2.0794,-2.0794,-2.0761,-2.0761,-2.0728,-2.0695,-2.0494,-2.0342,-2.0342,-1.9767,-1.9479,-1.9457,-1.9176,-1.8851,-1.8517,-1.8517,-1.8478,-1.8478,-1.8478,-1.8481,-1.8567,-1.9182,-1.9364,-1.9417,-2.0529,-2.0817,-2.0671,-2.1233,-2.1375,-2.1326,-3.0505,-3.0207,-2.9937,-3.0279,-3.0154,-2.9984,-2.9984,-3.0041,-3.008,-3.008,-3.1236,-3.2187,-3.2569,-3.4223,-3.5334,-3.5476,-3.5527,-3.5562,-3.567,-3.5678,-3.5696,-3.5724,-3.5779,-3.5781,-3.5781,-3.5894,-3.5939,-3.5908,-3.5898,-3.5891,-3.5893,-3.589,-3.5907,-3.59,-3.588,-3.5821,-3.5766,-3.5762,-3.576,-3.5753,-3.571,-3.5729,-3.5757,-3.5729,-3.5687,-3.5447,-3.3761,-3.2319,-3.1137,-3.0475,-3.0171,-3.0047,-2.9883,-2.9767,-2.9698,-2.9608,-2.957,-2.9512,-2.9286,-2.9222,-2.9178,-2.9026,-2.9003,-2.8512,-2.664,-2.5955,-2.523,-2.3342,-2.2902,-2.2825,-2.2816,-2.2651,-2.2527,-2.249,-2.2381,-2.2243,-2.2056,-2.201,-2.1969,-2.1811,-2.1678,-2.1464,-2.1119,-2.1087,-2.099,-2.0827,-2.0794,-2.0794,-2.0794,-2.0794,-2.0794,-2.0794,-2.0695,-2.0613,-2.0613,-2.0189,-1.998,-1.998,-1.9726,-1.9398,-1.9064,-1.9064,-1.9101,-1.9176,-1.9176,-1.9011,-1.8788,-1.939,-1.9498,-1.9391,-2.0573,-2.1116,-2.1246,-2.152,-2.152,-2.1423]},{"header":{"parameterUnit":"m.s-1","parameterCategory":1,"la1":30.6,"la2":28.766,"lo1":-90.7593,"lo2":-88.6598,"dy":0.0162,"dx":0.0183,"nx":116,"ny":114,"refTime":"2024-05-24T06:00:00:Z","depth":0,"parameterNumber":3,"parameterNumberName":"V-component_of_WINDS"},"data":[0.0,0.0,0.0,0.0,0.0,0.0,0.0,0.0,0.0,0.0,0.0,0.0,0.0,0.0,0.0,0.0,0.0,0.0,0.0,0.0,0.0,0.0,0.0,0.0,0.0,0.0,0.0,0.0,0.0,0.0,0.0,0.0,0.0,0.0,0.0,0.0,0.0,0.0,0.0,0.0,0.0,0.0,0.0,0.0,0.0,0.0,0.0,0.0,0.0,0.0,0.0,0.0,0.0,0.0,0.0,0.0,0.0,0.0,0.0,0.0,0.0,0.0,0.0,0.0,0.0,0.0,0.0,0.0,0.0,0.0,0.0,0.0,0.0,0.0,0.0,0.0,0.0,0.0,0.0,0.0,0.0,0.0,0.0,0.0,0.0,0.0,0.0,0.0,0.0,0.0,0.0,0.0,0.0,0.0,0.0,0.0,0.0,0.0,0.0,0.0,0.0,0.0,0.0,0.0,0.0,0.0,0.0,0.0,0.0,0.0,0.0,0.0,0.0,0.0,0.0,0.0,0.0,0.0,0.0,0.0,0.0,0.0,0.0,0.0,0.0,0.0,0.0,0.0,0.0,0.0,0.0,0.0,0.0,0.0,0.0,0.0,0.0,0.0,0.0,0.0,0.0,0.0,0.0,0.0,0.0,0.0,0.0,0.0,0.0,0.0,0.0,0.0,0.0,0.0,0.0,0.0,0.0,0.0,0.0,0.0,0.0,0.0,0.0,0.0,0.0,0.0,0.0,0.0,0.0,0.0,0.0,0.0,0.0,0.0,0.0,0.0,0.0,0.0,0.0,0.0,0.0,0.0,0.0,0.0,0.0,0.0,0.0,0.0,0.0,0.0,0.0,0.0,0.0,0.0,0.0,0.0,0.0,0.0,0.0,0.0,0.0,0.0,0.0,0.0,0.0,0.0,0.0,0.0,0.0,0.0,0.0,0.0,0.0,0.0,0.0,0.0,0.0,0.0,0.0,0.0,0.0,0.0,0.0,0.0,0.0,0.0,0.0,0.0,0.0,0.0,0.0,0.0,0.0,0.0,0.0,0.0,0.0,0.0,0.0,0.0,0.0,0.0,0.0,0.0,0.0,0.0,0.0,0.0,0.0,0.0,0.0,0.0,0.0,0.0,0.0,0.0,0.0,0.0,0.0,0.0,0.0,0.0,0.0,0.0,0.0,0.0,0.0,0.0,0.0,0.0,0.0,0.0,0.0,0.0,0.0,0.0,0.0,0.0,0.0,0.0,0.0,0.0,0.0,0.0,0.0,0.0,0.0,0.0,0.0,0.0,0.0,0.0,0.0,0.0,0.0,0.0,0.0,0.0,0.0,0.0,0.0,0.0,0.0,0.0,0.0,0.0,0.0,0.0,0.0,0.0,0.0,0.0,0.0,0.0,0.0,0.0,0.0,0.0,0.0,0.0,0.0,0.0,0.0,0.0,0.0,0.0,0.0,0.0,0.0,0.0,0.0,0.0,0.0,0.0,0.0,0.0,0.0,0.0,0.0,0.0,0.0,0.0,0.0,0.0,0.0,0.0,0.0,0.0,0.0,0.0,0.0,0.0,0.0,0.0,0.0,0.0,0.0,0.0,0.0,0.0,0.0,0.0,0.0,0.0,0.0,0.0,0.0,0.0,0.0,0.0,0.0,0.0,0.0,0.0,0.0,0.0,0.0,0.0,0.0,0.0,0.0,0.0,0.0,0.0,0.0,0.0,0.0,0.0,0.0,0.0,0.0,0.0,0.0,0.0,0.0,0.0,0.0,0.0,0.0,0.0,0.0,0.0,0.0,0.0,0.0,0.0,0.0,0.0,0.0,0.0,0.0,0.0,0.0,0.0,0.0,0.0,0.0,0.0,0.0,0.0,0.0,0.0,0.0,0.0,0.0,0.0,0.0,0.0,0.0,0.0,0.0,0.0,0.0,0.0,0.0,0.0,0.0,0.0,0.0,0.0,0.0,0.0,0.0,0.0,0.0,0.0,0.0,0.0,0.0,0.0,0.0,0.0,0.0,0.0,0.0,0.0,0.0,0.0,0.0,0.0,0.0,0.0,0.0,0.0,0.0,0.0,0.0,0.0,0.0,0.0,0.0,0.0,0.0,0.0,0.0,0.0,0.0,0.0,0.0,0.0,0.0,0.0,0.0,0.0,0.0,0.0,0.0,0.0,0.0,0.0,0.0,0.0,0.0,0.0,0.0,0.0,0.0,0.0,0.0,0.0,0.0,0.0,0.0,0.0,0.0,0.0,0.0,0.0,0.0,0.0,0.0,0.0,0.0,0.0,0.0,0.0,0.0,0.0,0.0,0.0,0.0,0.0,0.0,0.0,0.0,0.0,0.0,0.0,0.0,0.0,0.0,0.0,0.0,0.0,0.0,0.0,0.0,0.0,0.0,0.0,0.0,0.0,0.0,0.0,0.0,0.0,0.0,0.0,0.0,0.0,0.0,0.0,0.0,0.0,0.0,0.0,0.0,0.0,0.0,0.0,0.0,0.0,0.0,0.0,0.0,0.0,0.0,0.0,0.0,0.0,0.0,0.0,0.0,0.0,0.0,0.0,0.0,0.0,0.0,0.0,0.0,0.0,0.0,0.0,0.0,0.0,0.0,0.0,0.0,0.0,0.0,0.0,0.0,0.0,0.0,0.0,0.0,0.0,0.0,0.0,0.0,0.0,0.0,0.0,0.0,0.0,0.0,0.0,0.0,0.0,0.0,0.0,0.0,0.0,0.0,0.0,0.0,0.0,0.0,0.0,0.0,0.0,0.0,0.0,0.0,0.0,0.0,0.0,0.0,0.0,0.0,0.0,0.0,0.0,0.0,0.0,0.0,0.0,0.0,0.0,0.0,0.0,0.0,0.0,0.0,0.0,0.0,0.0,0.0,0.0,0.0,0.0,0.0,0.0,0.0,0.0,0.0,0.0,0.0,0.0,0.0,0.0,0.0,0.0,0.0,0.0,0.0,0.0,0.0,0.0,0.0,0.0,0.0,0.0,0.0,0.0,0.0,0.0,0.0,0.0,0.0,0.0,0.0,0.0,0.0,0.0,0.0,0.0,0.0,0.0,0.0,0.0,0.0,0.0,0.0,0.0,0.0,0.0,0.0,0.0,0.0,0.0,0.0,0.0,0.0,0.0,0.0,0.0,0.0,0.0,0.0,0.0,0.0,0.0,0.0,0.0,0.0,0.0,0.0,0.0,0.0,0.0,0.0,0.0,0.0,0.0,0.0,0.0,0.0,0.0,0.0,0.0,0.0,0.0,0.0,0.0,0.0,0.0,0.0,0.0,0.0,0.0,0.0,0.0,0.0,0.0,0.0,0.0,0.0,0.0,0.0,0.0,0.0,0.0,0.0,0.0,0.0,0.0,0.0,0.0,0.0,0.0,0.0,0.0,0.0,0.0,0.0,0.0,0.0,0.0,0.0,0.0,0.0,0.0,0.0,0.0,0.0,0.0,0.0,0.0,0.0,0.0,0.0,0.0,0.0,0.0,0.0,0.0,0.0,0.0,0.0,0.0,0.0,0.0,0.0,0.0,0.0,0.0,0.0,0.0,0.0,0.0,0.0,0.0,0.0,0.0,0.0,0.0,0.0,0.0,0.0,0.0,0.0,0.0,0.0,0.0,0.0,0.0,0.0,0.0,0.0,0.0,0.0,0.0,0.0,0.0,0.0,0.0,0.0,0.0,0.0,0.0,0.0,0.0,0.0,0.0,0.0,0.0,0.0,0.0,0.0,0.0,0.0,0.0,0.0,0.0,0.0,0.0,0.0,0.0,0.0,0.0,0.0,0.0,0.0,0.0,0.0,0.0,0.0,0.0,0.0,0.0,0.0,0.0,0.0,0.0,0.0,0.0,0.0,0.0,0.0,0.0,0.0,0.0,0.0,0.0,0.0,0.0,0.0,0.0,0.0,0.0,0.0,0.0,0.0,0.0,0.0,0.0,0.0,0.0,0.0,0.0,0.0,0.0,0.0,0.0,0.0,0.0,0.0,0.0,0.0,0.0,0.0,0.0,0.0,0.0,0.0,0.0,0.0,0.0,0.0,0.0,0.0,0.0,0.0,0.0,0.0,0.0,0.0,0.0,0.0,0.0,0.0,0.0,0.0,0.0,0.0,0.0,0.0,0.0,0.0,0.0,0.0,0.0,0.0,0.0,0.0,0.0,0.0,0.0,0.0,0.0,0.0,0.0,0.0,0.0,0.0,0.0,0.0,0.0,0.0,0.0,0.0,0.0,0.0,0.0,0.0,0.0,0.0,0.0,0.0,0.0,0.0,0.0,0.0,0.0,0.0,0.0,0.0,0.0,0.0,0.0,0.0,0.0,0.0,0.0,0.0,0.0,0.0,0.0,0.0,0.0,0.0,0.0,0.0,0.0,0.0,0.0,0.0,0.0,0.0,0.0,0.0,0.0,0.0,0.0,0.0,0.0,0.0,0.0,0.0,0.0,0.0,0.0,0.0,0.0,0.0,0.0,0.0,0.0,0.0,0.0,0.0,0.0,0.0,0.0,0.0,0.0,0.0,0.0,0.0,0.0,0.0,0.0,0.0,0.0,0.0,0.0,0.0,0.0,0.0,0.0,0.0,0.0,0.0,0.0,0.0,0.0,0.0,0.0,0.0,0.0,0.0,0.0,0.0,0.0,0.0,0.0,0.0,0.0,0.0,0.0,0.0,0.0,0.0,0.0,0.0,0.0,0.0,0.0,0.0,0.0,0.0,0.0,0.0,0.0,0.0,0.0,0.0,0.0,0.0,0.0,0.0,0.0,0.0,0.0,0.0,0.0,0.0,0.0,0.0,0.0,0.0,0.0,0.0,0.0,0.0,0.0,0.0,0.0,0.0,0.0,0.0,0.0,0.0,0.0,0.0,0.0,0.0,0.0,0.0,0.0,0.0,0.0,0.0,0.0,0.0,0.0,0.0,0.0,0.0,0.0,0.0,0.0,0.0,0.0,0.0,0.0,0.0,0.0,0.0,0.0,0.0,0.0,0.0,0.0,0.0,0.0,0.0,0.0,0.0,0.0,0.0,0.0,0.0,0.0,0.0,0.0,0.0,0.0,0.0,0.0,0.0,0.0,0.0,0.0,0.0,0.0,0.0,0.0,0.0,0.0,0.0,0.0,0.0,0.0,0.0,0.0,0.0,0.0,0.0,0.0,0.0,0.0,0.0,0.0,0.0,0.0,0.0,0.0,0.0,0.0,0.0,0.0,0.0,0.0,0.0,0.0,0.0,0.0,0.0,0.0,0.0,0.0,0.0,0.0,0.0,0.0,0.0,0.0,0.0,0.0,0.0,0.0,0.0,0.0,0.0,0.0,0.0,0.0,0.0,0.0,0.0,0.0,0.0,0.0,0.0,0.0,0.0,0.0,0.0,0.0,0.0,0.0,0.0,0.0,0.0,0.0,0.0,0.0,0.0,0.0,0.0,0.0,0.0,0.0,0.0,0.0,0.0,0.0,0.0,0.0,0.0,0.0,0.0,0.0,0.0,0.0,0.0,0.0,0.0,0.0,0.0,0.0,0.0,0.0,0.0,0.0,0.0,0.0,0.0,0.0,0.0,0.0,0.0,0.0,0.0,0.0,0.0,0.0,0.0,0.0,0.0,0.0,0.0,0.0,0.0,0.0,0.0,0.0,0.0,0.0,0.0,0.0,0.0,0.0,0.0,0.0,0.0,0.0,0.0,0.0,0.0,0.0,0.0,0.0,0.0,0.0,0.0,0.0,0.0,0.0,0.0,0.0,0.0,0.0,0.0,0.0,0.0,0.0,0.0,0.0,0.0,0.0,0.0,0.0,0.0,0.0,0.0,0.0,0.0,0.0,0.0,0.0,0.0,0.0,0.0,0.0,0.0,0.0,0.0,0.0,0.0,0.0,0.0,0.0,0.0,0.0,0.0,0.0,0.0,0.0,0.0,0.0,0.0,0.0,0.0,0.0,0.0,0.0,0.0,0.0,0.0,0.0,0.0,0.0,0.0,0.0,0.0,0.0,0.0,0.0,0.0,0.0,0.0,0.0,0.0,0.0,0.0,0.0,0.0,0.0,0.0,0.0,0.0,0.0,0.0,0.0,0.0,0.0,0.0,0.0,0.0,0.0,0.0,0.0,0.0,0.0,0.0,0.0,-2.1204,0.0,0.0,0.0,0.0,0.0,0.0,0.0,0.0,0.0,0.0,0.0,0.0,0.0,0.0,0.0,0.0,0.0,0.0,0.0,0.0,0.0,0.0,0.0,0.0,-0.6258,-0.689,-0.7178,-0.7551,-0.767,-0.7471,0.0,0.0,0.0,0.0,0.0,-0.723,-0.719,-0.7359,-0.7729,-0.8017,-0.8298,-0.8603,-0.8505,-0.8119,-0.7482,0.0,0.0,0.0,0.0,0.0,0.0,0.0,0.0,0.0,0.0,0.0,0.0,0.0,0.0,0.0,0.0,0.0,0.0,0.0,0.0,0.0,0.0,0.0,0.0,0.0,0.0,0.0,0.0,0.0,0.0,0.0,0.0,0.0,0.0,0.0,0.0,0.0,0.0,0.0,0.0,0.0,0.0,0.0,0.0,0.0,0.0,0.0,0.0,0.0,0.0,0.0,0.0,0.0,0.0,0.0,0.0,0.0,0.0,0.0,0.0,0.0,0.0,0.0,0.0,0.0,0.0,0.0,0.0,0.0,0.0,0.0,-2.3046,0.0,0.0,0.0,0.0,0.0,0.0,0.0,0.0,0.0,0.0,0.0,0.0,0.0,0.0,0.0,0.0,0.0,0.0,0.0,0.0,0.0,-0.5101,-0.5736,-0.6962,-0.7693,-0.7609,-0.8211,-0.8417,-0.8009,-0.7998,0.0,0.0,0.0,-0.8226,-0.8316,-0.8311,-0.8753,-0.9725,-0.9958,-1.0556,-1.1554,-1.1544,-1.1041,-1.012,-0.9004,0.0,0.0,0.0,0.0,0.0,0.0,0.0,0.0,0.0,0.0,0.0,0.0,0.0,0.0,0.0,0.0,0.0,0.0,0.0,0.0,0.0,0.0,0.0,0.0,0.0,0.0,0.0,0.0,0.0,0.0,0.0,0.0,0.0,0.0,0.0,0.0,0.0,0.0,0.0,0.0,0.0,0.0,0.0,0.0,0.0,0.0,0.0,0.0,0.0,0.0,0.0,0.0,0.0,0.0,0.0,0.0,0.0,0.0,0.0,0.0,0.0,0.0,0.0,0.0,-3.0833,-3.1672,-3.164,-3.164,-3.1515,-2.8694,-2.7132,-2.6443,0.0,0.0,0.0,0.0,0.0,0.0,0.0,0.0,0.0,0.0,0.0,0.0,0.0,0.0,0.0,0.0,0.0,0.0,0.0,0.0,-0.5922,-0.6864,-0.7773,-0.8535,-0.9162,-0.9287,-0.9285,-0.9103,-0.915,0.0,0.0,-0.9329,-0.9462,-0.9642,-1.0026,-1.0463,-1.0966,-1.2123,-1.314,-1.4036,-1.4116,-1.4552,-1.5037,-1.1894,-1.0273,-0.9788,0.0,0.0,0.0,0.0,0.0,0.0,0.0,0.0,0.0,0.0,0.0,0.0,0.0,0.0,0.0,0.0,0.0,0.0,0.0,0.0,0.0,0.0,0.0,0.0,0.0,0.0,0.0,0.0,0.0,0.0,0.0,0.0,0.0,0.0,0.0,0.0,0.0,0.0,0.0,0.0,0.0,-1.9682,-2.0108,0.0,0.0,0.0,0.0,0.0,0.0,0.0,0.0,0.0,0.0,0.0,0.0,0.0,0.0,-2.9929,-3.0934,-3.1851,-3.2739,-3.3476,-3.4296,-3.5132,-3.5027,-3.5036,-3.5113,-3.4665,0.0,-2.9982,-2.8242,0.0,0.0,0.0,0.0,0.0,0.0,0.0,0.0,0.0,0.0,0.0,0.0,0.0,0.0,0.0,0.0,0.0,0.0,0.0,0.0,0.0,-0.9414,-1.0388,-1.0298,-1.0547,-1.0612,-1.044,-1.0179,-1.0132,-1.039,-1.0174,-1.0339,-1.0957,-1.1346,-1.2195,-1.3509,-1.5252,-1.6161,-1.6221,-1.673,-1.7161,-1.7396,-1.6071,-1.4434,-1.2637,-1.2377,0.0,0.0,0.0,0.0,0.0,0.0,0.0,0.0,0.0,0.0,0.0,0.0,0.0,0.0,0.0,0.0,0.0,0.0,0.0,0.0,0.0,0.0,0.0,0.0,0.0,0.0,0.0,0.0,0.0,0.0,0.0,0.0,0.0,0.0,0.0,0.0,0.0,0.0,0.0,-1.9449,-2.1881,-2.1893,-2.2372,-2.2183,0.0,0.0,0.0,0.0,0.0,0.0,0.0,0.0,0.0,-3.0334,-3.0888,-3.1711,-3.2986,-3.43,-3.512,-3.5437,-3.6253,-3.6809,-3.7085,-3.7024,-3.7085,-3.7203,-3.7214,-3.6404,-3.493,-3.2233,-3.0345,-2.9003,0.0,0.0,0.0,0.0,0.0,-2.8125,0.0,0.0,0.0,0.0,0.0,0.0,0.0,0.0,0.0,0.0,0.0,0.0,-0.8898,-1.0692,-1.1808,-1.1598,-1.2145,-1.2381,-1.2217,-1.1802,-1.1632,-1.1774,-1.1573,-1.1765,-1.2482,-1.3515,-1.4727,-1.612,-1.8241,-1.8976,-1.8486,-1.9362,-1.9746,-1.9669,-1.9973,-1.8457,-1.5608,-1.5479,-1.447,-1.2898,0.0,0.0,0.0,0.0,0.0,0.0,0.0,0.0,0.0,0.0,0.0,0.0,0.0,0.0,0.0,0.0,0.0,0.0,0.0,0.0,0.0,0.0,0.0,0.0,0.0,0.0,0.0,0.0,0.0,0.0,0.0,0.0,0.0,0.0,0.0,0.0,0.0,-2.1284,-2.3417,-2.3637,-2.4486,-2.4464,0.0,0.0,0.0,0.0,0.0,0.0,-2.9402,-2.9504,-3.0675,-3.3273,-3.3944,-3.4697,-3.556,-3.6813,-3.7498,-3.7617,-3.8239,-3.8584,-3.8704,-3.8685,-3.8748,-3.8859,-3.8868,-3.8801,-3.8505,-3.5582,-3.3477,-3.2019,-3.1157,-3.1083,0.0,-3.0981,-3.1235,-3.1917,0.0,0.0,0.0,0.0,0.0,0.0,0.0,0.0,0.0,0.0,0.0,-0.861,-0.9973,-1.1014,-1.2133,-1.338,-1.4279,-1.4785,0.0,0.0,-1.4141,-1.3336,-1.3944,-1.4316,-1.4365,-1.725,-1.8612,-1.8366,-2.0633,-2.1485,-2.1022,-2.206,-2.2614,-2.2805,-2.3076,-2.1384,-1.8356,-1.7518,-1.7256,-1.7195,-1.5027,0.0,0.0,0.0,0.0,0.0,0.0,0.0,0.0,0.0,0.0,0.0,0.0,0.0,0.0,0.0,0.0,0.0,0.0,0.0,0.0,0.0,0.0,0.0,0.0,0.0,0.0,0.0,0.0,0.0,0.0,0.0,0.0,0.0,0.0,0.0,0.0,0.0,0.0,-2.5369,-2.6232,0.0,0.0,0.0,0.0,-2.8037,-2.9549,-3.1254,-3.3039,-3.3012,-3.4128,-3.6673,-3.6667,-3.705,-3.7923,-3.7998,-3.8462,-3.9278,-3.9185,-3.958,-4.0369,-4.0247,-4.0245,-4.0385,-4.0385,-4.0009,-3.9228,-3.7661,-3.6459,-3.5554,-3.4754,-3.396,-3.3364,-3.4155,-3.4462,-3.4618,0.0,0.0,0.0,0.0,0.0,-0.5288,-0.5288,-0.6458,-0.7399,-0.7546,-0.9792,-1.1561,-1.2031,-1.3789,-1.5069,-1.5401,-1.5878,-1.6192,-1.6336,-1.5923,-1.5904,-1.6402,-1.5926,-1.6329,-1.7757,-1.9479,-2.0613,-2.102,-2.2692,-2.3599,-2.3849,-2.497,-2.5687,-2.61,-2.6422,-2.5694,-2.4084,-2.2167,-2.0717,-1.9651,-1.8949,-1.7318,0.0,0.0,0.0,0.0,0.0,0.0,0.0,0.0,0.0,0.0,0.0,0.0,0.0,0.0,0.0,0.0,0.0,0.0,0.0,0.0,0.0,0.0,0.0,0.0,0.0,0.0,0.0,0.0,0.0,0.0,0.0,0.0,0.0,0.0,0.0,0.0,0.0,-2.8007,-2.9375,0.0,-2.9064,-3.0043,-3.0969,-3.1531,-3.258,-3.3971,-3.5758,-3.5646,-3.6532,-3.8734,-3.8597,-3.893,-3.9888,-3.982,-3.9902,-4.0111,-4.0057,-4.0137,-4.0363,-4.031,-4.0381,-4.0489,-4.0489,-4.0405,-4.0191,-3.9663,-3.8608,-3.7288,-3.6997,-3.6706,-3.6463,-3.6872,-3.7031,-3.7078,0.0,0.0,0.0,0.0,-0.5617,-0.5965,-0.5965,-0.7304,-0.8398,-0.8606,-1.1429,-1.3572,-1.3912,-1.6096,-1.7598,-1.7702,-1.8163,-1.8499,-1.8653,-1.8283,-1.8264,-1.8784,-1.839,-1.8909,-2.0535,-2.1989,-2.3092,-2.3826,-2.5016,-2.5899,-2.6582,-2.7337,-2.7955,-2.8451,-2.8757,-2.8715,-2.8302,-2.6839,-2.4832,-2.2676,-2.2268,-2.0835,-1.8824,0.0,0.0,0.0,0.0,0.0,0.0,0.0,0.0,0.0,0.0,0.0,0.0,0.0,0.0,0.0,0.0,0.0,0.0,0.0,0.0,0.0,0.0,0.0,0.0,0.0,0.0,0.0,0.0,0.0,0.0,0.0,0.0,0.0,0.0,0.0,-2.9078,-3.0245,-3.1905,-3.2739,-3.2163,-3.3112,-3.4018,-3.4638,-3.5317,-3.6393,-3.7936,-3.7771,-3.8477,-4.0383,-4.0224,-4.0568,-4.1532,-4.1437,-4.1351,-4.1291,-4.1291,-4.1241,-4.1151,-4.1151,-4.1187,-4.1291,-4.1291,-4.1165,-4.0969,-4.0954,-4.0092,-3.8821,-3.8942,-3.9004,-3.9049,-3.9131,-3.917,-3.9224,0.0,0.0,0.0,-0.611,-0.6691,-0.713,-0.713,-0.8622,-0.9868,-1.0158,-1.2415,-1.4471,-1.5581,-1.7742,-1.9423,-2.027,-2.113,-2.1625,-2.1625,-2.1625,-2.1243,-2.0373,-2.1319,-2.2118,-2.2623,-2.4824,-2.6239,-2.6774,-2.7504,-2.8302,-2.9104,-2.9104,-2.9351,-2.9802,-3.0092,-3.038,-3.0692,-3.1162,-2.9501,-2.6437,-2.4887,-2.4302,-2.4126,0.0,0.0,0.0,0.0,0.0,0.0,0.0,0.0,0.0,0.0,0.0,0.0,0.0,0.0,0.0,0.0,0.0,0.0,0.0,0.0,0.0,0.0,0.0,0.0,0.0,0.0,0.0,0.0,0.0,0.0,0.0,0.0,0.0,-2.5815,-2.8044,-3.0291,-3.2007,-3.3707,-3.4747,-3.4811,-3.6197,-3.7129,-3.7264,-3.786,-3.864,-3.9607,-3.9438,-4.0069,-4.17,-4.1607,-4.1953,-4.2794,-4.2794,-4.2794,-4.2794,-4.2794,-4.2794,-4.2794,-4.2794,-4.2794,-4.2794,-4.2794,-4.2316,-4.1533,-4.1436,-4.094,-4.0253,-4.0559,-4.0754,-4.0869,-4.0818,-4.0869,-4.098,0.0,0.0,-0.6399,-0.6816,-0.73,-0.766,-0.7805,-0.9505,-1.1154,-1.2209,-1.487,-1.715,-1.8411,-1.996,-2.0974,-2.1222,-2.1829,-2.2185,-2.2169,-2.2275,-2.2536,-2.3004,-2.358,-2.4486,-2.5737,-2.6806,-2.7689,-2.8368,-2.9342,-3.0247,-3.1026,-3.1217,-3.1691,-3.2301,-3.2552,-3.2501,-3.2287,-3.2557,-3.1972,-3.0657,-2.8782,-2.7132,-2.5615,0.0,0.0,0.0,0.0,0.0,0.0,0.0,0.0,0.0,0.0,0.0,0.0,0.0,0.0,0.0,0.0,0.0,0.0,0.0,0.0,0.0,0.0,0.0,0.0,0.0,0.0,0.0,0.0,0.0,0.0,0.0,0.0,-2.8463,-2.8457,-3.1196,-3.3612,-3.4729,-3.6382,-3.7395,-3.7323,-3.8357,-3.8965,-3.8811,-4.006,-4.0984,-4.1253,-4.1607,-4.2117,-4.2777,-4.2561,-4.2585,-4.2942,-4.2852,-4.2794,-4.2794,-4.2794,-4.2794,-4.2794,-4.2754,-4.2733,-4.2733,-4.2692,-4.2519,-4.2252,-4.1603,-4.1203,-4.0936,-4.0463,-4.0288,-4.0339,-4.0415,-4.0571,-4.0779,0.0,-0.733,-0.7473,-0.7819,-0.8128,-0.8514,-0.8981,-1.0308,-1.1982,-1.402,-1.6653,-1.895,-2.0613,-2.2106,-2.2968,-2.2968,-2.3269,-2.3456,-2.3456,-2.3873,-2.432,-2.4797,-2.5703,-2.6753,-2.7908,-2.8555,-2.945,-3.0594,-3.1235,-3.1918,-3.2684,-3.2873,-3.3235,-3.3781,-3.3926,-3.3906,-3.3783,-3.3997,-3.3749,-3.3124,-3.2015,-3.0407,-2.8398,-2.6428,-2.5619,-2.5335,-2.3636,-2.2805,-2.2404,-2.1672,0.0,0.0,0.0,0.0,0.0,0.0,0.0,0.0,0.0,0.0,0.0,0.0,0.0,0.0,0.0,0.0,0.0,0.0,0.0,0.0,0.0,0.0,0.0,0.0,-2.9749,-3.1796,-3.2127,-3.3883,-3.569,-3.7179,-3.8303,-3.9074,-3.9353,-3.9811,-4.0208,-4.0513,-4.1277,-4.1917,-4.2343,-4.2638,-4.3025,-4.3525,-4.3388,-4.3522,-4.3943,-4.3886,-4.3845,-4.3845,-4.3845,-4.3824,-4.3804,-4.3783,-4.3721,0.0,-4.3656,-4.3447,-4.3066,-4.2547,-4.2129,0.0,0.0,0.0,0.0,0.0,-4.0521,-4.0617,0.0,-0.8482,-0.8787,-0.8867,-0.9042,-0.9465,-1.0353,-1.1023,-1.251,-1.5583,0.0,-2.01,-2.221,-2.3914,-2.4889,-2.4898,-2.4937,-2.4985,0.0,0.0,-2.6216,-2.617,-2.7676,-2.8797,-2.9439,-3.0259,-3.1416,-3.2913,-3.3004,-3.3392,-3.4037,-3.4087,-3.4239,-3.4485,-3.4564,-3.4755,-3.5059,-3.525,-3.498,-3.4387,-3.448,-3.3403,-3.1496,-2.9246,-2.8824,-2.9205,-2.7552,-2.6501,-2.5666,-2.4102,0.0,0.0,0.0,0.0,0.0,0.0,0.0,0.0,0.0,0.0,0.0,0.0,0.0,0.0,0.0,0.0,0.0,0.0,0.0,0.0,0.0,0.0,0.0,0.0,-3.2757,-3.5168,-3.6144,-3.63,-3.709,-3.9182,-3.9596,-4.0024,-4.0781,-4.0739,-4.1045,-4.197,-4.1889,-4.2182,-4.3073,0.0,0.0,0.0,0.0,-4.4532,-4.5277,-4.5297,-4.5297,-4.5297,-4.5297,-4.5275,-4.5192,-4.5192,-4.5148,-4.5103,-4.508,-4.4642,-4.3919,-4.3836,-4.3282,-4.2351,-4.0931,-4.0387,-4.0436,-4.0693,-4.0723,0.0,0.0,-0.9046,-0.9176,-0.9412,-0.9469,-0.9862,-1.0882,-1.1696,-1.3379,-1.6656,-1.8648,-2.0689,-2.3086,-2.4227,-2.4837,-2.4899,-2.5098,-2.5566,0.0,0.0,-2.7098,-2.8412,-2.9336,-3.0203,-3.0969,-3.239,-3.3306,-3.3695,-3.4266,-3.4677,-3.4887,-3.4843,-3.4863,-3.4982,-3.5091,-3.5223,-3.5339,-3.5546,-3.559,-3.5504,-3.4844,-3.3527,-3.1809,-3.0648,-2.9908,-2.934,-2.8297,-2.7828,-2.7653,-2.7314,-2.612,-2.4742,-2.4592,0.0,0.0,0.0,0.0,0.0,0.0,0.0,0.0,0.0,0.0,0.0,0.0,0.0,0.0,0.0,0.0,0.0,0.0,0.0,0.0,-3.3151,-3.4705,-3.6265,-3.8421,-3.8821,-3.9052,-3.952,-4.0117,-4.052,-4.0574,-4.1214,-4.1634,-4.162,-4.2904,-4.3712,-4.3809,-4.4457,0.0,-4.5029,-4.5048,-4.5125,-4.5297,-4.5297,-4.5297,-4.5297,0.0,0.0,-4.5192,-4.5103,-4.5014,-4.5033,-4.4943,-4.4849,-4.4635,-4.399,-4.3213,-4.2397,-4.2075,-4.1567,-4.1119,-4.1808,-4.1701,-4.1304,-0.974,-0.9653,-0.9644,-0.9777,-0.982,-1.0325,-1.1741,-1.2287,-1.3939,-1.7805,-1.9002,-2.0467,-2.2987,-2.3571,-2.3803,-2.3854,-2.4374,0.0,0.0,-2.6834,-2.8054,-2.9727,-3.0593,-3.1648,-3.2929,-3.3738,-3.4364,-3.4805,-3.5136,-3.5309,-3.5353,-3.5315,-3.5325,-3.5345,-3.546,-3.5554,-3.5612,-3.5747,-3.5865,-3.5911,-3.5444,-3.4219,-3.2565,-3.1714,-3.1153,-3.0685,-2.9741,-2.9132,-2.8798,-2.8799,-2.7915,-2.6728,-2.6288,-2.4973,-2.3357,0.0,0.0,0.0,0.0,0.0,0.0,0.0,0.0,0.0,0.0,0.0,0.0,0.0,0.0,-2.7075,0.0,0.0,-3.2688,-3.4758,-3.6537,-3.8074,-3.9236,-3.9785,-4.0031,-3.997,-4.0337,-4.0559,-4.0504,-4.1239,-4.1843,-4.2218,-4.3388,-4.425,-4.4628,-4.5048,-4.5297,-4.5297,-4.5297,-4.5297,-4.5297,-4.5297,-4.5297,-4.5254,-4.5213,-4.517,-4.5103,-4.5014,-4.4967,-4.4943,-4.4919,-4.4895,-4.4876,-4.4478,-4.4042,-4.3663,-4.3663,-4.2905,-4.1863,-4.2332,-4.2286,-4.2065,-1.0193,-1.0112,-1.0034,-1.005,-1.0213,-1.0881,-1.2453,-1.2832,-1.4316,-1.816,-1.8761,-1.9668,-2.1898,-2.2255,-2.2377,0.0,0.0,0.0,0.0,-2.7114,-2.8839,-3.0681,-3.1688,-3.2922,-3.4495,-3.4659,-3.5081,-3.5736,-3.5674,-3.566,-3.5689,-3.5659,-3.5676,-3.567,-3.5712,-3.5782,-3.5836,-3.5908,-3.5944,-3.5977,-3.593,-3.496,-3.3433,-3.2626,-3.2106,-3.1681,-3.0704,-2.9928,-2.9368,-2.9201,-2.8569,-2.7701,-2.6996,-2.618,-2.5181,-2.3667,-2.273,0.0,0.0,0.0,0.0,0.0,0.0,0.0,0.0,0.0,-2.5152,-2.8481,-2.9171,-2.9835,-3.2006,-3.3751,-3.5118,-3.592,-3.7994,-3.9544,-3.9625,-4.0121,-4.0444,-4.031,-4.0415,-4.0518,-4.0672,-4.134,-4.2145,-4.3115,-4.3848,-4.4571,-4.5258,-4.5297,-4.5297,-4.5297,-4.5297,-4.5275,-4.5275,-4.5275,-4.5235,-4.517,-4.517,-4.5084,-4.4991,-4.501,-4.4943,-4.4895,-4.4895,-4.4895,-4.4895,-4.4895,-4.4895,-4.4895,-4.4895,-4.408,-4.2909,-4.3006,-4.2955,-4.2843,0.0,-1.0183,-1.0182,-1.0172,-1.0775,-1.1589,-1.2543,-1.3311,-1.4508,-1.6532,-1.7412,-1.8262,-1.9317,-2.0121,-2.0888,0.0,0.0,0.0,-2.6436,-2.7515,-2.9186,-3.1631,-3.2702,-3.3669,-3.4562,-3.5281,-3.574,-3.5878,-3.5869,-3.5898,-3.5942,-3.5892,-3.5893,-3.5955,-3.5897,-3.591,-3.5975,-3.5993,-3.5955,-3.5911,-3.5901,-3.5278,-3.4272,-3.3401,-3.2116,-3.0656,-2.9824,-2.9437,-2.9196,-2.8491,-2.7633,-2.6843,-2.6746,-2.6109,-2.5222,-2.4251,-2.3918,-2.3466,-2.1837,-2.1371,-2.191,-2.4199,-2.4257,-2.5004,0.0,0.0,-2.9298,-3.2081,-3.264,-3.2963,-3.4023,-3.4875,-3.5979,-3.7705,-3.869,-3.9514,-4.0269,-4.0396,-4.0375,-4.031,-4.031,-4.0615,-4.1323,-4.2164,-4.2985,-4.3827,-4.4687,-4.5201,-4.5277,-4.5297,-4.5297,-4.5297,-4.5235,-4.5213,-4.5213,-4.5148,-4.5125,-4.5125,-4.5057,-4.5014,-4.501,-4.4919,-4.4895,-4.4895,-4.4895,-4.4895,-4.4895,-4.4895,-4.4895,-4.4895,-4.4895,-4.4781,-4.4611,-4.4635,-4.418,-4.3668,0.0,-1.0161,-1.0283,-1.0754,-1.115,-1.1688,-1.2578,-1.3352,-1.4481,-1.6202,-1.6706,-1.7214,-1.8099,-1.8937,-1.9551,-1.9886,-2.1914,0.0,-2.5603,-2.7147,-2.9123,-3.1676,-3.2818,-3.3771,-3.4588,-3.5469,-3.5898,-3.5837,-3.589,-3.5896,-3.5884,-3.5851,-3.5859,-3.5873,-3.5902,-3.5921,-3.5936,-3.5935,-3.5924,-3.5889,-3.582,-3.4969,-3.3701,-3.3295,-3.1758,-2.9786,-2.9419,-2.8956,0.0,0.0,-2.772,-2.7316,-2.6805,-2.6381,-2.5938,-2.5108,-2.5158,-2.5351,-2.4658,-2.4812,-2.5438,0.0,-2.7239,-2.8354,-3.1194,-3.1158,-3.1152,-3.3335,-3.3876,-3.4156,-3.4844,-3.6118,-3.7251,0.0,-3.8981,-3.9934,-4.0232,-4.0252,-4.0024,-3.949,-3.9871,-4.0348,-4.0769,-4.1991,-4.2908,-4.3271,-4.4532,-4.5297,-4.5297,-4.5297,-4.5297,-4.5235,-4.5213,-4.517,-4.5148,-4.5125,-4.508,-4.5038,-4.5014,-4.4967,-4.4943,-4.4895,-4.4895,-4.4895,-4.4895,-4.4895,-4.4895,-4.4895,-4.4895,-4.4895,-4.4895,-4.4895,-4.4895,-4.4895,-4.4687,-4.4459,0.0,-1.0314,-1.0613,-1.1201,-1.1695,-1.2224,-1.2897,-1.3645,-1.457,-1.5811,-1.5929,-1.6107,-1.6706,-1.7747,-1.8362,-1.8313,-2.0876,-2.3113,-2.4569,-2.6444,-2.8656,-3.1206,-3.2168,-3.3223,-3.451,-3.5261,-3.5689,-3.5797,-3.5877,-3.5877,-3.5801,-3.5808,-3.5796,-3.5801,-3.5855,-3.5879,-3.5864,-3.5866,-3.5728,-3.5521,-3.5414,-3.4331,-3.2793,-3.2483,-3.0936,-2.8917,-2.8879,-2.8338,0.0,0.0,-2.6988,-2.7036,-2.6169,-2.6034,-2.6159,-2.5794,-2.6071,-2.6473,-2.6529,-2.7124,-2.7876,-2.8444,-2.9548,-3.0848,-3.2111,-3.2269,-3.2601,-3.421,-3.464,-3.4833,-3.5249,-3.664,-3.7707,-3.7655,-3.8915,-3.9928,-4.008,-4.0077,-3.9849,-3.9222,-3.9697,-4.0096,-4.0234,-4.1512,-4.2541,-4.3059,-4.4244,-4.5008,-4.5235,-4.5256,-4.5235,-4.517,-4.5148,-4.5125,-4.5061,-4.5038,-4.5014,-4.4967,-4.4967,-4.4943,-4.4895,-4.4895,-4.4895,-4.4895,-4.4895,-4.4895,-4.4895,-4.4895,-4.4895,-4.4895,-4.4895,-4.4895,-4.4895,-4.4895,-4.4895,-4.4895,0.0,0.0,-1.1273,-1.1296,-1.2546,-1.3599,-1.3747,-1.4456,-1.4968,-1.4959,-1.4896,-1.4804,-1.4701,-1.6271,-1.734,-1.7348,-2.049,-2.2878,-2.3783,-2.5532,-2.7684,-3.0237,-3.0557,-3.1841,-3.4359,-3.4628,-3.5084,-3.5794,-3.5877,-3.5876,-3.5798,-3.5801,-3.5806,-3.5802,-3.5807,-3.5807,-3.5807,-3.5791,-3.5325,-3.4534,-3.4534,-3.345,-3.1748,-3.0907,-2.9477,-2.7962,-2.8019,0.0,-2.6381,-2.4762,-2.4726,-2.5234,-2.4351,-2.4619,0.0,-2.6232,-2.6438,-2.6402,-2.6422,-2.7001,-2.7998,-2.9626,-3.0658,-3.1733,-3.3523,-3.388,-3.4117,-3.5155,-3.5328,-3.5301,-3.5374,-3.6037,-3.6826,-3.7658,-3.8382,-3.9147,-3.9983,-4.0057,-4.0017,-4.0058,-3.9975,-3.9973,0.0,-4.0897,-4.2117,-4.3754,-4.3912,-4.4274,-4.5068,-4.517,-4.517,-4.5103,-4.5057,-4.501,-4.4991,-4.4919,-4.4914,-4.4895,-4.4895,-4.4895,-4.4895,-4.4895,-4.4895,-4.4895,-4.4895,-4.4895,-4.4895,-4.4895,-4.4895,-4.4895,-4.4895,-4.4895,-4.4895,-4.4895,-4.4895,-4.4895,0.0,0.0,0.0,-1.2591,-1.3223,-1.3762,-1.426,-1.457,-1.4738,-1.469,-1.5152,0.0,0.0,0.0,0.0,0.0,-2.0169,-2.2086,-2.3638,-2.4924,-2.6527,-2.8483,-2.9881,-3.0971,-3.1784,-3.3147,-3.3924,-3.4062,-3.4148,-3.4148,-3.4082,-3.4128,-3.414,-3.4145,-3.4145,-3.4145,-3.4145,-3.4096,-3.4235,-3.4399,-3.3189,-3.2328,-3.17,-3.0829,-2.9091,-2.7103,0.0,0.0,-2.485,-2.4235,-2.4207,-2.4475,-2.4724,-2.4971,-2.5351,-2.6178,-2.6791,-2.7325,-2.7902,-2.9003,-3.0266,-3.152,-3.2371,-3.3234,-3.4503,-3.4704,-3.456,-3.4375,-3.4389,-3.4242,-3.3535,-3.4691,-3.5983,-3.6613,-3.7928,-3.9108,-3.9861,-3.9933,-3.9724,-3.9235,-3.961,0.0,0.0,0.0,0.0,-4.2952,-4.3564,-4.4249,-4.5045,-4.5125,-4.5103,-4.5033,-4.5014,-4.4986,-4.4919,-4.4895,-4.4895,-4.4895,-4.4895,-4.4895,-4.4895,-4.4895,-4.4895,-4.4895,-4.4895,-4.4895,-4.4895,-4.4895,-4.4895,-4.4895,-4.4895,-4.4895,-4.4895,-4.4895,-4.4846,-4.4789,0.0,0.0,0.0,0.0,0.0,0.0,0.0,0.0,0.0,0.0,0.0,0.0,0.0,0.0,0.0,0.0,0.0,-2.1344,-2.2614,-2.3872,-2.5208,-2.667,-2.8231,-2.9351,-2.9951,-3.1196,-3.1942,-3.2193,-3.2241,-3.224,-3.221,-3.2549,-3.2743,-3.2783,-3.3093,-3.3228,-3.3209,-3.2851,-3.2851,-3.2928,-3.1497,-3.0714,-3.0318,-2.9468,-2.8116,0.0,0.0,0.0,-2.4005,-2.366,-2.3726,-2.4042,-2.4568,-2.516,-2.5719,-2.6237,-2.7204,-2.8232,-2.9074,-3.044,-3.1887,-3.2806,-3.3595,-3.43,-3.4958,-3.4827,-3.4355,-3.3553,-3.3195,-3.2745,-3.1749,-3.26,-3.3964,-3.5477,-3.6711,-3.8022,-3.9665,-3.9889,-3.9835,-3.9608,-4.0063,-4.0271,0.0,0.0,0.0,-4.2487,-4.3346,-4.4182,-4.4976,-4.5057,-4.5014,-4.4967,-4.4967,-4.4943,-4.4895,-4.4777,-4.4707,-4.4707,-4.4827,-4.4895,-4.4895,-4.4895,-4.4895,-4.4895,-4.4895,-4.4895,-4.4895,-4.4895,-4.4895,-4.4895,-4.4895,-4.487,-4.4821,-4.4821,-4.4745,-4.4632,0.0,0.0,0.0,0.0,0.0,0.0,0.0,0.0,0.0,0.0,0.0,0.0,0.0,0.0,0.0,0.0,0.0,0.0,-2.0894,0.0,0.0,-2.4872,-2.5749,-2.7063,-2.8825,-2.8904,-2.9359,-3.0274,-3.0265,-3.0285,-3.0293,-3.1113,-3.1543,-3.1632,-3.2464,-3.2831,-3.2773,-3.1942,-3.1139,-3.0356,-2.9506,-2.8657,-2.7817,-2.7007,0.0,0.0,0.0,0.0,-2.3851,-2.2997,-2.3294,-2.4028,-2.4028,-2.5153,-2.6466,-2.6505,-2.7712,-2.917,-2.9927,-3.1339,-3.2802,-3.3562,-3.4339,-3.4889,-3.4851,-3.4262,-3.3481,-3.2648,-3.1781,-3.0912,0.0,0.0,-3.1061,-3.4301,-3.4908,-3.614,-3.9513,-3.9965,-4.0309,0.0,0.0,0.0,0.0,0.0,0.0,-4.2469,0.0,-4.4132,-4.4857,-4.4943,-4.4943,-4.487,-4.4895,-4.487,-4.4846,-4.4511,-4.4383,-4.4383,-4.4707,-4.487,-4.4895,-4.487,-4.487,-4.487,-4.487,-4.4846,-4.4846,-4.487,-4.487,-4.487,-4.487,-4.4796,-4.4685,-4.4685,-4.4605,-4.4515,0.0,0.0,0.0,0.0,0.0,0.0,0.0,0.0,0.0,0.0,0.0,0.0,0.0,0.0,0.0,0.0,0.0,0.0,0.0,0.0,0.0,0.0,0.0,-2.578,-2.688,-2.7698,-2.8222,-2.8471,-2.856,-2.8589,-2.854,-2.8762,-2.8888,-2.8898,-2.913,-2.9226,-2.9207,-2.8994,-2.9149,-2.94,0.0,-2.7586,-2.7817,0.0,0.0,0.0,0.0,0.0,0.0,0.0,0.0,0.0,0.0,-2.6473,-2.7399,-2.7994,-2.9334,-3.0804,-3.1642,-3.3048,-3.4339,-3.4529,-3.4756,-3.4737,-3.4131,-3.3354,-3.2329,-3.0902,-2.9937,-2.9106,0.0,0.0,0.0,-3.358,-3.5134,0.0,-4.0404,-4.0877,0.0,-4.2014,0.0,-4.2185,-4.2393,-4.3,0.0,0.0,-4.3592,-4.4085,-4.4857,-4.4938,-4.4802,-4.4557,-4.4777,-4.4655,-4.4154,-4.4065,-4.4154,-4.4402,-4.4242,-4.4402,-4.487,-4.4374,-4.427,-4.4511,-4.427,-4.4154,-4.4154,-4.4308,-4.4365,-4.4412,-4.4532,-4.4578,-4.4551,-4.4551,-4.4487,-4.4344,0.0,0.0,0.0,0.0,0.0,0.0,0.0,0.0,0.0,0.0,0.0,0.0,0.0,0.0,0.0,0.0,0.0,0.0,0.0,0.0,0.0,0.0,-2.3224,-2.3933,-2.449,-2.5406,-2.5719,-2.5428,0.0,0.0,-2.6208,-2.694,-2.7325,-2.7393,-2.774,-2.7894,-2.7875,-2.7509,0.0,0.0,0.0,0.0,0.0,0.0,0.0,0.0,0.0,0.0,0.0,0.0,0.0,-2.6988,-2.7336,-2.8032,-2.8855,-2.9639,0.0,-3.1948,-3.2802,-3.3941,-3.4908,-3.4908,-3.4624,-3.415,-3.3316,-3.2179,-3.0852,-2.9185,-2.818,0.0,-2.6546,-2.7476,0.0,0.0,0.0,0.0,-3.9648,-4.0745,-4.1503,0.0,-4.2754,0.0,-4.3455,-4.3947,-4.4232,0.0,-4.4232,-4.4421,-4.4876,-4.4777,-4.4584,-4.443,-4.443,-4.4213,-4.3689,-4.3818,-4.3912,-4.3955,-4.3912,-4.4095,-4.4448,-4.4065,-4.4004,-4.4184,0.0,-4.3881,-4.3849,-4.3992,-4.4053,-4.4114,-4.424,-4.4317,-4.4401,-4.4401,-4.4296,-4.4177,0.0,0.0,0.0,0.0,0.0,0.0,0.0,0.0,0.0,0.0,-1.633,0.0,0.0,0.0,0.0,0.0,0.0,0.0,0.0,0.0,0.0,0.0,-2.1583,-2.2032,-2.2253,-2.2903,-2.2957,-2.24,0.0,0.0,0.0,0.0,0.0,0.0,0.0,0.0,0.0,0.0,0.0,0.0,0.0,0.0,0.0,0.0,0.0,0.0,0.0,0.0,0.0,0.0,-2.7089,-2.7908,-2.8717,-2.962,-3.0551,-3.132,-3.2062,-3.284,-3.3638,-3.4377,-3.4908,-3.4908,-3.4301,-3.3449,-3.2463,-3.0947,-2.9279,-2.7665,0.0,-2.5844,-2.5143,-2.5674,-2.729,-3.0663,0.0,-3.4775,-3.8357,-4.0214,-4.1541,-4.2469,-4.3341,-4.4137,-4.4838,-4.4895,-4.4895,-4.4895,-4.4895,-4.4895,-4.4895,-4.4584,-4.4383,-4.4327,-4.3974,-4.3656,-4.3406,-4.3656,-4.3623,-4.3406,-4.3623,-4.3786,-4.3881,-4.3786,-4.3786,-4.3818,0.0,0.0,-4.3656,-4.3656,-4.3767,-4.3924,-4.3924,-4.4072,-4.4255,-4.4255,-4.4147,-4.4005,0.0,0.0,0.0,0.0,0.0,0.0,0.0,0.0,0.0,0.0,-1.8177,-1.7736,0.0,0.0,0.0,0.0,0.0,0.0,0.0,0.0,0.0,0.0,-2.0949,-2.1339,-2.2043,-2.2289,0.0,0.0,0.0,0.0,0.0,0.0,0.0,0.0,0.0,0.0,0.0,0.0,0.0,0.0,0.0,0.0,0.0,0.0,0.0,0.0,0.0,0.0,0.0,-2.6763,-2.7871,-2.8722,-2.9528,-3.0807,-3.2177,-3.3031,-3.3354,-3.3657,-3.4472,-3.4794,-3.4908,-3.4908,-3.4301,-3.3297,-3.1762,-3.0113,0.0,0.0,-2.5787,-2.5181,-2.5029,-2.5674,-2.729,-3.0663,-3.2008,-3.4282,-3.9039,-4.0574,-4.1768,0.0,-4.4194,-4.4743,-4.4895,0.0,0.0,0.0,0.0,0.0,-4.4895,-4.4584,-4.427,-4.4004,-4.3406,-4.3178,-4.3406,-4.3178,-4.316,-4.3284,-4.3105,-4.3284,-4.3786,-4.3232,-4.3142,-4.3389,0.0,0.0,-4.2844,-4.2976,-4.3213,-4.3424,-4.3594,-4.3828,-4.4036,-4.4036,-4.4036,-4.4005,0.0,0.0,0.0,0.0,0.0,0.0,0.0,-1.6879,-1.7874,-1.9859,-2.0065,-1.9856,-1.9368,-1.9216,-1.92,0.0,0.0,0.0,0.0,0.0,0.0,0.0,0.0,-2.0363,-2.0734,0.0,0.0,0.0,0.0,0.0,0.0,0.0,0.0,0.0,0.0,0.0,0.0,0.0,0.0,0.0,0.0,0.0,0.0,0.0,0.0,0.0,0.0,0.0,0.0,0.0,-2.7001,-2.8426,-3.0105,-3.1438,-3.2577,-3.3449,-3.3601,-3.3808,-3.5211,-3.5171,-3.4884,-3.5438,-3.4282,-3.2577,-3.0909,0.0,0.0,0.0,-2.458,-2.4314,-2.4314,-2.5338,0.0,-2.8938,-3.0322,-3.2596,-3.6727,-3.8414,0.0,-4.2716,-4.3758,-4.444,0.0,0.0,0.0,0.0,0.0,0.0,-4.4655,-4.4154,-4.3754,-4.3406,-4.3087,-4.2957,-4.3105,-4.2938,-4.2862,-4.292,-4.2765,-4.2844,-4.3159,-4.2844,-4.2786,-4.292,0.0,0.0,-4.2566,-4.2667,-4.2824,-4.2995,-4.3286,-4.3563,-4.3795,-4.3942,-4.4005,-4.4005,0.0,0.0,0.0,0.0,0.0,0.0,0.0,-1.7879,-1.898,-2.0939,-2.159,-2.1627,-2.0979,-2.0089,-1.9556,0.0,0.0,0.0,0.0,0.0,0.0,0.0,0.0,0.0,0.0,0.0,0.0,0.0,0.0,0.0,0.0,0.0,0.0,0.0,0.0,0.0,0.0,0.0,0.0,0.0,0.0,0.0,0.0,0.0,0.0,0.0,0.0,0.0,0.0,0.0,-2.5857,-2.7294,-2.9557,-3.1142,-3.2256,-3.292,-3.3203,-3.3648,-3.5229,-3.5128,-3.4816,-3.5702,-3.4017,-3.1762,-3.0248,-2.7858,0.0,-2.4011,-2.3689,-2.3689,-2.3689,-2.4921,-2.628,0.0,-2.8749,-3.0871,-3.4188,-3.6234,-3.8584,0.0,-4.301,0.0,0.0,0.0,0.0,0.0,0.0,0.0,0.0,-4.3703,-4.3231,-4.2844,-4.2862,-4.2786,-4.2745,-4.2745,-4.2706,-4.2588,-4.2588,-4.2588,-4.2588,-4.2588,-4.2588,-4.2588,0.0,0.0,0.0,-4.2463,-4.257,-4.275,-4.2995,-4.325,-4.3529,-4.3763,-4.3828,-4.3828,0.0,0.0,0.0,0.0,0.0,0.0,0.0,-1.8204,-1.9306,-2.2388,-2.2222,-2.1762,-2.1619,-2.0888,-2.0101,0.0,0.0,0.0,0.0,0.0,0.0,0.0,0.0,0.0,0.0,0.0,0.0,0.0,0.0,0.0,0.0,0.0,0.0,0.0,0.0,0.0,0.0,0.0,0.0,0.0,0.0,0.0,0.0,0.0,0.0,0.0,0.0,0.0,0.0,0.0,0.0,-2.5233,-2.6803,-2.9137,-3.1292,-3.1186,0.0,0.0,-3.3828,-3.426,-3.4666,-3.4945,-3.3145,-3.108,-3.0189,0.0,-2.4826,-2.3878,-2.3689,-2.3689,-2.3689,-2.4466,-2.5636,-2.7247,0.0,-3.0,-3.3335,-3.5874,-3.8334,-4.083,0.0,0.0,0.0,0.0,0.0,0.0,0.0,0.0,0.0,-4.352,-4.3212,-4.2649,-4.2649,-4.2609,-4.2609,-4.2609,-4.2588,-4.2503,-4.2503,-4.2503,-4.2503,-4.2503,-4.2503,-4.2503,0.0,0.0,0.0,-4.2328,-4.2472,-4.2693,-4.275,-4.2957,-4.3232,-4.3268,-4.3268,-4.3268,0.0,0.0,0.0,0.0,0.0,0.0,-1.7871,-1.8218,-1.935,-2.2572,-2.2684,-2.2447,-2.2429,-2.1661,-2.0656,-1.9421,0.0,0.0,0.0,0.0,0.0,0.0,0.0,0.0,0.0,0.0,0.0,0.0,0.0,0.0,0.0,0.0,0.0,0.0,0.0,0.0,0.0,0.0,0.0,0.0,0.0,0.0,0.0,0.0,0.0,0.0,0.0,0.0,0.0,0.0,0.0,0.0,-2.3159,-2.4891,0.0,0.0,-3.0602,-3.1741,-3.3518,-3.4078,-3.4221,-3.4607,-3.2825,-3.0658,-2.9474,0.0,-2.475,-2.3878,-2.3689,-2.3689,-2.3689,-2.4409,-2.5219,-2.5901,-2.6247,-2.746,-3.0303,-3.197,-3.4528,-3.8977,0.0,0.0,0.0,0.0,0.0,0.0,0.0,0.0,0.0,-4.3123,-4.2995,-4.2609,-4.2609,-4.257,-4.2526,-4.2526,-4.2486,-4.2387,-4.2387,-4.2387,-4.2387,-4.2387,-4.2387,-4.2387,0.0,0.0,0.0,-4.2287,-4.2351,-4.2472,-4.2634,-4.2788,-4.292,-4.3123,-4.3214,-4.3214,0.0,0.0,0.0,0.0,0.0,-1.5413,-1.7831,-1.819,-1.9246,-2.2224,-2.2557,-2.2538,-2.2483,-2.1735,-2.0804,-1.9687,-1.95,0.0,0.0,0.0,0.0,0.0,0.0,0.0,0.0,0.0,-2.1596,-2.2362,0.0,0.0,0.0,0.0,0.0,0.0,0.0,0.0,0.0,0.0,0.0,0.0,0.0,0.0,0.0,0.0,0.0,0.0,0.0,0.0,0.0,0.0,0.0,0.0,0.0,0.0,-2.4154,0.0,-2.8713,-3.0207,-3.2228,-3.2921,-3.3227,-3.3724,-3.1953,-2.9851,-2.8909,-2.6399,-2.4144,-2.3784,-2.3499,-2.3423,-2.3651,-2.4409,-2.501,-2.501,-2.5158,-2.6042,-2.831,-2.9519,-3.1958,0.0,0.0,0.0,0.0,0.0,0.0,0.0,0.0,0.0,0.0,-4.2826,-4.2806,-4.253,-4.253,-4.2508,-4.2445,-4.2445,-4.2387,-4.2287,-4.2287,-4.2287,-4.2287,-4.2287,-4.2287,0.0,0.0,0.0,0.0,-4.2287,-4.2287,-4.2328,-4.2494,-4.2555,-4.2613,-4.2862,-4.2938,-4.2938,0.0,0.0,0.0,0.0,0.0,0.0,-1.7826,-1.8147,-1.8981,-2.1403,-2.1697,-2.1661,-2.1534,-2.086,-2.0369,-2.03,-1.9693,0.0,0.0,0.0,0.0,0.0,0.0,0.0,0.0,0.0,-2.2164,-2.2498,-2.4088,-2.4968,0.0,0.0,0.0,0.0,0.0,0.0,0.0,0.0,0.0,0.0,0.0,0.0,0.0,0.0,0.0,0.0,0.0,0.0,0.0,0.0,0.0,0.0,0.0,0.0,-2.1897,-2.3712,-2.6507,-2.9048,-2.9293,-3.0368,-3.1555,-3.2004,-3.0246,-2.8479,-2.8663,-2.5508,-2.2741,-2.3537,-2.3063,-2.276,-2.3556,-2.4409,-2.501,-2.501,-2.5491,-2.6472,-2.8163,-2.9832,0.0,0.0,0.0,0.0,0.0,0.0,0.0,0.0,0.0,0.0,0.0,0.0,-4.2555,-4.2328,-4.2287,-4.2287,-4.2287,-4.2287,-4.2287,-4.2287,-4.2287,-4.2287,-4.2287,-4.2287,0.0,0.0,0.0,0.0,0.0,-4.2287,-4.2287,-4.2287,-4.2287,-4.2287,-4.2287,-4.2328,-4.2328,-4.2328,0.0,0.0,0.0,0.0,0.0,0.0,0.0,-1.6114,-1.7128,-1.9008,-1.9671,-2.0386,-2.1389,-2.0807,-2.0318,-2.03,-1.9676,0.0,0.0,0.0,0.0,0.0,0.0,0.0,0.0,0.0,-2.2219,-2.2443,-2.4238,-2.5137,-2.5176,-2.4356,0.0,0.0,0.0,0.0,0.0,0.0,0.0,0.0,0.0,0.0,0.0,0.0,0.0,0.0,0.0,0.0,0.0,0.0,0.0,0.0,0.0,0.0,0.0,-2.1371,-2.3773,0.0,-2.7689,-2.8718,-2.9436,-2.9215,-2.8233,-2.7214,-2.6879,-2.5003,-2.3386,-2.3651,-2.3499,-2.3405,-2.3651,-2.4409,-2.5139,-2.5555,-2.5884,-2.6384,0.0,0.0,0.0,0.0,0.0,0.0,0.0,0.0,0.0,0.0,0.0,0.0,0.0,0.0,-4.2391,-4.2287,-4.2287,-4.2287,-4.2287,-4.2287,-4.2287,-4.2287,-4.2287,-4.2287,-4.2287,-4.2287,0.0,0.0,0.0,0.0,0.0,-4.2287,-4.2287,-4.2287,-4.2287,-4.2287,-4.2287,-4.2287,-4.2287,-4.2287,0.0,0.0,0.0,0.0,0.0,0.0,0.0,-1.538,-1.6052,-1.7022,-1.7815,-1.877,-2.0008,-1.9684,-1.963,-2.0246,-1.9643,0.0,0.0,0.0,0.0,0.0,0.0,0.0,-1.9526,-2.0966,-2.1964,-2.2481,-2.3953,-2.4839,-2.5156,-2.4645,-2.3796,-2.263,0.0,0.0,0.0,0.0,0.0,0.0,0.0,0.0,0.0,0.0,0.0,0.0,0.0,0.0,0.0,0.0,0.0,0.0,0.0,0.0,0.0,0.0,-2.1695,-2.3632,-2.5534,-2.6856,-2.7628,-2.7413,-2.6831,-2.6191,-2.5579,-2.4318,-2.3221,-2.3151,-2.2886,-2.2867,-2.351,-2.4016,-2.458,-2.533,-2.5408,-2.5794,0.0,0.0,0.0,0.0,0.0,0.0,0.0,0.0,0.0,0.0,0.0,0.0,0.0,0.0,-4.2287,-4.2287,-4.2287,-4.2287,-4.2287,-4.2287,-4.2287,-4.2287,-4.2287,-4.2287,-4.2287,0.0,0.0,0.0,0.0,0.0,0.0,-4.2287,-4.2287,-4.2287,-4.2287,-4.2287,-4.2287,-4.2287,-4.2287,-4.2287,0.0,0.0,0.0,0.0,0.0,0.0,0.0,-1.5588,-1.5587,-1.5517,-1.6219,-1.6994,-1.7726,-1.7871,-1.8506,-1.9992,0.0,0.0,0.0,0.0,0.0,0.0,0.0,0.0,-1.958,-2.0503,-2.1512,-2.2589,-2.3448,-2.4303,-2.5101,-2.5101,-2.4212,-2.2596,-2.2609,-2.1673,0.0,0.0,0.0,0.0,0.0,0.0,0.0,0.0,0.0,0.0,0.0,0.0,0.0,0.0,0.0,0.0,0.0,0.0,0.0,0.0,0.0,0.0,0.0,-2.4683,-2.5923,-2.6164,-2.5779,-2.5187,-2.461,-2.3404,0.0,-2.2144,-2.1553,-2.1572,-2.3182,-2.3363,-2.3617,-2.4663,-2.4522,-2.5067,0.0,0.0,0.0,0.0,0.0,0.0,0.0,0.0,0.0,0.0,0.0,0.0,0.0,0.0,0.0,-4.2287,-4.218,-4.218,-4.2287,-4.2287,-4.2287,-4.2287,-4.2287,-4.2287,-4.2287,0.0,0.0,0.0,0.0,0.0,0.0,-4.2287,-4.2287,-4.2287,-4.2287,-4.2287,-4.2287,-4.2287,-4.2287,-4.2287,0.0,0.0,0.0,0.0,0.0,0.0,0.0,0.0,0.0,0.0,-1.5382,-1.6155,-1.6892,-1.7527,-1.8052,0.0,0.0,0.0,0.0,0.0,0.0,0.0,0.0,0.0,-1.958,-2.1069,-2.2036,-2.2517,-2.3986,-2.4822,-2.5025,-2.5076,-2.4205,-2.2596,-2.2607,-2.1642,0.0,0.0,0.0,0.0,0.0,0.0,0.0,0.0,0.0,0.0,0.0,-1.9625,0.0,0.0,0.0,0.0,0.0,0.0,0.0,0.0,-1.9811,-2.0427,-2.097,0.0,-2.2638,-2.2679,-2.2757,-2.2776,0.0,-2.1857,-2.1304,-2.1148,-2.1473,-2.2073,-2.3079,-2.3735,-2.454,-2.5853,-2.6074,-2.6599,0.0,0.0,0.0,0.0,0.0,0.0,0.0,0.0,0.0,0.0,0.0,0.0,0.0,0.0,0.0,-4.2251,-4.0971,-4.0877,-4.2287,-4.2287,-4.2287,-4.2287,-4.2287,-4.2287,-4.2287,0.0,0.0,0.0,0.0,0.0,-4.2287,-4.2287,-4.2287,-4.2287,-4.2287,-4.2287,-4.2287,-4.2287,-4.2287,-4.2287,0.0,0.0,0.0,0.0,0.0,0.0,0.0,0.0,0.0,0.0,0.0,-1.4748,-1.5533,-1.6316,0.0,0.0,0.0,0.0,0.0,0.0,0.0,0.0,0.0,-1.9305,-1.9462,-2.0763,-2.1747,-2.2357,-2.3642,-2.452,-2.4999,-2.507,-2.439,-2.3134,-2.2345,-2.1268,0.0,0.0,0.0,0.0,0.0,0.0,0.0,0.0,0.0,0.0,-1.9769,-1.9606,0.0,-2.0715,-2.0422,-1.9793,0.0,0.0,0.0,0.0,-1.9413,-1.9739,-1.9739,-2.088,-2.2057,-2.2057,-2.2228,-2.229,-2.182,-2.1297,-2.0774,-2.0226,-2.0736,-2.1567,-2.2362,-2.3364,-2.4482,0.0,-2.6469,0.0,0.0,0.0,0.0,0.0,0.0,0.0,0.0,0.0,0.0,0.0,0.0,0.0,0.0,0.0,0.0,0.0,-3.9958,-4.0382,-4.2269,-4.1848,-4.1848,-4.2287,-4.2287,-4.2287,-4.2287,0.0,0.0,0.0,0.0,0.0,-4.2287,-4.2287,-4.2287,-4.2287,-4.2287,-4.2287,-4.2287,-4.2287,-4.2287,-4.2287,0.0,0.0,0.0,0.0,0.0,0.0,0.0,0.0,0.0,0.0,0.0,0.0,0.0,0.0,0.0,0.0,0.0,0.0,0.0,0.0,0.0,0.0,-1.9216,-1.9347,-1.9473,-2.04,-2.138,-2.2374,-2.3351,-2.4228,-2.501,-2.519,-2.4689,-2.3543,-2.1988,-2.0817,0.0,0.0,0.0,0.0,0.0,0.0,0.0,0.0,0.0,0.0,0.0,0.0,0.0,-2.0703,-2.0678,-2.0246,-2.0916,0.0,0.0,0.0,0.0,0.0,-1.925,-2.0862,-2.2472,-2.2345,-2.2537,-2.2538,-2.1843,-2.1281,-2.0692,-1.9822,-2.0287,-2.1074,0.0,-2.3041,0.0,0.0,0.0,0.0,0.0,0.0,0.0,0.0,0.0,0.0,0.0,0.0,0.0,0.0,0.0,0.0,0.0,0.0,0.0,0.0,-3.9041,-3.9841,-4.1831,-4.1109,-4.1162,-4.2026,-4.2192,-4.2246,-4.2246,-4.2287,0.0,0.0,0.0,0.0,-4.2287,-4.2287,-4.2287,-4.2287,-4.2287,-4.2287,-4.2287,-4.2287,-4.2287,-4.2287,0.0,0.0,0.0,0.0,0.0,0.0,0.0,0.0,0.0,0.0,0.0,0.0,0.0,0.0,0.0,0.0,0.0,0.0,0.0,0.0,0.0,-1.9087,-1.912,-1.9494,-2.0301,-2.1282,-2.2286,-2.3228,-2.4917,-2.5513,-2.5029,-2.5766,-2.493,-2.2742,-2.1749,-2.0823,-1.9993,0.0,0.0,0.0,0.0,0.0,0.0,0.0,0.0,0.0,0.0,0.0,0.0,-1.8455,-1.8848,-1.9304,-1.9431,0.0,0.0,0.0,0.0,0.0,-1.992,-2.0843,-2.1456,-2.0807,-2.1279,-2.1807,-2.1589,-2.1552,-2.1494,-2.1225,-2.1805,0.0,0.0,-2.4165,-2.5203,0.0,0.0,0.0,0.0,0.0,0.0,0.0,0.0,0.0,0.0,0.0,0.0,0.0,0.0,0.0,0.0,0.0,0.0,0.0,0.0,-3.7971,-3.9729,-4.0267,-4.0619,-4.0785,-4.1573,-4.1977,-4.1977,-4.2205,-4.2287,0.0,0.0,-4.2287,-4.2287,-4.2287,-4.2287,-4.2287,-4.2287,-4.2287,-4.2287,-4.2287,-4.2287,-4.2287,0.0,0.0,0.0,0.0,0.0,0.0,0.0,0.0,0.0,0.0,0.0,0.0,0.0,0.0,0.0,0.0,0.0,0.0,0.0,0.0,-1.8651,-1.9069,-1.9522,-1.9937,-2.0387,-2.1456,-2.2427,-2.3291,-2.4697,-2.5267,-2.501,-2.4942,-2.4043,-2.2509,-2.162,-2.0782,-2.0012,-2.0012,0.0,0.0,0.0,0.0,0.0,0.0,0.0,0.0,0.0,0.0,0.0,0.0,-1.8417,-1.9087,-1.9087,0.0,0.0,0.0,0.0,0.0,-1.954,-2.0536,-2.1367,-2.0987,-2.1513,-2.222,-2.261,-2.2397,-2.2111,-2.205,0.0,0.0,0.0,0.0,-2.7007,-2.984,0.0,0.0,0.0,0.0,0.0,0.0,0.0,0.0,0.0,0.0,0.0,0.0,0.0,0.0,0.0,0.0,0.0,0.0,0.0,-3.6873,-3.7676,-3.8477,-3.9215,-3.9874,-4.0732,-4.0934,-4.0528,-4.1478,-4.1747,-4.1517,0.0,-4.2163,-4.2287,-4.2287,-4.2287,-4.2287,-4.2287,-4.2287,-4.2287,-4.2145,-4.2019,-4.1892,0.0,0.0,0.0,0.0,0.0,0.0,0.0,0.0,0.0,0.0,0.0,0.0,0.0,0.0,0.0,0.0,0.0,0.0,0.0,-1.6823,-1.798,-1.8779,-1.9775,-2.0481,-2.0843,-2.1745,-2.2595,-2.3409,-2.4463,-2.5099,-2.5275,-2.4214,-2.3253,-2.2431,-2.1543,-2.0675,-1.9866,-1.9866,-1.9788,0.0,0.0,0.0,0.0,0.0,0.0,0.0,0.0,0.0,0.0,0.0,0.0,0.0,0.0,0.0,0.0,-1.9268,-1.9087,-1.9141,-1.9322,-2.0427,-2.1512,-2.1634,-2.2224,-2.2995,-2.3764,-2.362,-2.3368,-2.3548,0.0,0.0,0.0,-2.6204,0.0,0.0,0.0,0.0,0.0,0.0,0.0,0.0,0.0,0.0,0.0,0.0,0.0,0.0,0.0,0.0,0.0,0.0,0.0,0.0,0.0,0.0,-3.6301,-3.6904,-3.7793,-3.8898,-3.9729,-3.9841,-3.928,-4.0516,-4.0813,-4.0495,-4.1078,-4.1576,-4.1896,-4.1937,-4.2044,-4.2121,-4.2121,-4.2121,-4.2121,-4.1892,-4.1675,-4.1453,0.0,0.0,0.0,0.0,0.0,0.0,0.0,0.0,0.0,0.0,0.0,0.0,0.0,0.0,0.0,0.0,0.0,0.0,0.0,-1.6298,-1.7146,-1.7962,-1.9467,-2.1006,-2.2491,-2.2721,-2.3217,-2.4044,-2.5218,-2.5944,-2.617,-2.4479,-2.3196,-2.2286,-2.1405,-2.045,-1.9545,-1.9545,-1.9536,-1.9458,0.0,0.0,0.0,0.0,0.0,0.0,0.0,0.0,0.0,0.0,0.0,0.0,0.0,0.0,-1.9159,-1.9105,-1.9087,-1.925,-2.001,-2.0807,-2.158,-2.2239,-2.3073,-2.3869,-2.4577,-2.5254,-2.5955,-2.6709,0.0,0.0,0.0,-2.8174,0.0,0.0,0.0,0.0,0.0,0.0,0.0,0.0,0.0,0.0,0.0,0.0,0.0,0.0,0.0,0.0,0.0,0.0,0.0,0.0,0.0,0.0,-3.6301,-3.6353,-3.6826,-3.7646,-3.8643,-3.9077,-3.9007,-3.9308,-3.9452,-3.9399,-3.964,-4.01,-4.0637,-4.0831,-4.1213,-4.1648,-4.1648,-4.1648,-4.1648,-4.1648,-4.1453,-4.1255,0.0,0.0,0.0,0.0,0.0,0.0,0.0,0.0,0.0,0.0,0.0,0.0,0.0,0.0,0.0,0.0,0.0,0.0,0.0,-1.4958,-1.6316,-1.7128,-1.8705,-2.0065,-2.1188,-2.2319,-2.329,-2.4116,-2.4669,-2.5091,-2.528,-2.3483,-2.2454,-2.2054,-2.0695,-1.987,-1.9499,-1.9509,-1.9156,-1.8605,-1.8259,0.0,0.0,0.0,0.0,0.0,0.0,0.0,0.0,0.0,-1.6063,-1.7128,-1.6914,-1.7892,-1.8996,-1.8506,-1.8361,-1.8526,-1.9288,-2.0047,-2.0822,-2.1514,-2.2701,-2.41,-2.5786,-2.6412,-2.7002,-2.8309,-2.8577,0.0,0.0,0.0,0.0,0.0,0.0,0.0,0.0,0.0,0.0,0.0,0.0,0.0,0.0,0.0,0.0,0.0,0.0,0.0,0.0,0.0,0.0,0.0,0.0,0.0,0.0,-3.6301,-3.6456,-3.6749,-3.7672,-3.7836,-3.7386,-3.8408,-3.8668,-3.8402,-3.8993,-3.9403,-3.9768,-3.9852,-3.9986,-4.02,-4.0709,-4.1095,-4.1363,-4.1363,-4.1226,-4.0995,0.0,0.0,0.0,0.0,0.0,0.0,0.0,0.0,0.0,0.0,0.0,0.0,0.0,0.0,0.0,0.0,0.0,0.0,-1.2676,-1.398,-1.5212,-1.6262,-1.7636,-1.8833,-1.9902,-2.1334,-2.2465,-2.3288,-2.3953,-2.4259,-2.4164,-2.2933,-2.2203,-2.184,-2.0433,-1.9793,-1.9681,-1.9188,-1.8577,-1.7924,-1.7381,-1.6486,0.0,0.0,0.0,0.0,0.0,0.0,0.0,0.0,-1.5379,-1.6284,0.0,-1.7354,-1.8582,-1.8023,-1.8222,-1.8657,-1.8893,-1.9921,-2.1036,-2.1476,-2.2779,-2.4587,-2.6879,-2.7388,-2.7835,-2.9423,-2.9762,-2.9762,-2.9762,0.0,0.0,0.0,0.0,0.0,0.0,0.0,0.0,0.0,0.0,0.0,0.0,0.0,0.0,0.0,0.0,0.0,0.0,0.0,0.0,0.0,0.0,0.0,0.0,-3.6301,-3.6301,-3.6301,-3.6853,-3.6818,-3.6335,-3.7387,-3.7664,-3.7366,-3.8007,-3.8457,-3.8751,-3.8793,-3.8933,-3.9111,-3.9669,-4.0244,-4.0752,-4.0752,-4.0787,-4.0888,0.0,0.0,0.0,0.0,0.0,0.0,0.0,0.0,0.0,0.0,0.0,0.0,0.0,0.0,0.0,0.0,0.0,0.0,-1.4252,-1.3546,-1.3805,-1.5415,-1.6244,-1.7436,-1.9033,-1.9866,-2.068,-2.1495,-2.3175,-2.3695,-2.3093,-2.3078,-2.257,-2.1659,-2.0851,-2.0386,-2.0065,-1.8479,-1.7745,-1.7571,-1.6022,-1.5408,0.0,0.0,0.0,0.0,0.0,0.0,0.0,0.0,-1.5378,-1.5666,-1.7271,0.0,-1.7812,-1.7796,-1.8877,-1.992,-1.9111,-2.0657,-2.2449,-2.2404,-2.362,-2.541,-2.7674,-2.82,-2.8645,-3.0208,-3.0529,-3.0511,-3.0511,0.0,0.0,0.0,0.0,0.0,0.0,0.0,0.0,0.0,0.0,0.0,0.0,0.0,0.0,0.0,0.0,0.0,0.0,0.0,0.0,0.0,0.0,0.0,0.0,-3.6301,-3.6301,-3.6301,-3.6301,-3.6301,-3.6301,-3.6301,-3.6301,-3.6301,-3.6602,-3.6995,-3.7517,-3.7714,-3.8122,-3.8577,-3.8577,-3.9026,-3.9681,-3.9681,-4.0181,-4.0853,0.0,0.0,0.0,0.0,0.0,0.0,0.0,0.0,0.0,0.0,0.0,0.0,0.0,0.0,0.0,0.0,0.0,0.0,-1.3491,-1.3238,-1.3582,-1.4601,-1.4886,-1.5773,-1.7382,-1.8149,-1.9574,-2.1643,-2.2552,-2.2682,-2.2041,-2.1899,-2.1425,-2.0626,-2.0355,-1.9903,-1.9272,-1.8194,-1.773,-1.7606,-1.6584,-1.5849,0.0,0.0,0.0,0.0,0.0,0.0,0.0,0.0,0.0,0.0,-1.5962,0.0,-1.8425,-1.7291,-1.7966,-1.8962,-1.8639,-1.9527,-2.0909,-2.2505,0.0,0.0,0.0,-2.8655,0.0,0.0,-3.1742,-3.1332,-3.1332,0.0,0.0,0.0,0.0,0.0,0.0,0.0,0.0,0.0,0.0,0.0,0.0,0.0,0.0,0.0,0.0,0.0,0.0,0.0,0.0,0.0,0.0,0.0,0.0,-3.6301,-3.6301,-3.6301,-3.6301,-3.6301,-3.6301,-3.6301,-3.6301,-3.6301,-3.6385,-3.6481,-3.6646,-3.673,-3.7154,-3.7818,-3.7818,-3.8267,-3.8922,-3.8922,-3.906,-3.9353,0.0,0.0,0.0,0.0,0.0,0.0,0.0,0.0,0.0,0.0,-1.4465,0.0,0.0,0.0,0.0,0.0,0.0,0.0,0.0,-1.2984,-1.3129,-1.4239,-1.369,-1.4252,-1.6171,-1.7571,-1.8743,-1.9676,-2.0644,-2.0914,-2.0535,-2.1039,-2.1015,-2.0585,-2.0585,-2.0154,-1.9327,-1.7839,-1.7213,-1.7123,-1.6337,-1.5735,-1.5291,0.0,0.0,0.0,0.0,0.0,0.0,0.0,0.0,0.0,-1.5089,0.0,-1.7375,-1.7021,-1.7986,-1.9209,-1.9374,-2.0255,0.0,-2.3137,-2.4617,-2.6207,-2.8404,0.0,0.0,0.0,-3.2147,-3.1653,-3.1891,0.0,0.0,0.0,0.0,0.0,0.0,0.0,0.0,0.0,0.0,0.0,0.0,0.0,0.0,0.0,0.0,0.0,0.0,0.0,0.0,0.0,0.0,0.0,-3.5421,-3.5714,-3.5852,-3.587,-3.6163,-3.6301,-3.6301,-3.6301,-3.6301,-3.6301,-3.6301,-3.6301,-3.6301,-3.6301,-3.6577,-3.7008,-3.7008,-3.7473,-3.8146,-3.8146,-3.8336,-3.8646,0.0,0.0,0.0,0.0,0.0,0.0,0.0,0.0,0.0,0.0,-1.4459,-1.4465,0.0,0.0,0.0,0.0,0.0,0.0,0.0,-1.2857,-1.2694,-1.4221,-1.3038,-1.3364,-1.556,-1.7697,-1.8026,-1.6484,-1.8035,-1.8789,-1.8807,-2.0293,-2.0974,-2.0974,-2.1051,-2.0638,-1.9739,-1.7392,-1.6393,-1.6326,-1.5579,-1.5201,-1.509,-1.5216,0.0,0.0,0.0,0.0,0.0,0.0,0.0,0.0,-1.4599,-1.498,-1.5444,-1.6783,-1.8461,-2.0028,-2.0562,-2.1953,-2.3411,-2.4112,-2.5006,0.0,-2.9285,-3.079,-3.1777,-3.2429,0.0,0.0,0.0,0.0,0.0,0.0,0.0,0.0,0.0,0.0,0.0,0.0,0.0,0.0,0.0,0.0,0.0,0.0,0.0,0.0,0.0,0.0,0.0,0.0,0.0,0.0,-3.4093,-3.4749,-3.5094,0.0,-3.5783,-3.6094,-3.6094,-3.6232,-3.6301,-3.6301,-3.6301,-3.6301,-3.6301,-3.6301,-3.6301,-3.6301,-3.6301,-3.6749,-3.737,-3.737,-3.7801,-3.8387,0.0,0.0,0.0,0.0,0.0,0.0,0.0,0.0,0.0,0.0,0.0,0.0,0.0,0.0,0.0,0.0,0.0,0.0,0.0,-1.3383,-1.3274,-1.4257,-1.5175,-1.5914,-1.6439,-1.6872,-1.6643,-1.5656,-1.7207,-1.7929,-1.7913,-1.8878,-1.9343,-1.938,-1.9343,-1.8932,-1.8108,-1.6304,-1.5877,-1.631,-1.542,-1.5057,-1.5009,-1.4946,-1.4393,0.0,0.0,0.0,0.0,0.0,0.0,0.0,-1.457,-1.5263,-1.5749,-1.5454,-1.7196,-1.9127,-1.8684,-2.0584,0.0,-2.4452,-2.6504,-2.8378,-2.9194,-3.0179,-3.1184,-3.2142,-3.2229,0.0,0.0,0.0,0.0,0.0,0.0,0.0,0.0,0.0,0.0,0.0,0.0,0.0,0.0,0.0,0.0,0.0,0.0,0.0,0.0,0.0,0.0,0.0,0.0,-3.3455,-3.4076,-3.4249,-3.4335,0.0,-3.449,-3.4559,-3.4594,-3.5766,-3.6301,-3.6301,-3.6301,-3.6301,-3.6301,-3.6301,-3.6301,-3.6301,-3.6301,-3.6404,-3.6559,-3.6559,-3.6663,-3.687,0.0,0.0,0.0,0.0,0.0,0.0,0.0,0.0,0.0,0.0,0.0,0.0,0.0,0.0,0.0,0.0,0.0,0.0,0.0,-1.271,-1.2848,-1.3678,-1.4904,-1.5356,-1.4989,-1.5288,-1.5062,-1.4252,-1.5024,-1.5964,-1.7058,-1.8646,-1.9592,-1.9933,-1.9443,-1.8875,-1.8092,-1.5968,-1.5319,-1.5683,-1.5135,-1.4637,-1.4241,-1.4259,-1.3503,-1.2496,-1.2931,0.0,0.0,0.0,0.0,0.0,0.0,0.0,-1.4779,-1.514,-1.6561,-1.818,-1.8836,0.0,0.0,-2.4151,0.0,-2.8321,-2.8405,-2.9104,-3.0016,-3.0932,0.0,0.0,0.0,0.0,0.0,0.0,0.0,0.0,0.0,0.0,0.0,0.0,0.0,0.0,0.0,0.0,0.0,0.0,0.0,0.0,0.0,0.0,0.0,0.0,-3.2369,-3.2559,-3.299,-3.3352,-3.3524,-3.3524,-3.3904,-3.4194,-3.4366,-3.533,-3.5973,-3.6301,-3.6301,-3.6301,-3.6301,-3.6301,-3.6301,-3.6301,-3.6301,-3.6301,-3.6301,-3.6276,-3.6233,-3.6302,0.0,0.0,0.0,0.0,0.0,0.0,0.0,0.0,0.0,0.0,0.0,0.0,0.0,0.0,0.0,0.0,0.0,0.0,0.0,-1.1819,-1.2266,-1.3262,-1.3932,-1.404,-1.3527,-1.3954,-1.3861,-1.3214,-1.3114,-1.4268,-1.6647,-1.8503,-1.9822,-2.0601,-1.9578,-1.8834,-1.8164,-1.5556,-1.4512,-1.4588,-1.4309,-1.3714,-1.3035,-1.3163,-1.2363,-1.1239,-1.1949,-1.2301,-1.2478,-1.2939,0.0,0.0,0.0,0.0,-1.3531,-1.4856,-1.5938,-1.711,-1.8898,-2.028,-2.1684,-2.3792,-2.5765,0.0,-2.7231,-2.7851,-2.859,0.0,0.0,0.0,0.0,0.0,0.0,0.0,0.0,0.0,0.0,0.0,0.0,0.0,0.0,0.0,0.0,0.0,0.0,0.0,0.0,0.0,0.0,0.0,-3.18,-3.18,-3.18,-3.18,-3.18,-3.2403,-3.2714,-3.2676,-3.3348,-3.3865,-3.4292,-3.4627,-3.5283,-3.6195,-3.6274,-3.6301,-3.6301,-3.6301,-3.6259,-3.6259,-3.6259,-3.6259,-3.6259,-3.6208,-3.6182,-3.6122,0.0,0.0,0.0,0.0,0.0,0.0,0.0,0.0,0.0,0.0,-1.3817,-1.3923,-1.2956,-1.2938,0.0,0.0,0.0,0.0,-1.1877,0.0,0.0,-1.4058,-1.4239,-1.4583,-1.5162,-1.4531,-1.4149,-1.4033,-1.3793,-1.4978,-1.7431,-1.7058,-1.7577,-1.879,-1.7436,-1.6709,-1.6308,-1.4041,-1.3071,-1.3018,-1.2057,-1.1619,-1.1474,-1.133,-1.1139,-1.096,-1.1072,-1.1523,-1.209,-1.2157,-1.2606,0.0,0.0,0.0,0.0,-1.3388,-1.4441,-1.5616,-1.6017,0.0,-2.1709,0.0,-2.5263,-2.573,0.0,0.0,0.0,0.0,0.0,0.0,0.0,0.0,0.0,0.0,0.0,0.0,0.0,0.0,0.0,0.0,0.0,0.0,0.0,0.0,0.0,0.0,0.0,0.0,0.0,-3.18,-3.18,-3.18,-3.18,-3.18,-3.18,-3.1903,-3.1901,-3.1771,-3.1833,-3.2265,-3.3055,-3.2985,-3.3973,-3.5815,-3.6132,-3.6301,-3.6301,-3.6251,-3.6208,-3.6208,-3.6062,-3.6062,-3.6062,-3.6019,-3.6019,-3.6019,0.0,0.0,0.0,0.0,0.0,0.0,0.0,0.0,0.0,0.0,0.0,-1.3177,-1.2269,-1.2198,0.0,0.0,0.0,0.0,-1.0968,-1.0621,0.0,-1.2824,-1.2423,-1.2374,-1.2798,-1.2399,-1.24,-1.2867,-1.2281,-1.392,-1.7592,-1.6622,-1.7679,-2.0263,-1.8705,-1.7683,-1.6917,-1.4059,-1.2695,-1.2387,-1.1391,-1.1473,-1.2073,-1.072,-1.0725,-1.1286,-1.0511,-1.0444,-1.0839,-1.1662,-1.2157,-1.2521,-1.2951,0.0,0.0,0.0,-1.3847,-1.504,-1.6617,-1.8814,-2.1114,0.0,-2.4211,-2.49,-2.4977,0.0,0.0,0.0,0.0,0.0,0.0,0.0,0.0,0.0,0.0,0.0,0.0,0.0,0.0,0.0,0.0,0.0,0.0,0.0,0.0,0.0,0.0,0.0,-3.1614,-3.1614,-3.1614,-3.1614,-3.1614,0.0,-3.1614,-3.1614,-3.1614,-3.1538,-3.1691,-3.1994,-3.2377,-3.2717,-3.3511,-3.4673,-3.527,-3.553,-3.5565,-3.5951,-3.6079,-3.6079,-3.6019,-3.6019,-3.5975,-3.5905,-3.5905,-3.5905,0.0,0.0,0.0,0.0,0.0,0.0,0.0,0.0,0.0,0.0,0.0,0.0,-1.1706,0.0,0.0,0.0,0.0,0.0,-0.9955,0.0,0.0,0.0,-1.0859,-1.0558,-1.0673,-1.0614,-1.0859,-1.1448,-1.0986,-1.3037,-1.7418,-1.6741,-1.8353,-2.1754,-1.9998,-1.8579,-1.7335,-1.4452,-1.3037,-1.2623,-1.1695,-1.199,-1.2808,-1.1449,-1.1576,-1.2302,-1.0865,-1.0493,-1.0768,0.0,0.0,0.0,0.0,0.0,0.0,0.0,0.0,-1.4133,0.0,0.0,-1.9654,-2.1422,-2.2782,-2.377,0.0,0.0,0.0,0.0,0.0,0.0,0.0,0.0,0.0,0.0,0.0,0.0,0.0,0.0,0.0,0.0,0.0,0.0,0.0,0.0,0.0,0.0,0.0,0.0,-3.1517,-3.1517,-3.1517,-3.1517,-3.1517,-3.1517,-3.1517,-3.1462,-3.1462,-3.1517,-3.1711,-3.1804,-3.1841,-3.2357,-3.2827,-3.3179,-3.4199,-3.4711,-3.4916,-3.5463,-3.5761,-3.5949,-3.5888,-3.5888,-3.5888,-3.5817,-3.5773,-3.5728,0.0,0.0,0.0,0.0,0.0,0.0,0.0,0.0,0.0,0.0,0.0,0.0,-1.1508,-1.1399,-1.0818,-0.9329,0.0,0.0,0.0,0.0,0.0,0.0,0.0,0.0,-1.0596,-1.055,-1.0486,-1.0471,-1.0933,-1.3149,-1.6949,-1.7403,-1.9143,-2.1819,-1.9875,-1.8065,-1.638,-1.4788,-1.4122,-1.4022,-1.3139,-1.2836,-1.2994,-1.3919,-1.4316,-1.4167,-1.2686,-1.2607,0.0,0.0,0.0,0.0,0.0,-1.1958,-1.1827,0.0,0.0,0.0,0.0,-1.5212,0.0,-1.9706,-2.0953,0.0,0.0,0.0,0.0,0.0,0.0,0.0,0.0,0.0,0.0,0.0,0.0,0.0,0.0,0.0,0.0,0.0,0.0,0.0,0.0,0.0,0.0,0.0,0.0,0.0,-3.1517,-3.1517,-3.1517,-3.1517,-3.1517,-3.1517,-3.1517,-3.1351,-3.1351,-3.1517,-3.1308,-3.1274,-3.1334,-3.1286,-3.1314,-3.1433,-3.311,-3.4233,-3.4882,-3.4815,-3.5171,-3.5817,-3.5667,-3.5622,-3.5622,-3.5622,-3.5622,-3.5622,0.0,0.0,0.0,0.0,0.0,0.0,0.0,0.0,0.0,0.0,0.0,0.0,0.0,-1.0679,-1.0273,-0.923,-0.9081,0.0,0.0,0.0,0.0,0.0,0.0,0.0,-0.963,-0.9575,-0.9787,-1.0273,-0.9938,-1.173,-1.5485,-1.4967,-1.6072,-1.8449,-1.8713,-1.8326,-1.7306,-1.4497,-1.3563,-1.392,-1.2816,-1.3563,-1.5185,-1.4322,-1.4868,-1.588,-1.3955,0.0,0.0,0.0,0.0,0.0,-1.2611,-1.2252,-1.1761,-1.1023,-1.1335,-1.2187,0.0,0.0,0.0,-1.8297,-1.9787,-2.092,0.0,0.0,0.0,0.0,0.0,0.0,0.0,0.0,0.0,0.0,0.0,0.0,0.0,0.0,0.0,0.0,0.0,0.0,0.0,0.0,0.0,0.0,0.0,0.0,-2.9898,-2.9898,-2.9898,-2.9898,-2.9898,-3.0119,-3.0611,-3.0556,-3.0794,-3.1325,-3.123,-3.123,-3.1252,-3.123,-3.119,-3.1224,-3.1845,-3.253,-3.3277,-3.4185,-3.4745,-3.4989,-3.5436,-3.5622,-3.5622,-3.5622,-3.5622,-3.5622,0.0,0.0,0.0,0.0,0.0,0.0,0.0,0.0,-0.9422,-1.0384,0.0,0.0,0.0,0.0,-0.9887,-0.9103,-0.9151,-0.9128,-0.8886,-0.8936,0.0,0.0,0.0,0.0,-0.9064,-0.8979,-0.9185,-0.9732,-0.9423,-1.0805,-1.3718,-1.324,-1.4175,-1.6337,-1.6592,-1.7107,-1.7601,-1.5259,-1.4449,-1.4742,-1.4124,-1.5049,-1.6678,-1.593,-1.6578,-1.7651,0.0,0.0,0.0,0.0,0.0,0.0,-1.3123,-1.2142,-1.0976,-1.0243,-1.0731,-1.1695,-1.2571,0.0,0.0,0.0,0.0,-1.9301,0.0,0.0,0.0,0.0,0.0,0.0,0.0,0.0,0.0,0.0,0.0,0.0,0.0,0.0,0.0,0.0,0.0,0.0,0.0,0.0,0.0,0.0,0.0,0.0,-2.8975,-2.9011,-2.9011,-2.9011,-2.9011,-2.9228,-2.9736,-2.9736,-3.0108,-3.0835,-3.0835,-3.0954,-3.119,-3.119,-3.119,-3.119,-3.119,-3.1613,-3.2398,-3.3339,-3.4049,-3.4539,-3.5047,-3.5402,-3.5622,-3.5622,-3.5622,-3.5622,0.0,0.0,0.0,0.0,0.0,0.0,0.0,0.0,-0.9477,-1.0691,0.0,0.0,0.0,0.0,0.0,-0.9015,-0.9412,-0.9455,-0.8878,-0.8863,0.0,0.0,0.0,0.0,-0.8981,-0.8852,-0.8794,-0.8794,-0.9434,-1.0444,-1.1743,-1.2407,-1.3828,-1.5787,-1.3682,-1.4335,-1.6953,-1.6937,-1.6818,-1.6644,-1.7108,-1.7233,-1.7288,-1.8862,-1.9551,0.0,-1.7988,-1.7449,0.0,-1.6069,0.0,0.0,-1.3598,-1.1574,-0.9509,-0.8769,-0.9604,-1.0767,0.0,0.0,0.0,0.0,0.0,0.0,0.0,0.0,0.0,0.0,0.0,0.0,0.0,0.0,0.0,0.0,0.0,0.0,0.0,0.0,0.0,0.0,0.0,0.0,0.0,0.0,0.0,0.0,0.0,-2.8503,-2.8907,-2.8943,-2.8943,-2.8943,-2.8943,-2.8924,-2.8941,-2.8941,-2.933,-3.0074,-3.0074,-3.0446,-3.114,-3.1157,-3.1157,-3.1157,-3.119,-3.1596,-3.2297,-3.2273,-3.3119,-3.4438,-3.4455,-3.4928,-3.5588,-3.5588,-3.5605,-3.5622,0.0,0.0,0.0,0.0,0.0,-1.1727,-1.0854,-1.0062,-0.9692,0.0,0.0,0.0,-0.9252,-0.943,-0.9742,-1.0154,-0.9805,-0.9542,-0.9533,-0.9047,-0.8736,-0.8684,-0.8672,-0.8672,-0.8712,-0.8681,-0.8645,-0.8645,-0.8791,-0.9322,-1.0216,-1.0395,-1.1351,-1.2873,-1.2235,-1.2684,-1.3875,-1.3247,-1.4361,-1.6443,-1.5591,-1.6353,0.0,0.0,0.0,0.0,0.0,-1.8259,-1.8003,0.0,-1.6992,-1.587,0.0,-1.1943,-1.0678,-0.9825,-1.0843,-1.2078,-1.1388,0.0,0.0,0.0,0.0,0.0,0.0,0.0,0.0,0.0,0.0,0.0,0.0,0.0,0.0,0.0,0.0,0.0,0.0,0.0,0.0,0.0,0.0,0.0,0.0,0.0,0.0,0.0,-2.7178,-2.7213,-2.7334,-2.7334,-2.7334,-2.7334,-2.7334,-2.7588,-2.8146,-2.8146,-2.8535,-2.9296,-2.9296,-2.9397,-2.9617,-3.0159,-3.0412,-3.0429,-3.097,-3.1309,-3.1546,-3.207,-3.2527,-3.2949,-3.3491,-3.415,-3.4793,-3.4793,-3.5148,-3.5622,0.0,0.0,0.0,-1.2506,-1.224,-1.199,-1.1679,-1.0993,-1.0573,0.0,0.0,0.0,-0.9311,-1.0001,-1.052,-1.0607,-1.0127,-0.9804,-0.9768,-0.9009,-0.8579,-0.8608,-0.8513,-0.8501,-0.8554,-0.8558,-0.8562,-0.8562,-0.8521,-0.8718,-0.9138,-0.9108,-0.9704,-1.0768,-1.0383,-1.0766,-1.1637,-1.0734,-1.2298,0.0,-1.5506,0.0,0.0,-1.8041,-1.8394,0.0,0.0,0.0,-1.8462,-1.8389,-1.7713,0.0,0.0,0.0,-1.2429,-1.1137,-1.1917,-1.3036,-1.2266,-1.2979,-1.4063,0.0,0.0,0.0,0.0,-1.6569,0.0,0.0,0.0,0.0,0.0,0.0,0.0,0.0,0.0,0.0,0.0,0.0,0.0,0.0,0.0,0.0,0.0,0.0,0.0,0.0,-2.635,-2.6505,-2.6691,-2.6691,-2.6691,-2.6691,-2.6691,-2.6911,-2.7351,-2.7351,-2.774,-2.8501,-2.8501,-2.867,-2.8991,-2.9448,-2.9803,-3.0125,-3.0548,-3.092,-3.1224,-3.1647,-3.2002,-3.2324,-3.2763,-3.3389,-3.4083,-3.4387,-3.4776,-3.5199,0.0,0.0,-1.2421,-1.2718,-1.2297,-1.2152,-1.2783,-1.2058,-1.1656,0.0,-1.1206,-1.0428,-1.0565,-1.1398,-1.1668,-1.095,-1.0565,-1.0207,-0.989,-0.8987,-0.8495,-0.8562,-0.8403,-0.8361,-0.8483,-0.8483,-0.8483,-0.8483,-0.8483,-0.8483,-0.8495,-0.8428,-0.8751,-0.9342,-0.8621,-0.8948,-0.9998,-0.944,-1.0902,-1.3804,-1.5885,-1.6833,0.0,0.0,-1.8679,-1.876,-1.8711,-1.8673,-1.8673,-1.8556,-1.7916,0.0,0.0,0.0,0.0,0.0,-1.3097,-1.3995,-1.3422,-1.3758,-1.4562,0.0,0.0,0.0,-1.72,-1.6526,0.0,0.0,0.0,0.0,0.0,0.0,0.0,0.0,0.0,0.0,0.0,0.0,0.0,0.0,0.0,0.0,0.0,0.0,-2.4997,-2.5371,-2.5713,-2.6115,-2.6556,-2.6573,-2.6607,-2.6691,-2.6691,-2.6691,-2.6691,-2.6691,-2.7029,-2.7689,-2.7689,-2.8061,-2.8738,-2.8822,-2.9211,-2.9854,-3.004,-3.048,-3.1072,-3.1157,-3.1579,-3.2195,-3.2195,-3.2628,-3.3372,-3.3998,-3.4303,-3.4472,0.0,-1.13,-1.2472,-1.2546,-1.2337,-1.2571,-1.3803,-1.2344,-1.1493,-1.2636,-1.2039,-1.1863,-1.2826,-1.2185,-1.2104,-1.3137,-1.1739,-1.0791,-1.0807,-0.9655,-0.8781,-0.838,-0.8322,-0.8322,-0.8335,-0.8348,-0.8348,-0.8348,-0.8348,-0.8361,-0.8428,-0.8415,-0.8453,-0.8525,-0.8305,-0.8304,-0.8559,-1.0269,0.0,-1.2596,-1.347,0.0,-1.7553,-1.7749,-1.812,-1.8556,-1.8556,-1.8556,-1.8556,-1.8517,-1.8087,-1.7441,0.0,0.0,0.0,-1.4674,-1.5213,-1.595,-1.508,-1.5505,0.0,0.0,0.0,0.0,-1.4321,-1.3845,0.0,0.0,0.0,0.0,0.0,0.0,0.0,0.0,0.0,0.0,0.0,0.0,0.0,0.0,0.0,0.0,0.0,0.0,-2.4594,-2.4691,-2.4772,-2.5105,-2.5795,-2.5812,-2.6099,-2.6674,-2.6691,-2.6691,-2.6691,-2.6691,-2.6776,-2.6911,-2.6911,-2.6996,-2.7165,-2.7774,-2.8129,-2.8332,-2.9567,-3.0192,-3.0362,-3.0954,-3.1275,-3.141,-3.141,-3.185,-3.251,-3.2703,-3.3077,-3.3549,-1.0428,-1.0831,-1.139,-1.1648,-1.1908,-1.2497,-1.3855,-1.3091,-1.2794,-1.4031,-1.3756,-1.342,-1.3368,-1.3041,-1.2939,-1.3198,-1.197,-1.1012,-1.0577,-0.9517,-0.8667,-0.8181,-0.8051,-0.8175,-0.8586,-0.8305,-0.8333,-0.8688,-0.8357,-0.8253,-0.8348,-0.8325,-0.8592,-0.9081,-0.8712,-0.8786,-0.9239,-1.0107,-1.1078,-1.2244,-1.4095,0.0,-1.753,-1.7789,-1.8018,-1.8202,-1.8202,-1.8202,-1.8161,-1.7974,-1.7939,0.0,0.0,-1.7001,-1.7198,0.0,-1.6527,-1.7059,-1.6304,0.0,0.0,-1.5845,0.0,0.0,0.0,0.0,-1.401,0.0,0.0,0.0,0.0,0.0,0.0,0.0,0.0,0.0,0.0,0.0,0.0,0.0,0.0,0.0,0.0,0.0,-2.4113,-2.4475,-2.4506,-2.4675,-2.5033,-2.505,-2.5389,-2.6133,-2.615,-2.6336,-2.6691,-2.6691,-2.6691,-2.6691,-2.6691,-2.6691,-2.6708,-2.708,-2.7469,-2.7823,-2.8636,-2.9141,-2.9526,-3.0251,-3.0516,-3.0527,-3.092,-3.1331,-3.1702,-3.2032,-3.2337,-3.2681,-1.0594,-1.0279,-1.0193,-1.0606,-1.1197,-1.2037,-1.3357,-1.3371,-1.3712,-1.5067,-1.5206,-1.4823,-1.3798,-1.4023,-1.3911,-1.3088,-1.2206,-1.133,-1.0455,-0.9434,-0.8682,-0.8258,-0.7857,-0.8019,-0.8781,-0.8199,-0.8198,-0.8804,-0.8269,-0.809,-0.824,-0.8178,-0.8697,-0.9688,-0.9198,-0.9512,-1.0369,0.0,0.0,-1.2717,0.0,-1.6661,-1.7066,-1.7747,-1.7918,-1.7799,-1.7882,-1.7882,-1.7854,-1.7559,-1.7802,-1.8062,-1.7278,-1.7679,0.0,0.0,0.0,0.0,0.0,0.0,0.0,0.0,0.0,-1.5549,0.0,0.0,0.0,-1.5577,0.0,0.0,0.0,0.0,0.0,0.0,0.0,0.0,0.0,0.0,0.0,0.0,0.0,0.0,0.0,0.0,-2.3078,-2.4005,-2.3752,-2.3769,-2.4269,-2.4303,-2.4611,-2.5372,-2.5389,-2.5744,-2.6471,-2.6488,-2.6556,-2.6691,-2.6691,-2.6691,-2.6691,-2.6708,-2.7012,-2.7587,-2.7703,-2.8073,-2.8622,-2.9345,-2.971,-2.9867,-3.065,-3.0975,-3.1059,-3.1599,-3.1775,-3.1842,-0.8259,-0.9134,-0.9901,-0.9847,-1.024,-1.1038,-1.2419,-1.2047,-1.223,-1.4027,-1.5015,-1.5602,-1.5743,-1.5154,-1.4777,-1.4886,-1.335,-1.2259,-1.1883,-1.0321,-0.9307,-0.9072,-0.8068,-0.7786,-0.8354,-0.7831,-0.7633,-0.7767,-0.7694,-0.7797,-0.8023,-0.797,-0.8319,-0.9008,-0.9184,-0.969,-1.0455,0.0,-1.2636,0.0,-1.5206,-1.5674,0.0,-1.6996,-1.7401,-1.7394,-1.7772,-1.7882,-1.7909,0.0,-1.8133,-1.8214,0.0,-1.8288,-1.8254,-1.8271,0.0,0.0,0.0,0.0,0.0,0.0,-1.7022,0.0,0.0,0.0,-1.449,-1.3558,0.0,0.0,0.0,0.0,0.0,0.0,0.0,0.0,0.0,0.0,0.0,0.0,0.0,0.0,0.0,0.0,0.0,-2.2434,-2.1116,-2.1217,-2.341,-2.3511,-2.3849,-2.4594,-2.4611,-2.4966,-2.5727,-2.5727,-2.6048,-2.6691,-2.6691,-2.6691,-2.6691,-2.6623,-2.6657,-2.6774,-2.7343,-2.7679,-2.7777,-2.8531,-2.9235,-2.9867,-3.0627,-3.0912,-3.0929,-3.1012,-3.0948,-3.0866,-0.8111,-0.8561,-0.8902,-0.8899,-0.9603,-1.0469,-1.1381,-1.2622,-1.3767,-1.4679,-1.5544,-1.6059,-1.6028,-1.5531,-1.5042,-1.4633,0.0,-1.3155,0.0,0.0,-1.0266,-1.0017,-0.8924,-0.8585,-0.9144,-0.8268,-0.784,-0.7943,-0.7606,-0.753,-0.7709,-0.7724,-0.8409,-0.9643,-0.9733,0.0,-1.2257,0.0,-1.284,0.0,0.0,0.0,0.0,-1.6756,-1.733,-1.7237,-1.745,-1.7502,-1.7476,0.0,-1.749,0.0,0.0,0.0,0.0,0.0,0.0,0.0,0.0,0.0,0.0,0.0,0.0,0.0,-1.524,0.0,-1.4766,0.0,0.0,0.0,0.0,0.0,0.0,0.0,0.0,0.0,0.0,0.0,0.0,0.0,0.0,0.0,0.0,0.0,0.0,0.0,0.0,-2.0602,-2.2637,-2.2767,-2.3105,-2.3833,-2.3849,-2.4205,-2.4949,-2.4949,-2.5321,-2.6065,-2.6032,-2.6236,-2.6623,-2.6572,-2.6554,-2.6571,-2.6838,-2.6937,-2.6883,-2.7634,-2.8098,-2.846,-2.9609,-3.0349,-3.0773,-3.0692,-3.0651,-3.0551,-0.7936,-0.794,-0.7885,-0.8018,-0.8906,-0.9859,-1.0686,-1.2684,-1.4306,-1.4799,-1.5434,-1.5815,-1.5802,-1.5503,0.0,0.0,-1.4298,-1.3655,0.0,0.0,-1.1086,-1.0964,-0.9893,-0.9479,-0.9893,-0.8772,-0.8153,-0.8108,-0.7521,-0.7381,-0.7693,-0.7569,-0.8379,-0.9932,-1.0148,-1.1396,-1.3295,0.0,-1.3404,-1.4278,-1.448,-1.474,-1.5194,-1.669,-1.722,-1.7199,-1.7199,-1.7199,-1.7175,-1.6917,-1.713,0.0,-1.7221,0.0,0.0,0.0,0.0,0.0,-1.8083,0.0,0.0,0.0,0.0,0.0,0.0,0.0,0.0,0.0,0.0,0.0,0.0,0.0,0.0,0.0,0.0,0.0,0.0,0.0,0.0,0.0,0.0,0.0,0.0,0.0,0.0,0.0,0.0,0.0,-2.1877,-2.2006,-2.2344,-2.3071,-2.3105,-2.3444,-2.4201,-2.4188,-2.4529,-2.5272,-2.5427,-2.5748,-2.6286,-2.6385,-2.6434,-2.6434,-2.6415,-2.6364,-2.631,-2.6859,-2.7155,-2.7417,-2.8423,-2.9324,-3.0102,-3.0377,-3.0526,-3.0526,-0.7096,-0.7035,-0.704,-0.737,-0.8054,-0.905,-1.0583,-1.1417,-1.2367,-1.37,0.0,0.0,0.0,0.0,0.0,0.0,0.0,-1.3477,-1.3167,0.0,-1.1661,-1.1858,-1.0845,-1.0235,0.0,-0.9143,-0.8365,-0.7912,-0.7299,-0.7421,-0.816,-0.7587,-0.801,-0.9267,-1.0171,-1.1344,-1.2704,-1.3556,-1.4937,-1.6452,-1.5732,-1.6023,-1.6876,0.0,-1.6877,-1.7199,-1.7199,0.0,0.0,-1.7421,-1.7503,0.0,0.0,0.0,0.0,0.0,0.0,0.0,0.0,0.0,0.0,-1.6427,0.0,0.0,0.0,0.0,-1.5148,0.0,0.0,0.0,0.0,0.0,-1.5017,-1.402,0.0,0.0,0.0,0.0,0.0,0.0,0.0,0.0,0.0,0.0,0.0,0.0,0.0,0.0,-2.1059,-2.1254,-2.1566,-2.231,-2.2344,-2.2699,-2.3427,-2.3384,-2.3725,-2.445,-2.5077,-2.5413,-2.5464,-2.6048,-2.6295,-2.6295,-2.6239,-2.622,-2.622,-2.6236,-2.6651,-2.7317,-2.7367,-2.7831,-2.8661,-3.0013,-3.0526,-3.0526,-0.7113,-0.7055,-0.7114,-0.7417,-0.7932,-0.889,-1.065,-1.1472,-1.2437,0.0,0.0,0.0,0.0,-1.4926,-1.4617,0.0,0.0,-1.4038,-1.3423,-1.3311,0.0,0.0,0.0,-1.2234,0.0,-1.0687,-0.9878,-0.8964,-0.8352,-0.8207,-0.8458,-0.7941,-0.8347,-0.9559,-1.0234,-1.1656,0.0,0.0,0.0,0.0,0.0,-1.6022,-1.6976,0.0,0.0,-1.7199,-1.7199,-1.7199,0.0,-1.7282,-1.7323,-1.7323,-1.7406,-1.7365,-1.7323,-1.7282,-1.7406,0.0,0.0,0.0,-1.7464,-1.6813,0.0,0.0,0.0,0.0,0.0,0.0,0.0,0.0,0.0,0.0,-1.4958,-1.4219,-1.3954,-1.3389,0.0,0.0,0.0,0.0,0.0,0.0,0.0,0.0,0.0,0.0,0.0,0.0,0.0,-2.164,-2.204,-2.2293,-2.231,-2.24,-2.2596,-2.2567,-2.2908,-2.36,-2.3742,-2.4328,-2.528,-2.5445,-2.5758,-2.6222,-2.6203,-2.622,-2.622,-2.622,-2.6352,-2.6617,-2.7098,-2.7466,-2.7864,-2.9251,-2.9781,-2.9847,-0.7077,-0.7136,-0.7282,0.0,0.0,-0.9204,-1.078,0.0,0.0,0.0,-1.3806,0.0,-1.4448,0.0,-1.405,0.0,-1.4003,-1.3979,-1.3496,-1.3725,0.0,-1.3636,-1.371,0.0,0.0,-1.1709,-1.0883,-0.9742,-0.911,-0.8839,-0.8826,-0.8345,-0.8663,-0.9661,0.0,-1.1796,-1.367,-1.4507,-1.5232,0.0,0.0,-1.6276,0.0,0.0,-1.7115,-1.7115,0.0,-1.7073,-1.7073,-1.7073,-1.7073,-1.7073,-1.7073,-1.7073,-1.7073,-1.7002,-1.7115,-1.7282,-1.7225,-1.7253,0.0,-1.6718,-1.6178,0.0,-1.526,0.0,0.0,0.0,0.0,0.0,0.0,0.0,-1.5375,-1.4528,-1.4062,-1.3347,0.0,0.0,0.0,0.0,0.0,0.0,0.0,0.0,-1.6047,-1.7906,0.0,0.0,0.0,0.0,-2.1653,-2.2237,-2.2237,-2.2163,-2.2135,-2.2123,-2.23,-2.2739,-2.2898,-2.3466,-2.4397,-2.4614,-2.5127,-2.5822,-2.5822,-2.5971,-2.622,-2.622,-2.622,-2.627,-2.6717,-2.6899,-2.7098,-2.8787,-2.9582,-2.988,-0.6955,0.0,0.0,0.0,-0.8755,0.0,0.0,0.0,-1.1809,0.0,-1.2898,-1.294,-1.3168,-1.317,-1.317,-1.317,-1.317,-1.3218,-1.3372,-1.3472,0.0,0.0,-1.3651,-1.3449,-1.2776,-1.2224,-1.1419,-1.0331,-0.9604,-0.9305,-0.9367,-0.8817,-0.8896,-0.959,-1.0703,0.0,-1.3031,-1.4637,-1.593,-1.6876,-1.6876,-1.6803,-1.6718,-1.6803,0.0,-1.696,-1.6918,-1.6876,-1.6876,-1.6876,-1.6876,-1.6876,-1.6876,-1.6876,-1.6876,-1.6876,-1.6876,-1.6876,-1.6876,-1.6876,-1.6747,-1.6181,0.0,0.0,0.0,0.0,-1.623,0.0,0.0,0.0,0.0,0.0,0.0,-1.4906,-1.4181,-1.3332,0.0,0.0,0.0,0.0,0.0,0.0,0.0,-1.3367,-1.353,-1.6783,-1.5147,0.0,0.0,0.0,0.0,-2.2084,-2.2044,-2.1998,-2.1998,-2.194,-2.1899,-2.1899,-2.2524,-2.2857,-2.2924,-2.3619,-2.4365,-2.511,-2.511,-2.5524,-2.622,-2.622,-2.622,-2.622,-2.622,-2.6236,-2.6482,-2.8588,-2.9831,-3.0477,-0.6838,-0.7349,-0.7893,0.0,-0.9012,-0.9985,0.0,0.0,0.0,0.0,-1.2666,-1.2579,-1.2812,-1.2813,-1.2813,-1.2813,-1.291,0.0,0.0,0.0,0.0,-1.3424,-1.4339,-1.4399,-1.3452,-1.2857,0.0,-1.2058,0.0,-1.011,-1.0546,-0.9557,-0.9427,-1.0043,0.0,0.0,-1.3485,-1.4769,-1.585,-1.6761,-1.6761,-1.6718,0.0,0.0,-1.625,-1.6293,-1.6748,-1.6637,-1.6355,-1.6778,-1.6637,-1.6355,-1.6778,-1.6876,-1.6876,-1.6761,-1.6803,-1.6876,-1.6761,-1.6803,-1.6837,-1.6709,-1.6309,-1.5964,0.0,0.0,0.0,0.0,0.0,0.0,0.0,0.0,0.0,-1.4796,-1.4169,-1.3856,0.0,0.0,0.0,0.0,0.0,0.0,0.0,0.0,-1.4754,-1.4615,0.0,0.0,0.0,0.0,0.0,-2.1273,-2.1776,-2.1969,-2.1928,-2.1911,-2.1869,-2.1827,-2.201,-2.2361,-2.2907,-2.3089,-2.3884,-2.511,-2.511,-2.5524,-2.622,-2.622,-2.622,-2.622,-2.622,-2.6462,-2.7019,-2.8202,-2.9085,-2.9781,-0.6528,0.0,0.0,-0.8696,0.0,0.0,-1.1075,0.0,0.0,-1.2735,-1.2666,0.0,-1.2706,-1.2421,-1.2323,-1.2578,-1.251,0.0,-1.2978,0.0,0.0,-1.3314,-1.3946,-1.406,-1.3493,-1.314,0.0,-1.1995,0.0,-1.0467,-1.0005,-0.9704,-0.9638,-0.9827,0.0,-1.2006,-1.319,-1.4588,-1.5608,-1.6306,-1.6088,0.0,0.0,-1.602,-1.6032,-1.625,-1.638,-1.6095,-1.57,-1.6032,-1.5888,-1.5744,-1.6238,-1.6423,-1.6423,-1.6565,-1.6663,-1.6705,-1.662,-1.6663,-1.6748,-1.6748,-1.6464,-1.6236,-1.629,-1.629,-1.629,0.0,0.0,0.0,0.0,0.0,0.0,-1.44,-1.3885,0.0,0.0,0.0,0.0,0.0,0.0,0.0,0.0,0.0,0.0,0.0,0.0,0.0,0.0,0.0,0.0,-2.0889,-2.1545,-2.1882,-2.1869,-2.1869,-2.184,-2.1797,-2.1797,-2.2013,-2.241,-2.241,-2.3222,-2.463,-2.463,-2.5226,-2.622,-2.6132,-2.6115,-2.6115,-2.6079,-2.629,-2.666,-2.7476,-2.8461,-2.9452,-0.6138,0.0,0.0,0.0,0.0,0.0,0.0,-1.1686,0.0,-1.2627,0.0,-1.2529,-1.2529,-1.1859,-1.1651,-1.2215,0.0,-1.1931,-1.2618,-1.2774,-1.291,-1.3025,-1.3064,-1.3122,-1.317,-1.3082,0.0,0.0,0.0,-1.0466,-0.8764,-0.9502,-0.9604,-0.9247,0.0,0.0,0.0,-1.432,-1.5222,-1.5656,-1.5277,-1.5322,-1.57,-1.5656,-1.5844,-1.6163,-1.5744,-1.5355,-1.5108,-1.5108,-1.5062,-1.5108,-1.5579,-1.5744,-1.5876,-1.6293,-1.6466,-1.6522,-1.6522,-1.6522,-1.6522,-1.6522,-1.6522,-1.6522,-1.6633,-1.6675,-1.6675,-1.6675,-1.6761,0.0,0.0,0.0,0.0,0.0,0.0,0.0,0.0,0.0,0.0,0.0,0.0,0.0,0.0,0.0,0.0,0.0,0.0,0.0,0.0,0.0,0.0,0.0,-2.1296,0.0,-2.1797,0.0,-2.1797,-2.1797,-2.1797,-2.1797,-2.1797,-2.1797,-2.2543,-2.3868,-2.3951,-2.4745,-2.6035,-2.5994,-2.599,-2.599,-2.5917,-2.5881,-2.5963,-2.67,-2.7892,-2.9222,0.0,0.0,0.0,0.0,0.0,-0.9519,-0.9519,-1.0853,-1.1949,-1.2335,-1.1977,-1.1678,-1.1578,-1.099,-1.072,-1.0922,-1.0872,0.0,0.0,0.0,0.0,-1.2264,-1.2353,-1.2598,-1.3055,-1.2638,-1.2215,0.0,-1.0871,-0.9958,-0.9027,-0.9401,-0.9352,-0.9045,0.0,0.0,-1.4007,-1.4382,0.0,-1.5232,-1.5153,-1.5153,-1.5198,-1.4777,-1.464,-1.4582,-1.449,-1.4731,-1.5108,-1.5108,-1.4834,-1.4605,-1.5051,-1.549,-1.5832,-1.5876,-1.6207,-1.6522,-1.6522,-1.6522,-1.6522,-1.6522,-1.6522,-1.6522,-1.6522,-1.6522,-1.6522,-1.6522,-1.6565,-1.6426,-1.6043,0.0,0.0,0.0,0.0,0.0,0.0,0.0,0.0,0.0,0.0,0.0,0.0,0.0,0.0,0.0,0.0,0.0,0.0,0.0,0.0,0.0,0.0,0.0,0.0,0.0,0.0,-2.1797,-2.1797,-2.1797,-2.1797,-2.1797,-2.2261,-2.3123,-2.3605,-2.4313,-2.517,-2.5707,-2.5917,-2.5917,-2.5791,-2.5738,-2.5819,-2.6553,-2.7408,-2.8281,0.0,0.0,0.0,0.0,0.0,0.0,0.0,-1.0467,0.0,-1.1292,-1.1141,-1.099,-1.0939,-1.0379,-1.0115,-1.0466,-1.032,-1.0364,-1.0771,-1.0864,-1.1074,-1.1392,-1.1434,0.0,-1.2384,-1.2167,-1.1847,-1.1409,-1.0809,-0.9863,-0.8651,-0.8981,-0.8902,-0.8569,0.0,-1.226,0.0,0.0,0.0,-1.449,-1.4212,-1.4305,-1.449,-1.4269,-1.4305,-1.4444,-1.4165,-1.4258,-1.4536,-1.4536,-1.4165,-1.3894,-1.4455,-1.4766,-1.5073,-1.5656,-1.5976,-1.6194,-1.6423,-1.6522,-1.6479,-1.6479,-1.6436,-1.6436,-1.6436,-1.6436,-1.6479,-1.6479,-1.6522,-1.6346,-1.5875,-1.5556,0.0,0.0,0.0,0.0,0.0,0.0,0.0,0.0,0.0,0.0,0.0,0.0,0.0,0.0,0.0,0.0,0.0,0.0,0.0,0.0,0.0,0.0,0.0,0.0,0.0,-2.1797,-2.1768,-2.1738,-2.1738,-2.1724,-2.209,-2.2831,-2.3457,-2.418,-2.4919,-2.5533,-2.577,-2.5749,-2.5659,-2.5659,-2.5691,-2.6048,-2.6633,-2.7452,0.0,-0.5882,0.0,0.0,-0.8472,0.0,-0.9356,-0.996,-1.0393,-1.0418,-1.0423,-1.0399,-1.0372,-0.9762,-0.9555,-0.9953,-0.9762,-0.9762,-1.021,-1.0364,-1.0466,-1.0568,-1.061,-1.0914,-1.1516,-1.1616,-1.1329,0.0,0.0,-0.9838,-0.8218,-0.8746,-0.8945,0.0,0.0,0.0,0.0,0.0,-1.3313,-1.3779,-1.3351,-1.3447,-1.3836,-1.3836,-1.4061,-1.434,-1.4071,-1.3894,-1.3789,-1.3884,-1.3695,-1.3457,-1.4025,-1.4316,-1.4628,-1.5522,-1.5844,-1.5976,-1.6349,-1.6436,-1.6436,-1.6362,-1.6362,-1.6362,-1.6362,-1.6392,-1.6392,-1.6479,-1.6479,-1.6388,-1.5998,-1.5892,0.0,0.0,0.0,0.0,0.0,0.0,0.0,0.0,0.0,0.0,0.0,0.0,0.0,0.0,0.0,0.0,-1.494,-1.6269,0.0,0.0,0.0,0.0,-2.152,0.0,-2.1724,0.0,-2.1708,-2.1694,-2.1664,-2.1603,-2.1931,-2.2522,-2.3342,-2.4176,-2.5007,-2.5489,-2.5659,-2.5616,-2.5616,-2.5616,-2.5616,-2.5616,-2.6069,-2.6902,0.0,0.0,0.0,0.0,0.0,0.0,0.0,-0.9014,-0.9633,-1.0447,-1.0193,-0.9775,-0.9539,-0.904,-0.8732,-0.8778,-0.8844,-0.8962,-0.9159,-0.9159,-0.9361,-0.9865,-1.0012,-1.0261,-1.0712,-1.0965,-1.0694,0.0,0.0,-0.9575,0.0,0.0,0.0,0.0,0.0,0.0,0.0,-1.2791,-1.2882,-1.3266,-1.3218,-1.3218,-1.3256,-1.3256,-1.3286,-1.3306,-1.3678,-1.3488,-1.3065,-1.3478,-1.3752,-1.3978,-1.4129,-1.472,-1.5424,-1.5591,-1.5869,-1.6188,-1.6244,-1.6244,-1.6244,-1.6244,-1.6244,-1.6244,-1.6244,-1.6318,-1.6392,-1.6392,-1.6479,-1.6473,-1.6361,-1.6728,-1.697,0.0,0.0,0.0,0.0,0.0,0.0,0.0,0.0,0.0,0.0,0.0,0.0,0.0,0.0,0.0,0.0,-1.5234,0.0,-1.8372,0.0,-1.9881,-2.0603,-2.1275,0.0,-2.162,-2.162,-2.162,-2.162,-2.162,-2.1622,-2.1769,-2.3063,-2.4346,-2.5519,-2.5584,-2.5616,-2.5616,-2.5616,-2.5616,-2.5616,-2.5616,-2.6069,-2.6798,0.0,0.0,0.0,0.0,0.0,0.0,0.0,-0.9022,-0.9298,-0.9825,-0.9606,-0.9402,-0.9283,-0.8945,-0.8725,-0.8847,-0.8738,-0.8745,-0.8857,-0.8857,-0.8956,-0.9211,-0.9256,-0.9562,-1.0115,-1.0218,-1.0184,0.0,0.0,0.0,0.0,0.0,0.0,0.0,0.0,-1.1905,-1.2686,-1.2745,-1.2859,-1.3007,-1.3007,-1.3007,-1.3007,-1.3007,-1.3017,-1.2978,-1.321,-1.3113,-1.2929,-1.3113,-1.3248,-1.343,-1.381,-1.4176,-1.464,-1.5322,-1.5647,-1.5836,-1.61,-1.62,-1.62,-1.61,-1.6088,-1.6088,-1.6088,-1.6132,-1.6175,-1.6275,-1.6318,-1.6287,-1.6288,-1.6357,-1.6596,0.0,0.0,0.0,0.0,0.0,0.0,0.0,0.0,-1.5387,0.0,0.0,0.0,0.0,0.0,0.0,0.0,0.0,0.0,-1.7625,0.0,-1.9698,-2.0492,-2.1136,-2.1511,-2.1589,-2.1511,-2.1464,-2.1464,-2.145,-2.189,-2.2785,-2.3321,-2.4324,-2.5616,-2.5616,-2.5616,-2.5616,-2.5616,-2.5616,-2.5616,-2.5616,-2.5794,-2.6215,-0.3604,0.0,-0.5501,0.0,-0.7106,-0.7732,-0.8243,-0.8598,-0.8873,-0.9004,-0.9157,-0.9226,-0.9122,-0.8972,-0.8909,-0.8978,-0.8896,-0.8889,-0.8956,-0.901,-0.9065,-0.9065,-0.8978,0.0,-0.9602,-0.9561,-0.965,-0.986,-1.0134,0.0,0.0,0.0,0.0,0.0,-1.1179,-1.1774,-1.2196,-1.2648,-1.2832,-1.2842,-1.3008,-1.3066,-1.3076,-1.3203,-1.3174,-1.3066,-1.3066,-1.2988,-1.2881,-1.2881,-1.2881,-1.3027,-1.3621,-1.3858,-1.4129,-1.5142,-1.5424,-1.5468,-1.5969,-1.6069,-1.6057,-1.5957,-1.5957,-1.5957,-1.5957,-1.5957,-1.6044,-1.6188,-1.62,-1.6231,-1.6362,-1.6279,-1.6447,0.0,0.0,0.0,0.0,0.0,0.0,0.0,-1.6253,-1.5341,-1.4645,0.0,0.0,0.0,0.0,0.0,0.0,0.0,0.0,0.0,0.0,0.0,0.0,0.0,-2.1433,-2.1511,-2.1433,-2.1355,-2.1355,-2.1309,-2.2102,-2.3513,-2.3513,-2.4288,-2.5616,-2.5616,-2.5616,-2.5616,-2.5616,-2.5616,-2.5616,-2.5616,-2.5616,-2.5778,-0.3827,-0.4232,-0.4785,-0.5913,-0.6264,-0.6457,-0.6719,-0.7572,-0.8161,-0.8021,-0.8742,-0.9194,-0.903,-0.9026,-0.902,-0.902,-0.9259,-0.9382,-0.9382,-0.9557,-0.9673,0.0,0.0,-0.9176,-0.9232,-0.9059,-0.9008,-0.9001,0.0,0.0,-0.9411,0.0,-1.0023,-1.0421,-1.0971,-1.1345,-1.1651,-1.2372,-1.2676,-1.2763,-1.328,-1.3496,-1.3545,-1.3912,-1.3857,-1.3496,-1.3496,-1.3232,-1.2881,-1.2881,-1.2881,-1.3017,-1.36,-1.4014,-1.4433,-1.5085,-1.5232,-1.5198,-1.5659,-1.5792,-1.5792,-1.5792,-1.5792,-1.5792,-1.5792,-1.5913,-1.6044,-1.6188,-1.62,-1.6318,-1.671,-1.6795,-1.6894,-1.7156,0.0,0.0,0.0,0.0,0.0,0.0,-1.5394,-1.4472,-1.515,0.0,0.0,0.0,0.0,0.0,0.0,0.0,0.0,-1.8038,-1.9511,0.0,-2.0305,-2.0985,-2.1309,-2.1309,-2.1309,-2.1309,-2.1309,-2.1309,-2.2102,-2.3513,-2.3513,-2.4288,-2.5616,-2.5616,-2.5616,-2.5616,-2.5616,-2.5616,-2.5616,-2.5616,-2.5616,-2.5729,-0.3438,-0.4098,-0.4766,-0.514,-0.5741,-0.6334,-0.6654,-0.6981,-0.7181,-0.7246,-0.7512,-0.7847,-0.8274,-0.8678,-0.9017,0.0,-0.9204,-0.9155,0.0,-0.9337,-0.9343,-0.9343,-0.9253,-0.9259,-0.931,-0.9276,-0.9243,-0.9153,0.0,0.0,0.0,-1.0285,-1.0343,-1.0163,-1.092,-1.1567,-1.2129,-1.2492,-1.3041,-1.3532,-1.3719,-1.383,-1.3902,-1.4029,-1.4,-1.3936,-1.3936,-1.3848,-1.374,-1.374,-1.374,-1.373,-1.3918,-1.3909,-1.3941,-1.4433,-1.4869,-1.5108,-1.5289,-1.5558,-1.5792,-1.5792,-1.5792,-1.5792,-1.5792,-1.5836,-1.5881,-1.5925,-1.5925,-1.5969,-1.6088,-1.6132,-1.6373,-1.706,0.0,0.0,0.0,0.0,0.0,0.0,-1.6045,-1.5315,0.0,-1.4543,0.0,0.0,0.0,0.0,0.0,0.0,0.0,0.0,-1.9285,0.0,-2.0305,-2.0969,-2.1309,-2.1309,-2.1309,-2.1309,-2.1341,-2.1827,-2.2572,-2.3545,-2.3964,-2.4725,-2.5616,-2.5616,-2.5616,-2.5616,-2.5616,-2.5616,-2.5616,-2.5616,-2.5616,-2.5778,-0.2825,-0.3489,-0.4018,-0.4084,-0.4749,-0.5345,-0.5672,-0.6001,-0.6264,-0.633,-0.6593,-0.6985,-0.7437,-0.784,0.0,-0.9295,-0.9322,-0.935,-0.9417,-0.9478,-0.9471,-0.9471,-0.9377,-0.9439,-0.961,0.0,0.0,-0.9406,-0.9729,-0.9897,-0.9972,-1.0159,-1.0166,-0.998,-1.0717,-1.1301,-1.1651,-1.2096,-1.252,-1.3032,-1.347,-1.37,-1.3828,-1.4285,-1.4357,-1.4266,-1.4221,-1.4115,-1.4024,-1.398,-1.3926,-1.398,-1.4291,-1.4061,-1.384,-1.4393,-1.4954,-1.5349,-1.5154,-1.5424,-1.5748,-1.557,-1.5659,-1.5792,-1.5792,-1.5792,-1.5792,-1.5792,-1.5792,-1.5792,-1.5792,-1.5925,-1.6306,-1.7073,0.0,-1.7733,-1.8517,0.0,0.0,0.0,0.0,0.0,0.0,-1.5691,0.0,0.0,0.0,0.0,0.0,0.0,0.0,-1.8281,-1.9852,0.0,-2.0677,-2.1098,-2.1309,-2.1309,-2.1309,-2.1309,-2.1341,-2.207,-2.2798,-2.3545,-2.4191,-2.492,-2.5616,-2.5616,-2.5616,-2.5616,-2.5616,-2.5616,-2.5616,-2.5616,-2.5616,-2.5778,-0.2221,-0.2487,0.0,0.0,-0.3424,0.0,-0.3961,-0.4821,-0.5415,-0.5209,-0.5932,-0.6523,-0.6588,-0.6588,-0.7307,-0.8947,0.0,0.0,0.0,-0.9856,-0.9919,-0.9983,-0.9743,0.0,-0.991,-0.959,-0.9499,-0.9713,-0.9419,-0.9462,-0.9904,-0.9561,-0.9581,-0.9911,-1.043,-1.0602,-1.0552,-1.1244,-1.1527,-1.1664,-1.2809,-1.331,-1.346,-1.4517,-1.4782,-1.46,-1.444,-1.4183,-1.3959,-1.3815,-1.377,-1.3924,-1.4583,-1.4467,-1.4174,-1.4829,-1.5411,-1.5751,-1.5246,-1.5424,-1.5703,-1.5244,-1.5468,-1.5792,-1.5792,-1.5792,-1.5792,-1.5792,-1.5792,-1.5792,-1.5792,-1.6175,-1.665,-1.7115,-1.7557,-1.7962,-1.8439,0.0,0.0,0.0,0.0,0.0,0.0,-1.6873,-1.7352,0.0,0.0,0.0,0.0,0.0,-1.8712,-2.0197,-2.0922,-2.1262,-2.1262,-2.1262,-2.1262,-2.1262,-2.1262,-2.1262,-2.1278,-2.2086,-2.2831,-2.3511,-2.4256,-2.4968,-2.5616,-2.5616,-2.5616,-2.5616,-2.5616,-2.5616,-2.5616,-2.5616,-2.5616,-2.5729,0.0,0.0,-0.2753,-0.2956,-0.3293,-0.3629,-0.3825,-0.409,-0.4223,-0.4156,-0.4422,-0.4885,-0.5415,-0.5679,-0.6268,-0.7242,-0.7637,-0.8096,-0.8753,-0.8812,-0.9075,-0.9606,-0.9551,-0.9642,-0.9832,-0.9769,-0.9754,-0.984,-0.9668,-0.9613,-0.9737,-0.9663,-0.967,-0.9751,-1.0084,-1.0538,-1.0967,-1.133,-1.1851,-1.2514,-1.2783,-1.3297,-1.3841,-1.4118,-1.4532,-1.4877,-1.4828,-1.482,-1.4735,-1.4677,-1.4677,-1.4735,-1.4898,-1.5164,-1.5386,-1.5171,-1.5121,-1.5215,-1.5108,-1.5424,-1.5792,-1.5659,-1.5703,-1.5792,-1.5792,-1.5792,-1.5792,-1.5792,-1.5792,-1.5792,-1.5792,-1.6175,-1.665,-1.7115,-1.7557,-1.7962,-1.8439,0.0,0.0,0.0,-1.7374,-1.7078,-1.6754,-1.7571,-1.779,0.0,0.0,0.0,0.0,0.0,-1.9342,-1.9845,-2.0528,-2.0925,-2.0925,-2.0925,-2.0925,-2.0925,-2.0925,-2.0925,-2.0973,-2.2351,-2.3093,-2.3353,-2.4733,-2.5454,-2.5616,-2.5616,-2.5616,-2.5616,-2.5616,-2.5616,-2.5616,-2.5616,-2.5616,-2.5794,-0.1681,-0.195,-0.2218,-0.2353,-0.2891,-0.3293,-0.3424,-0.3625,-0.3825,-0.3825,-0.3892,-0.4092,-0.4489,-0.4755,-0.5084,-0.5543,-0.6527,-0.7246,-0.7707,-0.7772,-0.7902,-0.8301,-0.8425,-0.8689,-0.921,-0.9274,-0.9521,-0.9949,-0.9726,-0.9714,-0.9838,-0.9827,-0.9834,-0.9966,-1.0247,-1.0506,-1.0882,-1.1044,-1.1358,-1.1787,-1.2097,-1.2458,-1.2879,-1.3183,-1.3614,-1.3992,-1.424,-1.4359,-1.4419,-1.4675,-1.4743,-1.4852,-1.5186,-1.5294,-1.5339,-1.549,-1.5513,-1.54,-1.4975,-1.528,-1.5647,-1.5647,-1.5703,-1.576,-1.576,-1.5792,-1.5792,-1.5792,-1.5792,-1.5792,-1.5792,-1.6175,-1.665,-1.7115,-1.7557,-1.7962,-1.8439,-1.7983,0.0,-1.7983,-1.7773,-1.7576,-1.7534,-1.8124,-1.8233,-1.7571,0.0,0.0,-1.8897,-1.95,-1.99,-2.0016,-2.0523,-2.0794,-2.0794,-2.0794,-2.0794,-2.0794,-2.0794,-2.0794,-2.0842,-2.2388,-2.306,-2.314,-2.4746,-2.5448,-2.5448,-2.5578,-2.5616,-2.5616,-2.5616,-2.5616,-2.5616,-2.5616,-2.5616,-2.5778,-0.1076,-0.1345,-0.1614,-0.1614,-0.2285,-0.2889,-0.2956,-0.3357,-0.3625,-0.3692,-0.3758,-0.3758,-0.3758,-0.3894,-0.4028,-0.4233,-0.5613,-0.6531,-0.6728,-0.6728,-0.6793,-0.6924,-0.7055,-0.7507,-0.8291,-0.8544,-0.9128,-0.9989,-0.9749,-0.9756,-0.9977,-0.9936,-1.0073,-1.0308,-1.0498,-1.0561,-1.0561,-1.0561,-1.0561,-1.0618,-1.1178,-1.1483,-1.1725,-1.2266,-1.2757,-1.3139,-1.3511,-1.3692,-1.3881,-1.4327,-1.4515,-1.4625,-1.5225,-1.505,-1.4817,-1.5578,-1.5839,-1.5669,-1.4829,-1.496,-1.5412,-1.5468,-1.557,-1.5671,-1.5671,-1.5748,-1.5792,-1.5792,-1.5792,-1.5792,-1.5792,-1.6175,-1.665,-1.7031,-1.7434,-1.7882,-1.8347,0.0,-1.7852,-1.8422,-1.8054,-1.7941,-1.8461,-1.8517,-1.862,-1.8874,-1.9139,0.0,0.0,-1.996,-2.015,-2.0154,-2.0512,-2.0728,-2.0728,-2.0728,-2.0728,-2.0728,-2.0728,-2.0728,-2.0775,-2.2102,-2.2749,-2.2959,-2.4445,-2.5144,-2.5256,-2.5448,-2.554,-2.554,-2.554,-2.554,-2.5578,-2.5578,-2.5578,-2.5675,-0.1076,-0.1345,-0.1614,-0.1614,-0.2018,-0.2421,-0.2686,-0.282,-0.2954,-0.3226,-0.3429,-0.3563,-0.3563,-0.3694,-0.3892,-0.4028,-0.4292,-0.4885,-0.6001,-0.6071,-0.6334,-0.6859,-0.6924,-0.7116,-0.7377,-0.828,-0.9069,-0.9798,-0.9882,-0.9945,-0.9983,-1.0002,-1.0072,-1.0301,-1.0308,-1.0364,-1.0371,-1.0561,-1.0498,-1.0371,-1.0618,-1.1351,-1.2389,-1.2451,-1.3199,-1.4258,-1.4327,-1.4387,-1.4387,-1.4446,-1.4515,-1.4515,-1.4616,-1.4625,-1.4556,-1.4718,-1.4773,-1.479,-1.4641,-1.4701,-1.4937,-1.5367,-1.5513,-1.5513,-1.5513,-1.5614,-1.5715,-1.5715,-1.5748,-1.5792,-1.5792,-1.6175,-1.6522,-1.6607,-1.6976,-1.7447,0.0,0.0,-1.7946,-1.8425,-1.8433,-1.8419,-1.8503,-1.8517,-1.862,-1.8874,-1.8936,-1.8988,-1.9049,-1.9362,-1.9398,-1.9147,-1.9925,-2.0373,-2.0373,-2.0373,-2.0373,-2.0373,-2.0373,-2.0373,-2.0388,-2.137,-2.2113,-2.2692,-2.3702,-2.4474,-2.5045,-2.5084,-2.5201,-2.5333,-2.5333,-2.5333,-2.5371,-2.554,-2.5486,-2.5484,-0.0538,-0.0739,-0.0874,-0.1277,-0.148,-0.1816,-0.2353,-0.2552,-0.282,-0.3159,-0.3295,-0.3362,-0.3362,-0.3496,-0.3694,-0.3696,-0.3828,-0.4159,-0.4818,-0.4954,-0.5153,-0.5484,-0.5613,-0.5939,-0.6461,-0.7307,-0.7897,-0.8231,-0.8753,-0.9011,-0.9011,-0.96,-0.9926,-1.0053,-1.0117,-1.011,-1.011,-1.0238,-1.0301,-1.0308,-1.0371,-1.0863,-1.1476,-1.1476,-1.2035,-1.2903,-1.3268,-1.3631,-1.401,-1.4387,-1.4515,-1.4515,-1.4515,-1.4515,-1.4515,-1.4515,-1.4533,-1.4541,-1.4409,-1.4412,-1.4525,-1.4845,-1.4949,-1.504,-1.5334,-1.548,-1.5614,-1.5614,-1.5659,-1.576,-1.576,-1.5969,-1.6219,-1.6479,-1.668,0.0,0.0,-1.7679,-1.7882,-1.8095,-1.8347,-1.8517,-1.8517,-1.8517,-1.8556,-1.8697,-1.8836,-1.8898,-1.8898,-1.9213,-1.9339,-1.9176,-1.9747,-2.0115,-2.0304,-2.0304,-2.0304,-2.0304,-2.0304,-2.0304,-2.0335,-2.1084,-2.1786,-2.2483,-2.338,-2.4147,-2.4806,-2.4926,-2.5045,-2.5139,-2.5139,-2.5139,-2.5139,-2.5256,-2.5217,-2.5226,0.0202,0.0067,-0.0067,-0.0605,-0.0739,-0.0941,-0.1614,-0.1949,-0.235,-0.2822,-0.2956,-0.3023,-0.3159,-0.3362,-0.3431,-0.3498,-0.3627,-0.3828,-0.3961,-0.4097,-0.4233,-0.43,-0.4495,-0.4954,-0.5807,-0.64,-0.6728,-0.6924,-0.7582,-0.7907,-0.7907,-0.8952,-0.9472,-0.9542,-0.9798,-0.9919,-0.9989,-0.9989,-1.0047,-1.018,-1.0238,-1.0491,-1.0751,-1.0807,-1.1178,-1.1787,-1.2328,-1.2826,-1.3381,-1.407,-1.4258,-1.4258,-1.4446,-1.4515,-1.4515,-1.4515,-1.4559,-1.4465,-1.4092,-1.4033,-1.407,-1.4153,-1.4258,-1.4433,-1.4971,-1.5198,-1.5277,-1.5424,-1.557,-1.5659,-1.5659,-1.5703,-1.5836,-1.6219,0.0,0.0,0.0,-1.7201,-1.7489,-1.7666,-1.8055,-1.8347,-1.8439,-1.8439,-1.8439,-1.8517,-1.8644,-1.876,-1.8798,-1.904,-1.9228,-1.9302,-1.9566,-1.9839,-2.0185,-2.0185,-2.022,-2.0304,-2.0304,-2.0304,-2.032,-2.0844,-2.1538,-2.2355,-2.2995,-2.3771,-2.4549,-2.4766,-2.4846,-2.4926,-2.4926,-2.4926,-2.4926,-2.4966,-2.4966,-2.4926,0.1008,0.0739,0.047,0.0403,0.0403,0.0269,-0.0134,-0.0336,-0.0873,-0.1878,-0.2147,-0.2484,-0.3159,-0.3226,-0.3295,-0.3498,-0.3498,-0.3629,-0.3825,-0.3961,-0.4097,-0.43,-0.4495,-0.4888,-0.5617,-0.5873,-0.6264,-0.6924,-0.699,-0.699,-0.699,-0.7907,-0.8431,-0.8619,-0.9472,-0.9804,-0.9804,-0.9926,-0.9926,-0.9862,-1.018,-1.0681,-1.124,-1.1365,-1.1849,-1.2451,-1.2512,-1.2512,-1.2696,-1.3321,-1.3571,-1.37,-1.4327,-1.4515,-1.4515,-1.4515,-1.4488,-1.4369,-1.3671,-1.3477,-1.348,-1.3628,-1.3658,-1.38,-1.4326,-1.4512,-1.4686,-1.521,-1.5435,-1.5513,-1.5513,-1.5513,-1.5513,-1.5558,0.0,0.0,-1.6114,-1.6201,-1.6502,-1.7271,-1.7585,-1.7882,-1.8189,-1.8242,-1.8321,-1.8478,-1.8361,-1.8307,-1.8517,-1.8556,-1.8697,-1.8936,-1.925,-1.9545,-1.9823,-1.9823,-1.998,-2.0304,-2.0304,-2.0304,-2.0304,-2.035,-2.109,-2.2286,-2.2385,-2.3141,-2.4302,-2.4343,-2.4467,-2.463,-2.463,-2.463,-2.467,-2.4926,-2.4846,-2.467,0.1745,0.1545,0.1344,0.0605,0.0739,0.0672,0.0067,-0.0067,-0.0336,-0.0938,-0.1208,-0.1411,-0.1679,-0.2216,-0.2619,-0.2686,-0.3092,-0.3429,-0.3629,-0.3629,-0.3897,-0.43,-0.4367,-0.4564,-0.4761,-0.4891,-0.5024,-0.5286,-0.5811,-0.6075,-0.6141,-0.699,-0.7512,-0.7702,-0.8032,-0.849,-0.9011,-0.9075,-0.9338,-0.9804,-0.9926,-1.018,-1.0491,-1.0548,-1.0968,-1.1578,-1.1717,-1.2027,-1.2451,-1.2765,-1.2887,-1.3009,-1.3692,-1.3881,-1.395,-1.4387,-1.4515,-1.4409,-1.3839,-1.3511,-1.3304,-1.3145,-1.3112,-1.3256,-1.38,-1.3894,-1.4082,-1.4605,-1.4834,-1.496,-1.53,-1.5424,-1.5513,-1.5513,0.0,-1.5546,-1.5712,-1.5952,-1.6201,-1.6532,-1.7105,-1.7407,-1.7353,-1.7774,-1.7935,-1.7787,-1.7909,-1.8083,-1.8321,-1.8439,-1.8556,-1.8659,-1.8774,-1.9078,-1.9545,-1.953,-1.9617,-1.9741,-1.9741,-1.9833,-1.998,-1.9833,-2.033,-2.1394,-2.1611,-2.236,-2.3473,-2.3842,-2.4177,-2.4426,-2.4426,-2.4426,-2.4426,-2.4523,-2.4508,-2.4467,0.2683,0.2418,0.2084,0.1344,0.1344,0.1277,0.0739,0.0605,0.0403,0.0,-0.0268,-0.047,-0.0671,-0.1343,-0.1745,-0.1745,-0.2217,-0.2688,-0.3092,-0.3362,-0.3699,-0.4097,-0.4233,-0.43,-0.4231,-0.43,-0.43,-0.43,-0.4894,-0.5223,-0.5223,-0.6075,-0.6597,-0.6724,-0.7051,-0.7507,-0.8096,-0.8161,-0.8663,-0.9527,-0.9533,-0.9841,-1.0171,-1.0147,-1.0418,-1.0839,-1.0891,-1.117,-1.1655,-1.2027,-1.2151,-1.2274,-1.2948,-1.3199,-1.3321,-1.401,-1.4198,-1.4168,-1.3935,-1.3681,-1.3386,-1.29,-1.2675,-1.2735,-1.3218,-1.3372,-1.3515,-1.4046,-1.4326,-1.4605,-1.4937,-1.5198,-1.5379,-1.5379,-1.5379,-1.5379,-1.5379,-1.5623,-1.582,-1.5952,-1.66,-1.6938,-1.6727,-1.7256,-1.7475,-1.7188,-1.7421,-1.7747,-1.8083,-1.8321,-1.84,-1.84,-1.8478,-1.8711,-1.9116,-1.9191,-1.9302,-1.9413,-1.9413,-1.9508,-1.9675,-1.9472,-1.9864,-2.07,-2.1124,-2.1832,-2.2765,-2.3383,-2.3797,-2.4009,-2.4009,-2.4009,-2.4009,-2.4094,-2.4135,-2.4177,0.3825,0.3222,0.2686,0.2686,0.2421,0.2221,0.2221,0.2018,0.1614,0.0874,0.0605,0.0268,-0.0402,-0.0671,-0.0806,-0.0806,-0.1008,-0.1411,-0.2147,-0.3023,-0.3563,-0.3758,-0.4097,-0.4231,-0.4028,-0.4164,-0.43,-0.43,-0.43,-0.43,-0.43,-0.5156,-0.5617,-0.5617,-0.6728,-0.7181,-0.7186,-0.7321,-0.7971,-0.8907,-0.9052,-0.9678,-1.0573,-1.0434,-1.0394,-1.0356,-1.0084,-0.9989,-1.011,-1.0989,-1.1303,-1.1421,-1.2266,-1.2512,-1.2634,-1.3321,-1.3511,-1.3545,-1.382,-1.3882,-1.369,-1.2927,-1.242,-1.2224,-1.2677,-1.2812,-1.2967,-1.3467,-1.3999,-1.4373,-1.4373,-1.4789,-1.5108,-1.5108,-1.5108,-1.5108,-1.5108,-1.5108,-1.5232,-1.5546,-1.612,-1.6479,-1.6479,-1.6795,-1.6938,-1.6786,-1.6938,-1.7256,-1.7882,-1.8083,-1.8202,-1.8202,-1.84,-1.8517,-1.8517,-1.876,-1.9064,-1.9376,-1.9376,-1.9376,-1.9413,-1.9376,-1.9752,-2.0433,-2.1045,-2.1654,-2.2344,-2.3039,-2.3319,-2.3319,-2.3319,-2.3319,-2.3363,-2.3653,-2.3797,-2.3882,0.4092,0.3692,0.3355,0.309,0.2755,0.2554,0.2554,0.2287,0.2018,0.1817,0.1614,0.1412,0.1209,0.0538,0.0067,0.0,-0.0538,-0.1075,-0.1411,-0.1745,-0.2146,-0.2683,-0.3489,-0.3894,-0.3892,-0.3894,-0.3961,-0.3961,-0.4028,-0.4097,-0.4097,-0.4583,-0.4894,-0.4971,-0.5411,-0.601,-0.67,-0.6769,-0.729,-0.818,-0.8255,-0.8434,-0.8764,-0.9258,-0.94,-0.9309,-0.991,-1.0024,-0.9926,-1.0301,-1.0491,-1.0744,-1.1538,-1.2151,-1.2512,-1.2634,-1.307,-1.3485,-1.3493,-1.3687,-1.369,-1.2927,-1.2623,-1.2466,-1.232,-1.2304,-1.255,-1.342,-1.3716,-1.4035,-1.4743,-1.5017,-1.5108,-1.5108,-1.5108,-1.5108,-1.5108,-1.5108,-1.5153,-1.5244,-1.5635,-1.5856,-1.5856,-1.6411,-1.6752,-1.674,-1.7131,-1.7434,-1.7611,-1.7868,-1.8003,-1.8003,-1.8163,-1.8282,-1.8282,-1.8503,-1.8659,-1.8774,-1.8774,-1.8889,-1.9026,-1.8851,-1.8989,-1.9397,-2.0268,-2.0924,-2.1393,-2.2439,-2.3038,-2.3319,-2.3319,-2.3319,-2.3319,-2.3407,-2.3625,-2.3824,0.4755,0.4225,0.3758,0.3491,0.3021,0.2686,0.2686,0.2421,0.2221,0.2221,0.2087,0.2018,0.2018,0.1412,0.1013,0.0956,0.0205,-0.041,-0.0478,-0.0945,-0.1349,-0.1706,-0.2319,-0.2988,-0.3694,-0.3758,-0.3845,-0.382,-0.4026,-0.412,-0.4097,-0.444,-0.4613,-0.4689,-0.4839,-0.5228,-0.5868,-0.5936,-0.6542,-0.7538,-0.7538,-0.7807,-0.8239,-0.8652,-0.8629,-0.8564,-0.9361,-0.9497,-0.9344,-0.9798,-1.0053,-1.0301,-1.0863,-1.1288,-1.1655,-1.1903,-1.2274,-1.265,-1.2826,-1.3024,-1.3064,-1.2729,-1.268,-1.265,-1.2411,-1.2186,-1.2274,-1.289,-1.3122,-1.3552,-1.4362,-1.4697,-1.488,-1.5062,-1.5108,-1.5108,-1.5108,-1.5108,-1.5108,-1.5108,-1.5412,-1.5546,-1.5412,-1.5932,-1.6238,-1.6238,-1.6582,-1.6879,-1.7186,-1.7393,-1.7611,-1.7747,-1.7949,-1.8083,-1.8083,-1.8202,-1.8361,-1.8517,-1.8517,-1.8581,-1.8721,-1.8581,-1.8581,-1.8778,-1.9653,-2.0274,-2.0769,-2.1755,-2.2448,-2.2859,-2.2859,-2.2859,-2.2859,-2.2994,-2.3304,-2.361,0.5763,0.4897,0.4164,0.4102,0.3426,0.2887,0.2887,0.2487,0.2221,0.2221,0.2221,0.2224,0.223,0.2027,0.1981,0.2036,0.1125,0.0492,0.0492,-0.0343,-0.0822,-0.0843,-0.0844,-0.1598,-0.3185,-0.3518,-0.3696,-0.3862,-0.4074,-0.4197,-0.4297,-0.452,-0.467,-0.467,-0.4829,-0.4907,-0.498,-0.5119,-0.5838,-0.6775,-0.6775,-0.7472,-0.8371,-0.8254,-0.8133,-0.8009,-0.8485,-0.8522,-0.8582,-0.9414,-0.9798,-0.9919,-1.0174,-1.0238,-1.0428,-1.1115,-1.1296,-1.1421,-1.2089,-1.2197,-1.2181,-1.2512,-1.2654,-1.2702,-1.2681,-1.2439,-1.2172,-1.2184,-1.2491,-1.2967,-1.3515,-1.4046,-1.4558,-1.4971,-1.5062,-1.5108,-1.5108,-1.5108,-1.5108,-1.5108,-1.5367,-1.5457,-1.5153,-1.5457,-1.5635,-1.5635,-1.5635,-1.5944,-1.6637,-1.6837,-1.7089,-1.7393,-1.7666,-1.7828,-1.7828,-1.7882,-1.8083,-1.8478,-1.8478,-1.8478,-1.8517,-1.8517,-1.8517,-1.8545,-1.9123,-1.9768,-2.0358,-2.1048,-2.164,-2.21,-2.2156,-2.2184,-2.2231,-2.2526,-2.2889,-2.3319,0.6857,0.6104,0.5656,0.6037,0.5087,0.4156,0.4156,0.3288,0.2619,0.2619,0.2354,0.2172,0.2219,0.2155,0.2109,0.2093,0.1736,0.1518,0.1518,0.1294,0.0933,0.036,0.0217,-0.036,-0.1287,-0.2145,-0.287,-0.3615,-0.3754,-0.3907,-0.393,-0.4377,-0.4566,-0.4572,-0.4817,-0.5089,-0.524,-0.5237,-0.5484,-0.5896,-0.6043,-0.614,-0.6321,-0.7122,-0.7301,-0.7196,-0.7788,-0.7931,-0.7994,-0.8674,-0.8935,-0.9128,-0.9849,-1.0047,-1.011,-1.0174,-1.0604,-1.1212,-1.1772,-1.2328,-1.2801,-1.2901,-1.268,-1.2487,-1.2652,-1.265,-1.2596,-1.2646,-1.2716,-1.2967,-1.3515,-1.4046,-1.4419,-1.4558,-1.488,-1.5108,-1.5108,-1.5108,-1.5108,-1.5108,-1.5153,-1.5277,-1.5457,-1.5824,-1.6057,-1.6057,-1.6057,-1.6144,-1.6318,-1.6362,-1.6405,-1.6491,-1.6934,-1.7214,-1.7214,-1.7652,-1.8003,-1.8282,-1.8282,-1.8361,-1.8517,-1.8517,-1.8517,-1.8545,-1.9123,-1.9474,-1.9684,-2.0807,-2.1386,-2.1555,-2.2002,-2.2184,-2.2231,-2.2263,-2.254,-2.2889,0.7456,0.6606,0.6043,0.6329,0.56,0.4951,0.4951,0.4217,0.3685,0.3685,0.3659,0.3573,0.3554,0.3391,0.3097,0.2592,0.2228,0.2006,0.2006,0.1837,0.1613,0.1259,0.1113,0.0671,-0.0075,-0.0678,-0.1649,-0.2967,-0.3185,-0.3503,-0.3925,-0.4277,-0.4533,-0.4612,-0.4753,-0.4935,-0.5168,-0.5168,-0.5246,-0.5479,-0.5553,-0.5634,-0.5637,-0.6247,-0.6304,-0.6226,-0.6857,-0.7246,-0.7584,-0.8262,-0.8549,-0.8742,-0.9664,-0.9926,-0.9926,-0.9926,-1.0168,-1.0471,-1.0787,-1.1094,-1.1531,-1.2266,-1.2255,-1.2118,-1.2244,-1.2148,-1.2121,-1.233,-1.2442,-1.2638,-1.3122,-1.3457,-1.3742,-1.3999,-1.4222,-1.4455,-1.4743,-1.4789,-1.4834,-1.5062,-1.5108,-1.5153,-1.5322,-1.5558,-1.5703,-1.5703,-1.5703,-1.5748,-1.5925,-1.5913,-1.6013,-1.6188,-1.6479,-1.6637,-1.6637,-1.7102,-1.7447,-1.7639,-1.7909,-1.8123,-1.8202,-1.8202,-1.8282,-1.8375,-1.8695,-1.9042,-1.9474,-2.0456,-2.1062,-2.1372,-2.1978,-2.2184,-2.2184,-2.2184,-2.2402,-2.2754,0.8002,0.7104,0.635,0.632,0.5896,0.5543,0.5543,0.5143,0.4878,0.4878,0.4993,0.5086,0.5111,0.4825,0.4299,0.334,0.2817,0.2439,0.2364,0.2094,0.1939,0.1904,0.1906,0.1538,0.0861,0.0705,-0.031,-0.213,-0.2355,-0.2841,-0.3606,-0.3837,-0.3992,-0.4151,-0.4384,-0.4543,-0.4701,-0.4859,-0.5093,-0.5243,-0.5321,-0.5401,-0.5482,-0.5559,-0.5487,-0.5445,-0.5864,-0.6364,-0.692,-0.7577,-0.8037,-0.8425,-0.9274,-0.967,-0.974,-0.9862,-0.9862,-0.9804,-0.9862,-0.9798,-0.9983,-1.1281,-1.1586,-1.16,-1.1565,-1.1579,-1.1676,-1.1817,-1.1977,-1.2166,-1.2579,-1.2716,-1.2967,-1.3409,-1.3515,-1.3763,-1.4186,-1.428,-1.4419,-1.4777,-1.4926,-1.5017,-1.5108,-1.5108,-1.5108,-1.5108,-1.5108,-1.5232,-1.5501,-1.5501,-1.5691,-1.6013,-1.6057,-1.61,-1.61,-1.6509,-1.6795,-1.6964,-1.7529,-1.7842,-1.7882,-1.7882,-1.8003,-1.8163,-1.8163,-1.8519,-1.9196,-1.9838,-2.0426,-2.0988,-2.1703,-2.203,-2.2044,-2.2142,-2.2402,-2.2663,0.8965,0.8105,0.7447,0.7961,0.7176,0.6539,0.6539,0.5807,0.5209,0.5209,0.5129,0.5123,0.517,0.533,0.518,0.4508,0.4048,0.3587,0.3047,0.2647,0.2411,0.2421,0.2264,0.2111,0.196,0.1805,0.0784,-0.1092,-0.1325,-0.1562,-0.1646,-0.1881,-0.1958,-0.2037,-0.2898,-0.3443,-0.3673,-0.4384,-0.4857,-0.5093,-0.5243,-0.5246,-0.5093,-0.5246,-0.5309,-0.5266,-0.5176,-0.5126,-0.5223,-0.6075,-0.6859,-0.7507,-0.842,-0.9081,-0.9548,-0.9548,-0.9548,-0.9676,-1.0238,-1.0364,-1.0421,-1.0604,-1.0667,-1.0636,-1.0596,-1.1655,-1.2439,-1.187,-1.1828,-1.1977,-1.2017,-1.2433,-1.2812,-1.2909,-1.3314,-1.361,-1.3716,-1.3716,-1.3716,-1.38,-1.4233,-1.4651,-1.5062,-1.5108,-1.5108,-1.5108,-1.5108,-1.5108,-1.5153,-1.5153,-1.5198,-1.5244,-1.5513,-1.568,-1.568,-1.6367,-1.671,-1.6765,-1.7115,-1.7502,-1.7882,-1.7882,-1.7922,-1.7922,-1.7922,-1.8003,-1.8167,-1.8768,-1.9195,-1.9502,-2.0709,-2.1276,-2.1499,-2.1988,-2.2231,-2.2278,0.9108,0.8377,0.7882,0.8113,0.7588,0.7129,0.7129,0.6798,0.6531,0.6531,0.6639,0.6768,0.6849,0.6652,0.623,0.5619,0.5151,0.4761,0.438,0.4144,0.3988,0.3912,0.3366,0.313,0.313,0.2431,0.1648,0.0862,0.0,-0.0705,-0.1332,-0.141,-0.1489,-0.1646,-0.2037,-0.2348,-0.2579,-0.3129,-0.3365,-0.3443,-0.3675,-0.3677,-0.36,-0.3677,-0.4066,-0.4431,-0.422,-0.4398,-0.4792,-0.51,-0.5796,-0.6593,-0.7381,-0.7837,-0.8166,-0.863,-0.8759,-0.8952,-0.9728,-0.9919,-1.0047,-1.0421,-1.0485,-1.0519,-1.0494,-1.1084,-1.1564,-1.1575,-1.1669,-1.1819,-1.1877,-1.2107,-1.2295,-1.2403,-1.2598,-1.2842,-1.3122,-1.316,-1.3266,-1.3563,-1.381,-1.414,-1.4651,-1.4697,-1.4834,-1.5062,-1.5108,-1.5108,-1.5108,-1.5108,-1.5108,-1.5108,-1.5244,-1.5322,-1.5322,-1.5844,-1.6107,-1.6107,-1.6479,-1.6863,-1.724,-1.724,-1.7199,-1.7115,-1.7115,-1.7269,-1.7597,-1.824,-1.8665,-1.9056,-2.0306,-2.1116,-2.162,-2.1899,-2.2091,-2.2184]}]]